[[{"header":{"parameterUnit":"m.s-1","parameterCategory":1,"la1":30.6,"la2":29.2853,"lo1":-89.7004,"lo2":-87.6739,"dx":0.0162,"dy":0.0183,"nx":112,"ny":82,"refTime":"2022-12-18T06:00:00:Z","depth":0,"parameterNumber":2,"parameterNumberName":"U-component_of_WINDS"},"data":[0.0,0.0,0.0,0.0,0.0,0.0,0.0,0.0,0.0,0.0,0.0,0.0,0.0,0.0,0.0,0.0,0.0,0.0,0.0,0.0,0.0,0.0,0.0,0.0,0.0,0.0,0.0,0.0,0.0,0.0,0.0,0.0,0.0,0.0,0.0,0.0,0.0,0.0,0.0,0.0,0.0,0.0,0.0,0.0,0.0,0.0,0.0,0.0,0.0,0.0,0.0,0.0,0.0,0.0,0.0,0.0,0.0,0.0,0.0,0.0,0.0,0.0,0.0,0.0,0.0,0.0,0.0,0.0,0.0,0.0,0.0,0.0,0.0,0.0,0.0,0.0,0.0,0.0,0.0,0.0,0.0,0.0,0.0,0.0,0.0,0.0,0.0,0.0,0.0,0.0,0.0,6.7897,6.9004,6.9632,6.9333,6.9482,6.8345,6.5353,0.0,0.0,0.0,0.0,0.0,0.0,0.0,0.0,0.0,0.0,0.0,0.0,0.0,0.0,0.0,0.0,0.0,0.0,0.0,0.0,0.0,0.0,0.0,0.0,0.0,0.0,0.0,0.0,0.0,0.0,0.0,0.0,0.0,0.0,0.0,0.0,0.0,0.0,0.0,0.0,0.0,0.0,0.0,0.0,0.0,0.0,0.0,0.0,0.0,0.0,0.0,0.0,0.0,0.0,0.0,0.0,0.0,0.0,0.0,0.0,0.0,0.0,0.0,0.0,0.0,0.0,0.0,0.0,0.0,0.0,0.0,0.0,0.0,0.0,0.0,0.0,0.0,0.0,0.0,0.0,0.0,0.0,0.0,0.0,0.0,0.0,0.0,0.0,0.0,0.0,0.0,0.0,0.0,0.0,0.0,0.0,0.0,0.0,0.0,0.0,0.0,0.0,0.0,0.0,6.9004,7.1727,7.2684,7.2475,7.0769,7.1667,7.047,6.6131,0.0,0.0,0.0,0.0,0.0,0.0,0.0,0.0,0.0,0.0,0.0,0.0,0.0,0.0,0.0,0.0,0.0,0.0,0.0,0.0,0.0,0.0,0.0,0.0,0.0,0.0,0.0,0.0,0.0,0.0,0.0,0.0,0.0,0.0,0.0,0.0,0.0,0.0,0.0,0.0,0.0,0.0,0.0,0.0,0.0,0.0,0.0,0.0,0.0,0.0,0.0,0.0,0.0,0.0,0.0,0.0,0.0,0.0,0.0,0.0,0.0,0.0,0.0,0.0,0.0,0.0,0.0,0.0,0.0,0.0,0.0,0.0,0.0,0.0,0.0,0.0,0.0,0.0,0.0,0.0,0.0,0.0,0.0,0.0,0.0,0.0,0.0,0.0,0.0,0.0,0.0,0.0,0.0,0.0,0.0,0.0,0.0,0.0,0.0,0.0,0.0,0.0,0.0,6.9602,7.1906,7.3762,7.3941,7.3373,7.2086,7.2206,7.1009,6.7837,6.5144,0.0,0.0,0.0,0.0,0.0,0.0,0.0,0.0,0.0,0.0,0.0,0.0,0.0,0.0,0.0,0.0,0.0,0.0,0.0,0.0,0.0,0.0,0.0,0.0,0.0,0.0,0.0,0.0,0.0,0.0,0.0,0.0,0.0,0.0,0.0,0.0,0.0,0.0,0.0,0.0,0.0,0.0,0.0,0.0,0.0,0.0,0.0,0.0,0.0,0.0,0.0,0.0,0.0,0.0,0.0,0.0,0.0,0.0,0.0,0.0,0.0,0.0,0.0,0.0,0.0,0.0,0.0,0.0,0.0,0.0,0.0,0.0,0.0,0.0,0.0,0.0,0.0,0.0,0.0,0.0,0.0,0.0,0.0,0.0,0.0,0.0,0.0,0.0,0.0,0.0,0.0,0.0,0.0,0.0,0.0,0.0,0.0,0.0,0.0,0.0,0.0,0.0,7.3492,7.4958,7.5288,7.4899,7.427,7.3462,7.2894,7.1637,6.9363,6.6879,0.0,0.0,0.0,0.0,0.0,0.0,0.0,0.0,0.0,0.0,0.0,0.0,0.0,0.0,0.0,0.0,0.0,0.0,0.0,0.0,0.0,0.0,0.0,0.0,0.0,0.0,0.0,0.0,0.0,0.0,0.0,0.0,0.0,0.0,0.0,0.0,0.0,0.0,0.0,0.0,0.0,0.0,0.0,0.0,0.0,0.0,0.0,0.0,0.0,0.0,0.0,0.0,0.0,0.0,0.0,0.0,0.0,0.0,0.0,0.0,0.0,0.0,0.0,0.0,0.0,0.0,0.0,0.0,0.0,0.0,0.0,0.0,0.0,0.0,0.0,0.0,0.0,0.0,0.0,0.0,0.0,0.0,0.0,0.0,0.0,0.0,0.0,0.0,0.0,0.0,0.0,0.0,0.0,0.0,0.0,0.0,0.0,0.0,0.0,0.0,0.0,0.0,7.4809,7.7322,7.6754,7.6634,7.6125,7.4839,7.4689,7.3313,7.0111,6.7986,0.0,0.0,0.0,0.0,0.0,0.0,0.0,0.0,0.0,0.0,0.0,0.0,0.0,0.0,0.0,0.0,0.0,0.0,0.0,0.0,0.0,0.0,0.0,0.0,0.0,0.0,0.0,0.0,0.0,0.0,0.0,0.0,0.0,0.0,0.0,0.0,0.0,0.0,0.0,0.0,0.0,0.0,0.0,0.0,0.0,0.0,0.0,0.0,0.0,0.0,0.0,0.0,0.0,0.0,0.0,0.0,0.0,0.0,0.0,0.0,0.0,0.0,0.0,0.0,0.0,0.0,0.0,0.0,0.0,0.0,0.0,0.0,0.0,0.0,0.0,0.0,0.0,0.0,0.0,0.0,0.0,0.0,0.0,0.0,0.0,0.0,0.0,0.0,0.0,0.0,0.0,0.0,0.0,0.0,0.0,0.0,0.0,0.0,0.0,0.0,0.0,0.0,7.5198,7.7562,0.0,7.6814,7.6305,7.4988,7.451,7.3552,7.1906,0.0,0.0,0.0,0.0,0.0,0.0,0.0,0.0,0.0,0.0,0.0,0.0,0.0,0.0,0.0,0.0,0.0,0.0,0.0,0.0,0.0,0.0,0.0,0.0,0.0,0.0,0.0,0.0,0.0,0.0,0.0,0.0,0.0,0.0,0.0,0.0,0.0,0.0,0.0,0.0,0.0,0.0,0.0,0.0,0.0,0.0,0.0,0.0,0.0,0.0,0.0,0.0,0.0,0.0,0.0,0.0,0.0,0.0,0.0,0.0,0.0,0.0,0.0,0.0,0.0,0.0,0.0,0.0,0.0,0.0,0.0,0.0,0.0,0.0,0.0,0.0,0.0,0.0,0.0,0.0,0.0,0.0,0.0,0.0,0.0,0.0,0.0,0.0,0.0,0.0,0.0,0.0,0.0,0.0,0.0,0.0,0.0,0.0,0.0,0.0,0.0,0.0,7.2176,7.5617,7.7711,0.0,7.7083,7.6485,7.5587,7.4899,7.4151,7.3283,0.0,0.0,0.0,0.0,0.0,0.0,0.0,0.0,0.0,0.0,0.0,0.0,0.0,0.0,0.0,0.0,0.0,0.0,0.0,0.0,0.0,0.0,0.0,0.0,0.0,0.0,0.0,0.0,0.0,0.0,0.0,0.0,0.0,0.0,0.0,0.0,0.0,0.0,0.0,0.0,0.0,0.0,0.0,0.0,0.0,0.0,0.0,0.0,0.0,0.0,0.0,0.0,0.0,0.0,0.0,0.0,0.0,0.0,0.0,0.0,0.0,0.0,0.0,0.0,0.0,0.0,0.0,0.0,0.0,0.0,0.0,0.0,0.0,0.0,0.0,0.0,0.0,0.0,0.0,0.0,0.0,0.0,0.0,0.0,0.0,0.0,0.0,0.0,0.0,0.0,0.0,0.0,0.0,0.0,0.0,0.0,0.0,0.0,0.0,0.0,0.0,0.0,7.3552,7.6185,7.8071,7.8729,7.7622,7.6844,7.6814,7.6275,7.5347,0.0,0.0,0.0,0.0,0.0,0.0,0.0,0.0,0.0,0.0,0.0,0.0,0.0,0.0,0.0,0.0,0.0,0.0,0.0,0.0,0.0,0.0,0.0,0.0,0.0,0.0,0.0,0.0,0.0,0.0,0.0,0.0,0.0,0.0,0.0,0.0,0.0,0.0,0.0,0.0,0.0,0.0,0.0,0.0,0.0,0.0,0.0,0.0,0.0,0.0,0.0,0.0,0.0,0.0,0.0,0.0,0.0,0.0,0.0,0.0,0.0,0.0,0.0,0.0,0.0,0.0,0.0,0.0,0.0,0.0,0.0,0.0,0.0,0.0,0.0,0.0,0.0,0.0,0.0,0.0,0.0,0.0,0.0,0.0,0.0,0.0,0.0,0.0,0.0,0.0,0.0,0.0,0.0,0.0,0.0,0.0,0.0,0.0,0.0,0.0,0.0,0.0,0.0,7.424,7.6874,7.8579,7.8759,7.8041,7.7322,7.6874,7.6664,7.6395,7.5976,0.0,0.0,0.0,0.0,0.0,0.0,0.0,0.0,0.0,0.0,0.0,0.0,0.0,0.0,0.0,0.0,0.0,0.0,0.0,0.0,0.0,0.0,0.0,0.0,0.0,0.0,0.0,0.0,0.0,0.0,0.0,0.0,0.0,0.0,0.0,0.0,0.0,0.0,0.0,0.0,0.0,0.0,0.0,0.0,0.0,0.0,0.0,0.0,0.0,0.0,0.0,0.0,0.0,0.0,0.0,0.0,0.0,0.0,0.0,0.0,0.0,0.0,0.0,0.0,0.0,0.0,0.0,0.0,0.0,0.0,0.0,0.0,0.0,0.0,0.0,0.0,0.0,0.0,0.0,0.0,0.0,0.0,0.0,0.0,0.0,0.0,0.0,0.0,0.0,0.0,0.0,0.0,0.0,0.0,0.0,0.0,0.0,0.0,0.0,0.0,0.0,0.0,7.5018,7.7352,7.8998,7.9537,7.8759,7.8041,7.7652,7.7622,7.7502,7.7233,0.0,0.0,0.0,0.0,0.0,0.0,0.0,0.0,0.0,0.0,0.0,0.0,0.0,0.0,0.0,0.0,0.0,0.0,0.0,0.0,0.0,0.0,0.0,0.0,0.0,0.0,0.0,0.0,0.0,0.0,0.0,0.0,0.0,0.0,0.0,0.0,0.0,0.0,0.0,0.0,0.0,0.0,0.0,0.0,0.0,0.0,0.0,0.0,0.0,0.0,0.0,0.0,0.0,0.0,0.0,0.0,0.0,0.0,0.0,0.0,0.0,0.0,0.0,0.0,0.0,0.0,0.0,0.0,0.0,0.0,0.0,0.0,0.0,0.0,0.0,0.0,0.0,0.0,0.0,0.0,0.0,0.0,0.0,0.0,0.0,0.0,0.0,0.0,0.0,0.0,0.0,0.0,0.0,0.0,0.0,0.0,0.0,0.0,0.0,0.0,0.0,0.0,7.5976,7.7801,7.9477,8.0823,7.9776,7.8968,7.8968,7.8968,7.8729,7.813,0.0,0.0,0.0,0.0,0.0,0.0,0.0,0.0,0.0,0.0,0.0,0.0,0.0,0.0,0.0,0.0,0.0,0.0,0.0,0.0,0.0,0.0,0.0,0.0,0.0,0.0,0.0,0.0,0.0,0.0,0.0,0.0,0.0,0.0,0.0,0.0,0.0,0.0,0.0,0.0,0.0,0.0,0.0,0.0,0.0,0.0,0.0,0.0,0.0,0.0,0.0,0.0,0.0,0.0,0.0,0.0,0.0,0.0,0.0,0.0,6.5337,0.0,0.0,0.0,0.0,0.0,0.0,0.0,0.0,0.0,0.0,0.0,0.0,0.0,0.0,0.0,0.0,0.0,0.0,0.0,0.0,0.0,0.0,0.0,0.0,0.0,0.0,0.0,0.0,0.0,0.0,0.0,0.0,0.0,0.0,0.0,0.0,0.0,0.0,0.0,0.0,0.0,7.7861,7.9447,8.0883,8.22,8.1153,8.0375,8.0375,8.0375,8.0315,8.0165,7.9417,0.0,0.0,0.0,0.0,0.0,0.0,0.0,0.0,0.0,0.0,0.0,0.0,0.0,0.0,0.0,0.0,0.0,0.0,0.0,0.0,0.0,0.0,0.0,0.0,0.0,0.0,0.0,0.0,0.0,0.0,0.0,0.0,0.0,0.0,0.0,0.0,0.0,0.0,0.0,0.0,0.0,0.0,0.0,0.0,0.0,0.0,0.0,0.0,0.0,0.0,0.0,0.0,0.0,0.0,0.0,0.0,0.0,0.0,0.0,0.0,6.6478,0.0,0.0,0.0,0.0,0.0,0.0,0.0,0.0,0.0,0.0,0.0,0.0,0.0,0.0,0.0,0.0,0.0,0.0,0.0,0.0,0.0,0.0,0.0,0.0,0.0,0.0,0.0,0.0,0.0,0.0,0.0,0.0,0.0,0.0,0.0,0.0,0.0,0.0,0.0,0.0,7.819,8.0584,8.2469,8.3158,8.2619,8.22,8.22,8.1931,8.1751,8.1751,8.0823,0.0,0.0,0.0,0.0,0.0,0.0,0.0,0.0,0.0,0.0,0.0,0.0,0.0,0.0,0.0,0.0,0.0,0.0,0.0,0.0,0.0,0.0,0.0,0.0,0.0,0.0,0.0,0.0,0.0,0.0,0.0,0.0,0.0,0.0,0.0,0.0,0.0,0.0,0.0,0.0,0.0,0.0,0.0,0.0,0.0,0.0,0.0,0.0,0.0,0.0,0.0,0.0,0.0,7.7749,7.8053,7.5862,7.7947,7.8692,7.8324,7.4221,7.2758,7.329,0.0,0.0,0.0,0.0,0.0,0.0,0.0,0.0,0.0,0.0,0.0,0.0,0.0,0.0,0.0,0.0,0.0,0.0,0.0,0.0,0.0,0.0,0.0,0.0,0.0,8.2158,8.2844,0.0,0.0,0.0,0.0,0.0,0.0,0.0,0.0,0.0,0.0,0.0,0.0,7.8699,8.1721,8.3965,8.4055,8.3965,8.3906,8.3906,8.3397,8.3098,8.3098,8.208,8.1661,0.0,0.0,0.0,0.0,0.0,0.0,0.0,0.0,0.0,0.0,0.0,0.0,0.0,0.0,0.0,0.0,0.0,0.0,0.0,0.0,0.0,0.0,0.0,0.0,0.0,0.0,0.0,0.0,0.0,0.0,0.0,0.0,6.1912,6.2604,0.0,0.0,0.0,0.0,0.0,0.0,0.0,0.0,0.0,0.0,0.0,0.0,0.0,0.0,7.6845,7.9077,7.9968,7.9622,8.293,8.4588,8.4674,8.309,8.3407,8.5101,8.3063,0.0,7.6209,7.5635,0.0,0.0,0.0,0.0,0.0,0.0,0.0,0.0,0.0,0.0,0.0,0.0,0.0,0.0,0.0,0.0,0.0,0.0,0.0,0.0,0.0,0.0,8.8498,8.8933,8.9485,8.942,0.0,8.4129,8.0475,7.8303,7.9267,0.0,0.0,0.0,0.0,0.0,0.0,0.0,8.1961,8.3547,8.4803,8.5372,8.4923,8.4594,8.4594,8.4504,8.4444,8.4444,8.4295,8.3965,8.3487,8.223,0.0,0.0,0.0,0.0,0.0,0.0,0.0,0.0,0.0,0.0,0.0,0.0,0.0,0.0,0.0,0.0,0.0,0.0,0.0,0.0,0.0,0.0,0.0,0.0,0.0,0.0,0.0,0.0,0.0,6.2807,6.4154,6.5287,6.5603,6.616,0.0,0.0,0.0,0.0,0.0,0.0,0.0,0.0,0.0,7.555,7.7933,7.9659,8.0669,8.2163,8.2399,8.1403,8.4654,8.6114,8.5887,8.5432,8.6231,8.7911,8.6744,8.5284,8.3465,8.1178,7.9741,7.9013,0.0,0.0,0.0,0.0,7.872,7.8822,8.1934,8.3016,0.0,8.349,0.0,0.0,0.0,0.0,0.0,0.0,0.0,0.0,0.0,0.0,9.0185,9.0921,9.1422,9.1523,9.0754,8.9601,8.7779,0.0,8.4606,8.3664,7.96,0.0,0.0,0.0,0.0,0.0,8.286,8.4534,8.5791,8.5701,8.5761,8.5821,8.5821,8.5492,8.5252,8.5252,8.4923,8.4414,8.3756,8.2828,8.2504,0.0,0.0,0.0,0.0,0.0,0.0,0.0,0.0,0.0,0.0,0.0,0.0,0.0,0.0,0.0,0.0,0.0,0.0,0.0,0.0,0.0,0.0,0.0,0.0,0.0,0.0,0.0,0.0,6.574,6.7144,6.8209,6.9529,7.0558,0.0,0.0,0.0,0.0,0.0,0.0,7.5282,7.673,7.7705,7.8215,8.1166,8.2995,8.3568,8.4271,8.4293,8.3401,8.6345,8.7497,8.6995,8.7745,8.8632,8.9613,8.9072,8.914,8.9365,8.5699,8.4143,8.4024,8.3038,8.2465,8.2272,8.3219,8.3321,8.349,8.6873,8.8023,8.8125,8.8666,0.0,8.7008,8.4573,0.0,0.0,0.0,0.0,8.6569,8.8835,9.0527,9.1778,9.2319,9.2861,9.3131,9.2556,9.3199,9.3031,0.0,8.923,8.7895,8.3993,0.0,0.0,0.0,0.0,8.7094,8.5231,8.6914,8.7765,8.6847,8.7084,8.7169,8.6449,8.612,8.5881,8.5701,8.5402,8.5138,8.5182,8.4548,8.4582,8.5307,0.0,0.0,0.0,0.0,0.0,0.0,0.0,0.0,0.0,0.0,0.0,0.0,0.0,0.0,0.0,0.0,0.0,0.0,0.0,0.0,0.0,0.0,0.0,0.0,0.0,0.0,0.0,0.0,0.0,7.206,7.4691,0.0,0.0,0.0,0.0,7.9803,7.6932,7.6829,8.049,8.0086,8.0712,8.2888,8.3845,8.4603,8.5307,8.5393,8.6052,8.7314,8.9114,9.0425,9.0987,9.1102,9.1102,9.1169,9.1135,9.1169,9.0953,8.7759,8.6596,8.6518,8.4171,8.3777,8.4708,8.6163,8.711,8.7989,9.029,9.1068,9.1068,9.1102,9.0154,8.8801,8.7989,8.6704,0.0,0.0,8.8801,9.0459,9.2725,9.4417,9.5533,9.5567,9.5601,9.5601,9.5567,9.5093,9.4417,0.0,9.2759,9.1884,9.0717,0.0,8.9146,8.8102,8.9819,9.1055,9.1023,9.1585,9.138,8.9469,8.935,8.8409,8.5948,8.627,8.6359,8.5731,8.624,8.7421,8.9076,8.8576,8.8913,9.0255,9.0411,0.0,0.0,0.0,0.0,0.0,0.0,0.0,0.0,0.0,0.0,0.0,0.0,0.0,0.0,0.0,0.0,0.0,0.0,0.0,0.0,0.0,0.0,0.0,0.0,0.0,0.0,0.0,0.0,7.5333,7.751,0.0,0.0,7.8485,7.9705,8.2844,7.9515,7.9085,8.3004,8.3375,8.4096,8.5479,8.7212,8.8477,8.9181,8.9181,8.945,8.9986,9.0635,9.1305,9.2015,9.1508,9.1846,9.2725,9.2218,9.2319,9.2725,9.1531,9.0841,9.0311,8.9514,8.9663,9.0527,9.1541,9.2083,9.2489,9.3774,9.418,9.4112,9.3639,9.3131,9.2556,9.1812,9.1237,9.1,9.2049,9.2692,9.3402,9.4687,9.5736,9.6379,9.5905,9.6142,9.6379,9.5905,9.5973,9.6041,9.577,9.4721,9.3736,9.3158,9.3824,9.3439,9.0686,9.2327,9.354,9.2884,9.289,9.3068,9.2824,9.2709,9.2468,9.151,9.173,9.1424,9.0704,9.0892,9.0936,9.0715,9.0462,9.1023,9.2279,9.2279,9.26,0.0,0.0,0.0,0.0,0.0,0.0,0.0,0.0,0.0,0.0,0.0,0.0,0.0,0.0,0.0,0.0,0.0,0.0,0.0,0.0,0.0,0.0,0.0,0.0,0.0,0.0,7.8511,7.808,8.0594,8.226,8.1729,8.1558,8.2641,8.5581,8.2845,8.2541,8.5799,8.6376,8.7038,8.7811,8.9663,9.0797,9.1305,9.1305,9.1406,9.1677,9.1677,9.2083,9.2793,9.2286,9.2624,9.3571,9.303,9.3098,9.3571,9.3571,9.3436,9.3165,9.2895,9.3131,9.3639,9.4146,9.4315,9.4383,9.489,9.5229,9.5364,9.4857,9.489,9.4992,9.4485,9.4315,9.4417,9.4924,9.506,9.5229,9.5973,9.6514,9.6819,9.6582,9.692,9.7191,9.6954,9.7292,9.7698,9.7969,9.6819,9.5709,9.555,9.6414,9.6515,9.4352,9.5376,9.6366,9.5819,9.5781,9.5669,9.5566,9.549,9.5251,9.4282,9.4923,9.4602,9.2968,9.3513,9.3109,9.1642,9.2482,9.3295,9.403,9.3532,9.3562,9.4248,0.0,0.0,0.0,0.0,0.0,0.0,0.0,0.0,0.0,0.0,0.0,0.0,0.0,0.0,0.0,0.0,0.0,0.0,0.0,0.0,0.0,0.0,0.0,7.7536,8.0209,8.2002,8.0547,8.4234,8.6332,8.4911,8.5986,8.7169,8.8023,8.7162,8.7327,8.9027,8.8961,8.9307,9.029,9.0966,9.1338,9.1372,9.1372,9.1744,9.2489,9.2489,9.2895,9.3639,9.3639,9.3639,9.3639,9.3639,9.3639,9.3639,9.3639,9.4079,9.4654,9.3909,9.3639,9.3639,9.3639,9.3639,9.3639,9.3639,9.4146,9.4755,9.4755,9.5229,9.5804,9.5804,9.5804,9.5838,9.5838,9.5872,9.6041,9.6717,9.6954,9.7157,9.7867,9.807,9.8273,9.8984,9.9119,9.9356,10.01,9.9051,9.807,9.807,9.807,9.8307,9.9018,9.9119,0.0,10.0134,10.0235,9.9565,9.7721,9.7586,9.6545,9.413,9.5757,9.5468,9.1825,9.3526,9.384,9.1953,9.4684,9.6159,9.5804,9.4315,9.2793,9.1305,0.0,0.0,0.0,0.0,0.0,0.0,0.0,0.0,0.0,0.0,0.0,0.0,0.0,0.0,0.0,0.0,0.0,0.0,0.0,0.0,0.0,0.0,8.1866,8.031,8.2847,8.4708,8.4302,8.5824,8.7144,8.7786,8.7223,8.7762,9.0176,8.8528,8.8443,9.0547,9.0688,9.0942,9.1812,9.2015,9.2387,9.2962,9.2962,9.3334,9.4079,9.4079,9.4451,9.5195,9.5195,9.5195,9.5195,9.5195,9.5195,9.5195,9.5195,9.5296,9.5432,9.4687,9.4721,9.5195,9.5195,9.5195,9.5195,9.5195,9.533,9.5499,9.5499,9.5635,9.5804,9.5804,9.6176,9.6582,9.6582,9.736,9.8104,9.7766,9.851,9.9221,9.8882,9.9221,9.966,9.9863,9.9897,9.9965,10.0202,9.9897,9.9627,9.9627,9.9627,9.9694,9.9897,9.9897,0.0,10.098,10.1081,10.1325,10.1783,10.1918,10.1352,10.0185,10.0151,9.8951,9.6317,9.6217,9.5836,9.4702,9.5441,9.562,9.5026,9.3503,9.2252,0.0,0.0,0.0,0.0,0.0,0.0,0.0,0.0,0.0,0.0,0.0,0.0,0.0,0.0,0.0,0.0,0.0,0.0,0.0,0.0,0.0,0.0,8.3558,8.4606,8.4167,8.5351,8.6366,8.667,8.7651,8.8632,8.9478,8.8947,8.9333,9.1237,9.0288,9.027,9.1744,9.2083,9.259,9.3368,9.3368,9.374,9.4485,9.4518,9.4721,9.5161,9.5161,9.5398,9.5804,9.5804,9.5804,0.0,9.5804,9.5804,9.5804,9.5804,9.5804,0.0,0.0,0.0,0.0,0.0,9.5804,9.5804,9.5804,9.6007,9.6244,9.6244,9.6447,9.6717,9.6717,9.7022,9.736,9.736,9.7969,9.8612,9.8476,9.9119,9.9728,9.9593,9.9897,10.0303,10.0608,10.0912,10.1318,10.1589,10.1893,0.0,10.2096,10.1014,10.0438,10.1115,10.1216,10.1589,10.2603,10.2198,10.2198,10.3009,10.2603,10.1995,10.1622,10.1724,0.0,0.0,0.0,9.78,9.6751,9.5838,0.0,0.0,0.0,0.0,9.0357,8.9647,0.0,0.0,8.738,8.6569,0.0,0.0,0.0,0.0,0.0,0.0,0.0,0.0,0.0,0.0,0.0,0.0,0.0,0.0,0.0,0.0,8.6535,8.8057,8.8226,8.7685,8.7516,8.8158,8.941,9.029,9.0459,9.1034,9.1474,9.1541,9.2252,9.2692,9.2692,0.0,0.0,0.0,0.0,9.5161,9.5804,9.5804,9.5838,9.5939,9.6007,9.6074,9.6176,9.6244,9.6311,9.6311,9.6311,9.6311,9.6311,9.6379,9.6413,9.6379,9.5973,9.5804,9.5804,9.5804,9.5804,9.5804,9.5804,0.0,0.0,9.6751,9.7225,9.7766,9.7867,9.7935,9.8037,9.8104,9.8307,9.8645,9.9221,9.9525,9.9863,10.0438,10.0641,10.0912,10.1589,10.2299,10.2908,10.328,10.3889,10.4193,10.399,10.1927,10.0811,10.2198,10.2198,10.2502,10.3787,10.2806,10.2096,10.2231,0.0,0.0,10.0235,10.1419,10.0912,9.807,9.9051,9.9119,9.7834,9.5804,9.4687,9.4586,9.374,9.1981,8.9207,8.8463,8.8091,8.7989,8.7922,8.7177,0.0,0.0,0.0,0.0,0.0,0.0,0.0,0.0,0.0,0.0,0.0,0.0,0.0,0.0,0.0,8.4336,8.6535,8.8429,8.9613,8.9647,8.9613,8.9782,9.0053,9.0696,9.188,9.2116,9.2455,9.3098,9.3842,9.4282,9.4282,9.4958,0.0,9.5567,9.5601,9.5669,9.5804,9.5804,9.6074,9.6683,0.0,0.0,9.8476,9.9085,9.9356,9.9356,9.9356,9.9356,9.9424,9.9999,10.0303,9.9999,9.6988,9.5804,9.5804,9.5804,9.5804,9.5804,9.5804,9.5872,9.6007,9.6007,9.6108,9.6345,9.692,9.7529,0.0,9.8713,10.0202,10.1521,10.1081,10.2265,10.3483,10.3009,10.3382,10.3889,10.399,10.416,10.3787,10.2096,10.1893,10.1487,9.9627,10.0303,10.1284,10.1589,9.9999,9.8984,9.9254,9.9051,9.9356,10.054,10.0405,10.0235,10.0235,9.9931,9.8984,9.7191,9.6819,9.6514,9.6244,9.5229,9.4417,9.3808,9.2455,9.1169,8.9985,8.9241,8.8564,8.7989,8.738,8.6974,0.0,0.0,0.0,0.0,0.0,0.0,0.0,0.0,0.0,0.0,0.0,7.9667,0.0,0.0,8.5283,8.711,8.8666,9.0053,9.1169,9.1305,9.1305,9.1305,9.1305,9.1778,9.2895,9.3334,9.374,9.4112,9.4823,9.5263,9.5263,9.5601,9.5973,9.6311,9.6717,9.7089,9.7428,9.7834,9.8206,9.8544,9.8916,9.9288,9.966,10.0032,10.0235,10.0235,10.0235,10.0235,10.0235,10.0608,10.0811,10.0608,9.8747,9.824,9.8578,9.8578,9.8848,9.9153,9.9153,9.9153,9.9153,9.9153,9.9153,9.9221,9.9593,9.9965,10.0303,10.0709,10.1893,10.2976,10.2603,10.3585,10.4295,10.2806,10.2773,10.2705,10.1589,10.1589,10.1589,10.0472,10.0506,10.0405,9.9322,9.9119,9.939,10.01,9.9288,9.8679,9.9051,9.8781,9.8848,9.9559,9.9322,9.9119,9.9119,9.8781,9.824,9.7495,9.6751,9.6345,9.6345,9.5635,9.5093,9.4687,9.3943,9.3199,9.2455,9.1711,9.0763,8.9613,8.8903,8.7955,0.0,0.0,0.0,0.0,0.0,0.0,0.0,0.0,7.7807,8.0682,8.1765,8.2813,8.4911,8.6399,8.7955,8.9884,9.0932,9.1711,9.2353,9.2556,9.2692,9.2861,9.2861,9.3098,9.374,9.4485,9.4924,9.4924,9.5601,9.6074,9.621,9.6345,9.6785,9.7495,9.8138,9.8713,9.9322,9.9897,10.0235,10.0235,10.0405,10.0438,10.0438,10.0608,10.0641,10.0641,10.0641,10.0743,10.0912,10.1014,10.1115,10.1115,10.1216,10.1589,10.1995,10.1555,10.1792,10.2299,10.2502,10.2502,10.2502,10.2502,10.2502,10.2502,10.2705,10.2705,10.2705,10.2502,10.2908,10.3314,10.3009,10.3382,10.3382,10.1589,10.1183,10.0675,9.8815,9.8882,9.9187,9.8747,9.9153,9.9491,9.9187,9.7664,9.6954,9.8442,9.8307,9.8307,9.9051,9.8747,9.8578,9.8848,9.8476,9.8273,9.8442,9.8442,9.8442,9.8442,9.7867,9.7461,9.7326,9.6751,9.6311,9.6007,9.6007,9.5635,9.4924,9.4315,9.33,9.1947,9.1372,8.9748,7.3849,0.0,0.0,7.9667,7.9938,8.0107,0.0,0.0,8.234,8.4674,8.5215,8.5757,8.7347,8.8294,8.914,9.0053,9.1372,9.2319,9.2421,9.303,9.3706,9.4383,9.4451,9.4485,9.4586,9.5229,9.5669,9.5669,9.6345,9.7056,9.7732,9.8375,9.9085,9.9829,9.9931,9.9999,10.01,10.0202,10.0235,10.0235,10.0912,10.1284,10.1284,10.1927,10.2231,10.2231,10.2231,10.2603,10.328,10.3889,10.4193,10.4261,10.4904,10.4802,10.4092,10.2096,10.1453,10.1589,10.2299,10.2502,10.2502,10.2502,10.2502,10.2603,10.328,10.3483,10.3314,10.2705,10.2603,10.2299,10.0912,10.0641,10.0641,10.0405,10.0337,10.0303,10.0032,10.0032,9.9525,9.7529,9.7191,9.6853,9.5533,9.5127,9.5466,9.692,9.5466,9.4485,9.5229,9.5804,9.6683,9.7969,9.8645,9.9254,9.9931,9.9965,9.9965,9.9965,9.9897,9.9559,9.8882,9.8747,9.8104,9.6785,9.6751,9.6379,9.5669,9.5601,9.5127,9.4315,9.4248,9.2286,7.713,0.0,0.0,0.0,8.1054,8.1393,8.349,8.349,8.3558,8.5418,8.6467,8.738,8.8429,8.9951,9.1135,0.0,9.2387,9.3267,9.3706,9.4045,9.4518,9.5263,9.533,9.5161,9.4755,9.4992,9.533,9.577,9.6886,9.7867,9.8612,9.9356,9.9897,10.0202,10.0709,10.0912,10.0912,10.1318,10.1521,10.1521,10.1893,10.1995,10.2096,10.2401,10.2705,10.3179,10.3585,10.399,10.4261,10.4566,10.4667,10.4701,10.5005,10.4971,10.4566,10.3652,10.328,10.3382,10.4193,10.443,10.443,10.443,10.3821,10.3111,10.3009,10.2299,10.1589,10.1216,10.1216,10.1014,10.0405,10.0235,9.9897,9.8578,9.8273,9.7935,9.665,9.6717,9.6751,9.5804,9.5973,9.6041,9.5466,9.533,9.5702,9.6717,9.6108,9.5601,9.5939,9.6988,9.8104,9.9187,9.9559,9.9863,10.0202,10.0235,10.0235,10.0235,10.0235,10.01,9.9762,9.9762,9.9457,9.8848,9.8815,9.8679,9.8375,9.8375,9.8003,9.7258,9.7258,9.6176,8.0412,0.0,0.0,8.19,8.2035,8.2543,8.3828,8.4302,8.4809,8.6129,8.7414,8.8598,8.9512,9.1034,0.0,9.2658,9.3402,9.4079,9.462,9.489,9.5296,9.6007,9.5905,9.5736,9.5635,9.5432,9.5702,9.665,9.7698,9.8713,9.966,10.0202,10.0608,10.0811,10.1386,10.1792,10.1995,10.2502,10.2908,10.3111,10.3111,10.3111,10.3111,10.3111,10.3382,10.3889,10.4464,10.4769,10.5005,10.5174,10.5377,10.558,10.5885,10.558,10.4971,10.4971,10.4971,10.5107,10.5817,10.5716,10.5208,10.5411,10.4396,10.2908,10.2603,10.1724,10.0743,10.0337,10.01,9.9829,9.9424,9.9288,9.8882,9.7258,9.6886,9.6514,9.5093,9.4924,9.5127,9.5533,9.5702,9.5973,9.6616,9.6548,9.6717,9.7664,9.8003,9.7969,9.7529,9.8781,9.9999,10.0811,10.0811,10.0811,10.0811,10.0811,10.0811,10.0811,10.0811,10.0743,10.0506,10.0506,10.0405,10.0235,10.0235,10.0235,10.0235,10.0235,9.9931,9.939,9.939,9.9119,0.0,0.0,8.3422,8.3422,8.3964,8.4742,8.552,8.6264,8.7008,8.7786,8.8531,8.9478,9.0966,9.1271,9.1812,9.33,9.418,9.4687,9.4721,9.533,9.6041,9.6751,9.6244,9.6345,0.0,9.7258,9.7428,9.8882,9.9051,9.9728,10.1183,10.1352,10.169,10.2401,10.2502,10.2806,10.3517,10.3585,10.3889,10.4599,10.4599,10.4599,10.4599,10.4599,10.4599,10.4667,10.4667,10.5107,10.5817,10.6494,10.7306,10.8016,10.8794,10.7712,10.5783,10.5783,10.5783,10.5885,10.6595,10.5479,10.3787,10.4498,10.328,10.1589,10.2299,10.2502,10.213,10.0641,9.9694,9.8781,9.736,9.6988,9.6954,9.6886,9.6886,9.7056,9.7732,9.6751,9.6176,9.7631,9.6751,9.648,9.8612,9.8409,9.8442,9.9897,10.0777,10.0675,9.9221,10.0371,10.1589,10.2401,10.2401,10.2401,10.2401,10.2401,10.2401,10.2401,10.2401,10.2096,10.1386,10.1386,10.098,10.0235,10.0235,10.0235,10.0235,10.0235,10.0202,10.0202,10.0202,10.0202,0.0,0.0,8.3625,8.4133,8.4809,8.5587,8.6366,8.711,8.7719,8.7955,8.8564,8.9376,9.0391,9.1372,9.2387,9.3402,9.4214,9.506,9.6007,9.6345,9.6988,9.8206,9.7698,0.0,0.0,0.0,0.0,9.8984,9.9559,10.0303,10.1284,10.1893,10.2502,10.3212,10.3212,10.3585,10.4295,10.4295,10.4464,10.4667,10.4667,10.4667,10.4667,10.5208,10.5682,10.6189,10.6189,10.69,10.7982,10.6697,10.6595,10.7204,10.6494,10.5682,10.5073,10.5073,10.5073,10.5005,10.4802,10.4193,10.3618,10.3889,10.2773,10.1284,10.1115,10.0303,9.9424,9.8916,9.8578,9.8273,9.7766,9.7631,9.7631,9.7631,9.7631,9.7698,9.7969,9.8003,9.8138,9.8612,9.8713,9.8984,9.9728,9.9627,9.9829,10.0811,10.1183,10.1386,10.1386,10.1792,10.2198,10.2502,10.2502,10.2502,10.2502,10.2502,10.2502,10.2502,10.2502,10.2401,10.2096,10.2096,10.1995,10.1724,10.1724,10.1724,10.1724,10.1724,10.1724,10.1724,10.1724,10.1724,0.0,8.4708,8.4843,8.5317,8.5824,8.6332,8.6805,8.7482,8.7989,8.7989,8.8564,8.9309,9.0053,9.1203,9.2286,9.303,9.4248,9.5432,9.6345,9.7191,9.8037,9.8984,9.8916,0.0,0.0,0.0,0.0,9.9829,10.0405,10.1081,10.2096,10.2603,10.3212,10.399,10.399,10.4295,10.5073,10.5073,10.5208,10.5479,10.5783,10.5885,10.5885,10.6697,10.7001,10.69,10.69,10.7306,10.7881,10.6392,10.6223,10.6798,10.5885,10.5174,10.4667,10.4667,10.4363,10.3889,10.399,10.3483,10.2874,10.3111,10.1995,10.0506,10.0303,9.9559,9.8815,9.8815,9.8815,9.8815,9.8815,9.9018,9.9221,9.9221,9.9221,9.9288,9.9559,9.9559,9.966,10.0202,10.0303,10.0405,10.0912,10.1014,10.1216,10.169,10.1995,10.2265,10.2502,10.2502,10.2502,10.2502,10.2705,10.2908,10.2908,10.3111,10.328,10.328,10.328,10.328,10.328,10.328,10.3179,10.2908,10.2908,10.2806,10.2502,10.2502,10.2502,10.2502,10.2502,10.2502,8.6907,8.6907,8.6907,8.6974,8.6974,8.6974,8.7008,8.755,8.8057,8.8057,8.8598,8.9309,0.0,0.0,9.1609,9.2353,9.4383,9.5872,9.5905,9.7732,9.9119,0.0,0.0,0.0,0.0,0.0,0.0,10.1487,0.0,10.2096,10.3585,10.3686,10.399,10.4701,10.4769,10.5107,10.5817,10.5919,10.6291,10.6967,10.761,10.7915,10.8016,10.8693,10.8185,10.6798,10.6798,10.6392,10.5817,10.5716,10.6122,10.6798,10.6697,10.5783,10.4566,10.4566,10.3686,10.2705,10.4092,10.3179,10.1589,10.2299,10.1014,9.939,10.01,10.0337,10.0337,10.0337,10.0337,10.0337,10.0337,10.0912,10.1487,10.1487,10.1487,10.1589,10.2299,10.1419,10.0811,10.2231,10.1318,10.0811,10.2231,10.2502,10.2603,10.2603,10.3179,10.3382,10.2705,10.2603,10.2603,10.2603,10.3212,10.3686,10.3686,10.4295,10.4667,10.4667,10.4667,10.4667,10.4667,10.4667,10.4363,10.3686,10.3686,10.3314,10.2603,10.2603,10.2603,10.2603,10.2603,10.2603,8.6907,8.6907,8.7042,8.7583,8.7719,8.7854,8.8395,8.8666,8.8801,8.8801,8.897,8.914,0.0,0.0,0.0,9.3165,9.5161,0.0,9.736,9.8409,0.0,0.0,0.0,10.1386,10.213,10.2705,0.0,0.0,10.3009,10.3415,10.4363,10.4396,10.4769,10.5513,10.5513,10.5885,10.6595,10.7204,10.7509,10.7712,10.7407,10.7204,10.717,10.6257,10.5885,10.602,10.5479,10.5783,10.6494,10.4802,10.4599,10.5174,10.4092,10.3415,10.3077,10.3077,10.2806,10.2603,10.2908,10.2705,10.2299,10.2401,10.2096,10.169,10.1893,10.1927,10.1927,10.1927,10.1927,10.1927,10.1927,10.2096,10.2198,10.2198,10.2198,10.2299,10.2502,10.2198,10.2028,10.2401,10.2198,10.2028,10.2401,10.2976,10.3314,10.3314,10.3889,10.416,10.3415,10.3787,10.4092,10.4092,10.4295,10.4396,10.4396,10.4566,10.4667,10.4667,10.4667,10.4667,10.4667,10.4667,10.4566,10.4396,10.4396,10.4295,10.4092,10.4092,10.4092,10.4092,10.4092,10.4092,8.6907,8.7144,8.755,8.8294,8.8463,8.8564,8.9004,8.9072,8.9072,8.9072,8.9072,0.0,0.0,0.0,0.0,0.0,0.0,0.0,9.7461,9.8713,9.9762,0.0,10.1216,0.0,10.2908,10.3382,10.3889,0.0,10.4295,10.4396,10.5107,10.5174,10.5513,10.6291,10.6291,10.6595,10.7407,10.7813,10.7813,10.7509,10.7407,10.7001,10.6392,10.5885,10.5513,10.531,0.0,10.4802,10.4904,10.3618,10.3382,10.3686,10.2806,10.2502,10.2502,10.2502,10.2502,10.2502,10.2502,10.2502,10.2502,10.2502,10.2502,10.2502,10.2502,10.2502,10.2502,10.2502,10.2502,10.2502,10.2502,10.2502,10.2502,10.2502,10.2502,10.2502,10.2502,10.2502,10.2603,10.2908,10.3009,10.3111,10.3415,10.3787,10.4092,10.4092,10.4701,10.5005,10.4599,10.4599,10.4667,10.4667,10.4971,10.5174,10.5174,10.5479,10.5682,10.5682,10.5682,10.5682,10.5682,10.5682,10.5479,10.5174,10.5174,10.5005,10.4667,10.4667,10.4667,10.4667,10.4667,10.4667,8.6907,8.7516,8.8294,8.8937,8.9072,8.9072,8.9072,8.9072,8.9072,8.9072,0.0,0.0,8.9072,0.0,9.2455,9.2556,0.0,9.6954,9.7157,9.895,10.0235,10.0337,10.1622,10.2806,10.3517,10.3686,10.4295,10.5716,10.5276,10.5276,10.5919,10.5919,10.6223,10.69,10.7001,10.7407,10.8016,10.8016,10.7712,10.7069,10.7407,10.69,10.5682,10.6088,10.558,10.4396,10.4396,0.0,10.2502,10.2502,10.2502,10.2502,10.2502,10.2502,10.2502,10.2502,10.2502,10.2502,10.2502,10.2502,10.2502,10.2502,10.2502,10.2502,10.2502,10.2502,10.2502,10.2502,10.2502,10.2502,10.2502,10.2502,10.2502,10.2502,10.2502,10.2502,10.2502,10.2603,10.2908,10.3585,10.372,10.3889,10.4566,10.4769,10.4802,10.4802,10.5479,10.5919,10.5919,10.5377,10.4971,10.4971,10.558,10.5919,10.5919,10.6494,10.69,10.69,10.69,10.69,10.69,10.69,10.6595,10.5986,10.5919,10.5614,10.4971,10.4971,10.4971,10.4971,10.4971,10.4971,8.6907,8.7888,8.8937,8.9038,8.9072,8.9072,8.9072,8.9072,0.0,0.0,0.0,8.9072,8.9072,0.0,0.0,9.3267,0.0,0.0,0.0,0.0,10.0438,0.0,0.0,0.0,0.0,0.0,0.0,0.0,0.0,0.0,10.6697,10.6697,10.6798,10.69,10.7509,10.7915,10.8016,10.8016,10.7915,10.7813,10.6088,10.5107,10.487,10.3787,10.3111,10.2908,10.2908,0.0,10.2502,10.2502,10.2502,10.2502,10.2502,10.2502,10.2502,10.2502,10.2502,10.2502,10.2502,10.2502,10.2502,10.2502,10.2502,10.2502,10.2502,10.2502,10.2502,10.2502,10.2502,10.2502,10.2502,10.2502,10.2502,10.2502,10.2502,10.2502,10.2502,10.3009,10.3585,10.4363,10.4498,10.4498,10.4667,10.5208,10.5614,10.5614,10.6223,10.6697,10.6697,10.6595,10.6494,10.6494,10.6595,10.6697,10.6697,10.6798,10.69,10.69,10.69,10.69,10.69,10.69,10.6798,10.6697,10.6697,10.6595,10.6494,10.6494,10.6494,10.6494,10.6494,10.6494,8.6907,8.7989,8.9072,8.9072,8.9072,8.9275,9.0053,0.0,0.0,0.0,0.0,8.9545,8.914,0.0,0.0,0.0,0.0,0.0,0.0,0.0,0.0,0.0,0.0,0.0,0.0,0.0,0.0,0.0,0.0,0.0,10.69,10.69,10.7103,10.7509,10.7813,10.8016,10.8016,10.8016,10.7407,10.6291,10.5174,10.4295,10.3517,10.2806,10.2502,10.2502,10.2502,0.0,10.2502,10.2502,10.2502,10.2502,10.2502,10.2502,10.2502,10.2502,10.2502,10.2502,10.2502,10.2502,10.2502,10.2502,10.2502,10.2502,10.2502,10.2502,10.2502,10.2502,10.2502,10.2502,10.2502,10.2502,10.2603,10.3009,10.3382,10.3618,10.3618,10.3889,10.4396,10.5107,10.5276,10.5377,10.5783,10.6088,10.6392,10.6392,10.6697,10.69,10.69,10.69,10.69,10.69,10.69,10.69,10.69,10.69,10.69,10.69,10.69,10.69,10.69,10.69,10.69,10.69,10.69,10.69,10.69,10.69,10.69,10.69,10.69,10.69,8.6907,8.7989,8.9072,8.9072,8.9072,8.9444,9.0763,9.0493,0.0,0.0,0.0,8.985,8.941,0.0,9.1372,0.0,0.0,0.0,0.0,0.0,0.0,0.0,0.0,0.0,0.0,0.0,0.0,0.0,0.0,0.0,10.7103,10.7103,10.7509,10.8219,10.8118,10.8016,10.8016,10.7509,10.6392,10.4667,10.4396,10.3585,10.2502,10.2502,10.2502,10.2502,10.2502,0.0,0.0,10.2502,10.2502,10.2502,10.2502,10.2502,10.2502,10.2502,10.2502,10.2502,10.2502,10.2502,10.2502,10.2705,10.2603,10.2502,10.2502,10.2502,10.2502,10.2502,10.2603,10.2705,10.2705,10.2908,10.3111,10.3686,10.4295,10.4701,10.487,10.4904,10.5174,10.5885,10.602,10.6223,10.6798,10.69,10.69,10.69,10.69,10.69,10.69,10.69,10.69,10.69,10.69,10.69,10.69,10.69,10.69,10.69,10.69,10.69,10.69,10.69,10.69,10.69,10.69,10.69,10.69,10.69,10.69,10.69,10.69,10.69,8.6907,8.7989,8.9072,8.9072,8.9072,8.9309,9.0121,0.0,0.0,0.0,9.0154,8.9376,8.9985,9.0222,9.0763,9.2184,9.3199,9.4992,0.0,0.0,0.0,0.0,0.0,0.0,0.0,0.0,0.0,0.0,0.0,0.0,0.0,10.7915,10.8287,10.9065,10.8388,10.8016,10.8016,10.5986,10.487,10.4667,10.3314,10.2603,10.2502,10.2502,10.2502,10.2502,10.2502,0.0,0.0,10.2502,10.2502,10.2502,10.2502,10.2502,10.2502,10.2502,10.2502,10.2502,10.2502,10.2502,10.2603,10.328,10.3009,10.2502,10.2502,10.2502,10.2502,10.2502,10.3009,10.3483,10.3483,10.399,10.4498,10.4566,10.4667,10.487,10.558,10.5716,10.5919,10.6697,10.6798,10.6798,10.69,10.69,10.69,10.69,10.69,10.69,10.69,10.69,10.69,10.69,10.69,10.69,10.69,10.69,10.69,10.69,10.69,10.69,10.69,10.69,10.69,10.69,10.69,10.69,10.69,10.69,10.69,10.69,10.69,10.69,8.7042,8.7989,8.9072,8.9072,8.941,8.9951,9.0696,0.0,9.1135,9.1271,9.0831,9.0222,8.9647,8.9545,9.0019,9.1508,9.2387,9.4011,9.7292,9.8138,9.9288,0.0,0.0,0.0,0.0,0.0,0.0,0.0,0.0,0.0,10.8016,10.761,10.7712,10.849,10.7306,10.6494,10.5986,10.5107,10.4261,10.3382,10.2806,10.2502,10.2502,10.2502,10.2502,10.2502,10.2502,0.0,0.0,10.2502,10.2502,10.2502,10.2502,10.2502,10.2502,10.2502,10.2502,10.2603,10.3009,10.3179,10.328,10.399,10.4092,10.3787,10.3787,10.3787,10.3787,10.3787,10.399,10.4261,10.4261,10.4802,10.5377,10.5377,10.5682,10.6088,10.6392,10.6494,10.6494,10.6798,10.69,10.69,10.69,10.69,10.69,10.69,10.69,10.69,10.69,10.69,10.69,10.69,10.69,10.69,10.69,10.69,10.69,10.69,10.69,10.69,10.69,10.69,10.69,10.69,10.69,10.69,10.69,10.69,10.69,10.69,10.69,10.69,8.7245,8.7989,8.8801,8.9038,8.9647,9.0391,0.0,9.1711,9.2083,9.1981,9.144,9.0729,8.9884,8.9376,8.9579,9.1068,9.1744,9.3199,9.6413,9.7326,9.8612,0.0,0.0,0.0,0.0,0.0,0.0,0.0,0.0,0.0,0.0,10.6697,10.6697,10.761,10.6223,10.5208,10.4667,10.4261,10.3517,10.2502,10.2502,10.2502,10.2502,10.2502,10.2502,10.2502,10.2502,0.0,0.0,10.2502,10.2502,10.2502,10.2502,10.2502,10.2502,10.2705,10.2806,10.2908,10.3686,10.3889,10.399,10.4769,10.5005,10.5073,10.5276,10.5005,10.4667,10.4667,10.487,10.5073,10.5276,10.5716,10.6122,10.6122,10.6494,10.69,10.69,10.69,10.69,10.69,10.69,10.69,10.69,10.69,10.69,10.69,10.69,10.69,10.69,10.69,10.69,10.69,10.69,10.69,10.69,10.69,10.69,10.69,10.69,10.69,10.69,10.69,10.69,10.69,10.69,10.69,10.69,10.69,10.69,10.69,10.69,10.69,8.7583,8.7989,8.8192,8.8903,8.9647,9.0391,0.0,9.1305,9.1744,9.3233,9.1778,9.0425,9.1135,9.0053,8.9579,9.1068,9.1305,9.2624,9.6345,9.6886,9.8003,0.0,0.0,0.0,0.0,0.0,0.0,0.0,0.0,0.0,0.0,10.5107,10.5377,10.69,10.5479,10.4667,10.4667,10.328,10.2502,10.2502,10.2502,10.2502,10.2502,10.2502,10.2502,0.0,0.0,0.0,0.0,10.2502,10.2502,10.2502,10.2502,10.2502,10.2603,10.3314,10.3585,10.3686,10.4396,10.4667,10.4769,10.5513,10.5817,10.5919,10.6697,10.5885,10.4667,10.4667,10.5208,10.5986,10.6697,10.69,10.69,10.69,10.69,10.69,10.69,10.69,10.69,10.69,10.69,10.69,10.69,10.69,10.69,10.69,10.69,10.69,10.69,10.69,10.69,10.69,10.69,10.69,10.69,10.69,10.69,10.69,10.69,10.69,10.69,10.69,10.69,10.69,10.69,10.69,10.69,10.69,10.69,10.69,10.69,10.69,8.7854,8.8734,8.9579,8.9782,9.0797,9.1778,9.2015,9.2489,9.2827,9.2793,9.2218,9.1643,9.1338,9.0493,9.0324,9.1812,9.1643,9.2421,9.5669,9.6142,0.0,0.0,0.0,0.0,0.0,0.0,0.0,0.0,0.0,0.0,0.0,10.3889,10.3889,10.531,10.399,10.3212,10.3212,10.2705,10.2502,10.2502,10.2502,10.2502,10.2502,10.2502,10.2502,0.0,0.0,10.2502,10.2502,10.2502,10.2502,10.2603,10.3077,10.328,10.3314,10.4092,10.4363,10.4464,10.5208,10.5479,10.558,10.6291,10.6595,10.6595,10.6798,10.6595,10.6189,10.6189,10.6392,10.6595,10.6798,10.69,10.69,10.69,10.69,10.69,10.69,10.69,10.69,10.69,10.69,10.69,10.69,10.69,10.69,10.69,10.69,10.69,10.69,10.69,10.69,10.69,10.69,10.69,10.69,10.69,10.69,10.69,10.69,10.69,10.69,10.69,10.69,10.69,10.69,10.69,10.69,10.69,10.69,10.69,10.69,10.69,8.7922,8.8666,8.9512,9.0087,9.1102,9.2083,9.2353,9.303,9.3436,9.2962,9.2624,9.2286,9.1812,9.1102,9.1,9.2218,9.2015,9.2759,9.577,0.0,0.0,0.0,0.0,0.0,0.0,0.0,0.0,0.0,0.0,0.0,0.0,10.3009,10.2908,10.3787,10.3009,10.2502,10.2502,10.2502,10.2502,10.2502,10.2502,10.2502,10.2502,10.2502,10.2502,0.0,0.0,10.2502,0.0,10.2502,10.2705,10.2976,10.3415,10.3787,10.4092,10.4802,10.5107,10.5208,10.5986,10.6223,10.6291,10.6798,10.69,10.69,10.69,10.69,10.69,10.69,10.69,10.69,10.69,10.69,10.69,10.69,10.69,10.69,10.69,10.69,10.69,10.69,10.69,10.69,10.69,10.69,10.69,10.69,10.69,10.69,10.69,10.69,10.69,10.69,10.69,10.69,10.69,10.69,10.69,10.69,10.69,10.69,10.69,10.69,10.69,10.69,10.69,10.69,10.69,10.69,10.69,10.69,10.69,10.69,0.0,8.8023,8.8497,8.9918,9.0831,9.1575,9.2353,9.3064,0.0,9.3571,9.2996,9.2489,9.2421,9.1846,9.1609,9.2319,9.2455,9.3537,9.648,9.6379,0.0,0.0,0.0,0.0,0.0,0.0,0.0,0.0,0.0,0.0,0.0,10.2502,10.2502,10.2502,10.2502,10.2502,10.2502,10.2502,10.2502,10.2502,10.2502,10.2502,10.2502,10.2502,10.2502,0.0,10.2502,10.2502,10.2603,10.2603,10.3009,10.3686,10.372,10.4193,10.487,10.5614,10.5885,10.5986,10.6697,10.69,10.69,10.69,10.69,10.69,10.69,10.69,10.69,10.69,10.69,10.69,10.69,10.69,10.69,10.69,10.69,10.69,10.69,10.69,10.69,10.69,10.69,10.69,10.69,10.69,10.69,10.69,10.69,10.69,10.69,10.69,10.69,10.69,10.69,10.69,10.69,10.69,10.69,10.69,10.69,10.69,10.69,10.69,10.69,10.69,10.69,10.69,10.69,10.69,10.69,10.69,10.69,10.69,8.6974,0.0,8.9918,9.0797,9.1609,9.2353,0.0,9.3436,9.3571,9.3571,9.3436,9.3131,9.2522,9.2286,9.2218,9.2387,9.2928,9.4146,9.6548,9.7698,0.0,0.0,0.0,0.0,0.0,0.0,0.0,0.0,0.0,0.0,0.0,10.2502,10.2502,10.2502,10.2502,10.2502,10.2502,10.2502,10.2502,10.2502,10.2502,10.2502,10.2502,10.2502,10.2502,0.0,10.2502,10.2806,10.3314,10.3314,10.3787,10.4498,10.5073,10.5411,10.5614,10.6392,10.6595,10.6697,10.6798,10.69,10.69,10.69,10.69,10.69,10.69,10.69,10.69,10.69,10.69,10.69,10.69,10.69,10.69,10.69,10.69,10.69,10.69,10.69,10.69,10.69,10.69,10.69,10.69,10.69,10.69,10.69,10.69,10.69,10.69,10.69,10.69,10.69,10.69,10.69,10.69,10.69,10.69,10.69,10.69,10.69,10.69,10.69,10.69,10.69,10.69,10.69,10.69,10.69,10.69,10.69,10.69,10.69,8.711,8.8531,8.9951,9.1034,9.1338,9.1778,9.3233,9.33,9.3165,9.3503,9.33,9.3131,9.3436,9.2895,9.2658,9.3368,9.3537,9.4349,9.6582,9.9356,10.169,10.2976,0.0,0.0,0.0,0.0,0.0,0.0,0.0,0.0,0.0,10.2502,10.2502,10.2502,10.2502,10.2502,10.2502,10.2502,10.2502,10.2502,10.2502,10.2502,10.2502,10.2502,10.2502,0.0,10.2908,10.3212,10.3585,10.399,10.4498,10.5208,10.5614,10.602,10.6392,10.6798,10.69,10.69,10.69,10.69,10.69,10.69,10.69,10.69,10.69,10.69,10.69,10.69,10.69,10.69,10.69,10.69,10.69,10.69,10.69,10.69,10.69,10.69,10.69,10.69,10.69,10.69,10.69,10.69,10.69,10.69,10.69,10.69,10.69,10.69,10.69,10.69,10.69,10.69,10.69,10.69,10.69,10.69,10.69,10.69,10.69,10.69,10.69,10.69,10.69,10.69,10.69,10.69,10.69,10.69,10.69,10.69,8.7482,8.8531,8.9579,9.0966,9.0831,9.0932,9.3098,9.3064,9.2759,9.33,9.2962,9.2928,9.3977,9.3402,9.3199,9.4485,9.4552,9.5093,9.6954,10.0506,10.2671,10.1995,0.0,0.0,0.0,0.0,0.0,0.0,0.0,0.0,0.0,10.2502,10.2502,10.2502,10.2502,10.2502,10.2502,10.2502,10.2502,10.2502,10.2502,10.2502,10.2502,10.2502,10.2603,10.2705,0.0,0.0,10.399,10.4599,10.531,10.5986,10.5986,10.6325,10.69,10.69,10.69,10.69,10.69,10.69,10.69,10.69,10.69,10.69,10.69,10.69,10.69,10.69,10.69,10.69,10.69,10.69,10.69,10.69,10.69,10.69,10.69,10.69,10.69,10.69,10.69,10.69,10.69,10.69,10.69,10.69,10.69,10.69,10.69,10.69,10.69,10.69,10.69,10.69,10.69,10.69,10.69,10.69,10.69,10.69,10.69,10.69,10.69,10.69,10.69,10.69,10.69,10.69,10.69,10.69,10.69,10.69,8.7008,8.8531,9.0256,9.1102,9.1203,9.1541,9.3199,9.347,9.3267,9.2725,9.303,9.3064,9.2015,9.3233,9.4417,9.4687,9.6683,9.8375,0.0,0.0,0.0,0.0,0.0,0.0,0.0,0.0,0.0,0.0,0.0,0.0,0.0,10.2502,10.2502,10.2502,10.2502,10.2502,10.2502,10.2502,10.2502,10.2502,10.2502,10.2502,10.2502,10.2502,10.2806,10.3415,0.0,10.4295,10.5513,10.5614,10.6088,10.6697,10.6697,10.6798,10.69,10.69,10.69,10.69,10.69,10.69,10.69,10.69,10.69,10.69,10.69,10.69,10.69,10.69,10.69,10.69,10.69,10.69,10.69,10.69,10.69,10.69,10.69,10.69,10.69,10.69,10.69,10.69,10.69,10.69,10.69,10.69,10.69,10.69,10.69,10.69,10.69,10.69,10.69,10.69,10.69,10.69,10.69,10.69,10.69,10.69,10.69,10.69,10.69,10.69,10.69,10.69,10.69,10.69,10.69,10.69,10.69,10.69,8.6805,8.8226,8.9884,9.1,9.1305,9.1711,9.3233,9.3267,9.3098,9.3571,9.3605,9.3503,9.3199,9.3673,9.4112,9.4112,0.0,0.0,0.0,0.0,0.0,0.0,0.0,0.0,0.0,0.0,0.0,0.0,0.0,0.0,0.0,0.0,10.2502,10.2502,10.2502,10.2502,10.2502,10.2502,10.2502,10.2502,10.2502,10.2502,10.2502,10.2908,10.328,10.3618,0.0,10.5208,10.5817,10.6223,10.6595,10.69,10.69,10.69,10.69,10.69,10.69,10.69,10.69,10.69,10.69,10.69,10.69,10.69,10.69,10.69,10.69,10.69,10.69,10.69,10.69,10.69,10.69,10.69,10.69,10.69,10.69,10.69,10.69,10.69,10.69,10.69,10.69,10.69,10.69,10.69,10.69,10.69,10.69,10.69,10.69,10.69,10.69,10.69,10.69,10.69,10.69,10.69,10.69,10.69,10.69,10.69,10.69,10.69,10.69,10.69,10.69,10.69,10.69,10.69,10.69,10.69,8.6771,8.8226,8.9884,9.1,9.1575,9.215,9.33,9.3402,9.3436,9.4282,9.4248,9.4282,9.4857,9.4789,0.0,9.4146,0.0,0.0,0.0,0.0,0.0,0.0,0.0,0.0,0.0,0.0,0.0,0.0,0.0,0.0,0.0,0.0,10.2502,10.2502,10.2502,10.2502,10.2502,10.2502,10.2502,10.2502,10.2705,10.2806,10.2806,10.3517,10.399,10.4193,10.531,10.5919,10.6088,10.6697,10.69,10.69,10.69,10.69,10.69,10.69,10.69,10.69,10.69,10.69,10.69,10.69,10.69,10.69,10.69,10.69,10.69,10.69,10.69,10.69,10.69,10.69,10.69,10.69,10.69,10.69,10.69,10.69,10.69,10.69,10.69,10.69,10.69,10.69,10.69,10.69,10.69,10.69,10.69,10.69,10.69,10.69,10.69,10.69,10.69,10.69,10.69,10.69,10.69,10.69,10.69,10.69,10.69,10.69,10.69,10.69,10.69,10.69,10.69,10.69,10.69,10.69,8.6907,8.897,9.1169,9.1271,9.2353,9.3436,9.3571,9.4586,9.5195,9.3909,9.4721,9.5669,9.5702,9.6785,0.0,0.0,0.0,0.0,0.0,0.0,0.0,0.0,0.0,0.0,0.0,0.0,0.0,0.0,0.0,0.0,0.0,10.2502,10.2502,10.2502,10.2502,10.2502,10.2502,10.2502,10.2502,10.2502,10.3212,10.3517,10.3517,10.4295,10.4971,10.5614,10.5783,10.6189,10.6798,10.69,10.69,10.69,10.69,10.69,10.69,10.69,10.69,10.69,10.69,10.69,10.69,10.69,10.69,10.69,10.69,10.69,10.69,10.69,10.69,10.69,10.69,10.69,10.69,10.69,10.69,10.69,10.69,10.69,10.69,10.69,10.69,10.69,10.69,10.69,10.69,10.69,10.69,10.69,10.69,10.69,10.69,10.69,10.69,10.69,10.69,10.69,10.69,10.69,10.69,10.69,10.69,10.69,10.69,10.69,10.69,10.69,10.69,10.69,10.69,10.69,10.69,10.69,8.8023,9.0087,9.2116,9.259,9.418,9.5263,9.3909,9.4383,9.5364,9.6176,9.6413,9.6616,9.7089,0.0,0.0,0.0,0.0,0.0,0.0,0.0,0.0,0.0,0.0,0.0,0.0,0.0,0.0,0.0,0.0,0.0,0.0,10.2502,10.2502,10.2502,10.2502,10.2502,10.2502,10.2976,10.3179,10.3179,10.3483,10.3787,10.4295,10.5005,10.5513,10.5817,10.6291,10.6595,10.69,10.69,10.69,10.69,10.69,10.69,10.69,10.69,10.69,10.69,10.69,10.69,10.69,10.69,10.69,10.69,10.69,10.69,10.69,10.69,10.69,10.69,10.69,10.69,10.69,10.69,10.69,10.69,10.69,10.69,10.69,10.69,10.69,10.69,10.69,10.69,10.69,10.69,10.69,10.69,10.69,10.69,10.69,10.69,10.69,10.69,10.69,10.69,10.69,10.69,10.69,10.69,10.69,10.69,10.69,10.69,10.69,10.69,10.69,10.69,10.69,10.69,10.69,10.69,8.8801,9.1068,9.3267,9.3808,9.5432,9.6413,9.4687,9.506,9.6108,9.7394,9.8003,9.8375,9.8645,9.7292,0.0,0.0,0.0,0.0,0.0,0.0,0.0,0.0,0.0,0.0,0.0,0.0,0.0,0.0,0.0,0.0,0.0,10.2502,10.2502,10.2502,10.2502,10.2603,10.2806,10.3314,10.3821,10.4295,10.4295,10.4566,10.5073,10.5817,10.6122,10.6189,10.6697,10.69,10.69,10.69,10.69,10.69,10.69,10.69,10.69,10.69,10.69,10.69,10.69,10.69,10.69,10.69,10.69,10.69,10.69,10.69,10.69,10.69,10.69,10.69,10.69,10.69,10.69,10.69,10.69,10.69,10.69,10.69,10.69,10.69,10.69,10.69,10.69,10.69,10.69,10.69,10.69,10.69,10.69,10.69,10.69,10.69,10.69,10.69,10.69,10.69,10.69,10.69,10.69,10.69,10.69,10.69,10.69,10.69,10.69,10.69,10.69,10.69,10.69,10.69,10.69,10.69,8.9106,9.1846,9.4721,9.4721,9.5804,9.6717,9.5973,9.6954,9.7834,9.7089,9.9322,10.1183,10.0337,9.9593,0.0,0.0,0.0,0.0,0.0,0.0,0.0,0.0,0.0,0.0,0.0,0.0,0.0,0.0,0.0,0.0,0.0,10.2502,10.2502,10.2502,10.2502,10.2908,10.3585,10.3585,10.4295,10.5817,10.5817,10.5817,10.5817,10.6595,10.69,10.69,10.69,10.69,10.69,10.69,10.69,10.69,10.69,10.69,10.69,10.69,10.69,10.69,10.69,10.69,10.69,10.69,10.69,10.69,10.69,10.69,10.69,10.69,10.69,10.69,10.69,10.69,10.69,10.69,10.69,10.69,10.69,10.69,10.69,10.69,10.69,10.69,10.69,10.69,10.69,10.69,10.69,10.69,10.69,10.69,10.69,10.69,10.69,10.69,10.69,10.69,10.69,10.69,10.69,10.69,10.69,10.69,10.69,10.69,10.69,10.69,10.69,10.69,10.69,10.69,10.69,10.69,9.0865,9.303,9.4958,9.5973,9.6954,9.7631,9.7394,9.851,9.966,9.9965,10.1589,10.2198,9.9863,9.9254,0.0,0.0,0.0,0.0,0.0,0.0,0.0,0.0,0.0,0.0,0.0,0.0,0.0,0.0,0.0,0.0,0.0,10.2502,10.2502,10.2502,10.2502,10.2908,10.3585,10.4092,10.487,10.5817,10.6291,10.6595,10.6595,10.6798,10.69,10.69,10.69,10.69,10.69,10.69,10.69,10.69,10.69,10.69,10.69,10.69,10.69,10.69,10.69,10.69,10.69,10.69,10.69,10.69,10.69,10.69,10.69,10.69,10.69,10.69,10.69,10.69,10.69,10.69,10.69,10.69,10.69,10.69,10.69,10.69,10.69,10.69,10.69,10.69,10.69,10.69,10.69,10.69,10.69,10.69,10.69,10.69,10.69,10.69,10.69,10.69,10.69,10.69,10.69,10.69,10.69,10.69,10.69,10.69,10.69,10.69,10.69,10.69,10.69,10.69,10.69,10.69,9.2692,9.4654,9.6311,9.7461,9.8104,9.8612,9.9221,0.0,0.0,0.0,10.2096,10.2603,10.0811,0.0,0.0,0.0,0.0,0.0,0.0,0.0,0.0,0.0,0.0,0.0,0.0,0.0,0.0,0.0,0.0,0.0,0.0,10.2502,10.2502,10.2502,10.2806,10.328,10.399,10.4769,10.5479,10.6223,10.6697,10.69,10.69,10.69,10.69,10.69,10.69,10.69,10.69,10.69,10.69,10.69,10.69,10.69,10.69,10.69,10.69,10.69,10.69,10.69,10.69,10.69,10.69,10.69,10.69,10.69,10.69,10.69,10.69,10.69,10.69,10.69,10.69,10.69,10.69,10.69,10.69,10.69,10.69,10.69,10.69,10.69,10.69,10.69,10.69,10.69,10.69,10.69,10.69,10.69,10.69,10.69,10.69,10.69,10.69,10.69,10.69,10.69,10.69,10.69,10.69,10.69,10.69,10.69,10.69,10.69,10.69,10.69,10.69,10.69,10.69,10.69,9.4248,9.6345,9.8172,9.8916,9.9153,0.0,0.0,0.0,0.0,0.0,0.0,10.2502,10.2401,0.0,0.0,0.0,0.0,0.0,0.0,0.0,0.0,0.0,0.0,0.0,0.0,0.0,0.0,0.0,0.0,0.0,0.0,10.2502,10.2502,10.2603,10.328,10.399,10.4769,10.5479,10.6189,10.69,10.69,10.69,10.69,10.69,10.69,10.69,10.69,10.69,10.69,10.69,10.69,10.69,10.69,10.69,10.69,10.69,10.69,10.69,10.69,10.69,10.69,10.69,10.69,10.69,10.69,10.69,10.69,10.69,10.69,10.69,10.69,10.69,10.69,10.69,10.69,10.69,10.69,10.69,10.69,10.69,10.69,10.69,10.69,10.69,10.69,10.69,10.69,10.69,10.69,10.69,10.69,10.69,10.69,10.69,10.69,10.69,10.69,10.69,10.69,10.69,10.69,10.69,10.69,10.69,10.69,10.69,10.69,10.69,10.69,10.69,10.69,10.69,9.3977,9.6345,9.8172,0.0,9.9559,9.9762,0.0,0.0,0.0,0.0,0.0,0.0,0.0,0.0,0.0,0.0,0.0,0.0,0.0,0.0,0.0,0.0,0.0,0.0,0.0,0.0,0.0,0.0,0.0,0.0,10.2502,10.2502,10.2806,10.3314,10.3483,10.4193,10.558,10.5716,10.6189,10.69,10.69,10.69,10.69,10.69,10.69,10.69,10.69,10.69,10.69,10.69,10.69,10.69,10.69,10.69,10.69,10.69,10.69,10.69,10.69,10.69,10.69,10.69,10.69,10.69,10.69,10.69,10.69,10.69,10.69,10.69,10.69,10.69,10.69,10.69,10.69,10.69,10.69,10.69,10.69,10.69,10.69,10.69,10.69,10.69,10.69,10.69,10.69,10.69,10.69,10.69,10.69,10.69,10.69,10.69,10.69,10.69,10.69,10.69,10.69,10.69,10.69,10.69,10.69,10.69,10.69,10.69,10.69,10.69,10.69,10.69,10.69,10.69,9.4417,9.6311,0.0,9.8375,0.0,9.939,9.8273,10.01,0.0,0.0,0.0,0.0,0.0,0.0,0.0,0.0,0.0,0.0,0.0,0.0,0.0,0.0,0.0,0.0,0.0,0.0,0.0,0.0,0.0,10.1995,10.1995,10.2299,10.2806,10.3585,10.3889,10.4667,10.5817,10.6189,10.6494,10.69,10.69,10.69,10.69,10.69,10.69,10.69,10.69,10.69,10.69,10.69,10.69,10.69,10.69,10.69,10.69,10.69,10.69,10.69,10.69,10.69,10.69,10.69,10.69,10.69,10.69,10.69,10.69,10.69,10.69,10.69,10.69,10.69,10.69,10.69,10.69,10.69,10.69,10.69,10.69,10.69,10.69,10.69,10.69,10.69,10.69,10.69,10.69,10.69,10.69,10.69,10.69,10.69,10.69,10.69,10.69,10.69,10.69,10.69,10.69,10.69,10.69,10.69,10.69,10.69,10.69,10.69,10.69,10.69,10.69,10.69,10.7306,10.7407,9.4552,9.6244,9.7292,9.8172,9.8848,0.0,9.8206,9.9863,10.1284,0.0,0.0,0.0,0.0,0.0,0.0,0.0,0.0,0.0,0.0,0.0,0.0,0.0,0.0,0.0,0.0,0.0,0.0,0.0,0.0,10.1386,10.1386,10.2198,10.3009,10.3787,10.4498,10.5208,10.5986,10.6595,10.69,10.69,10.69,10.69,10.69,10.69,10.69,10.69,10.69,10.69,10.69,10.69,10.69,10.69,10.69,10.69,10.69,10.69,10.69,10.69,10.69,10.69,10.69,10.69,10.69,10.69,10.69,10.69,10.69,10.69,10.69,10.69,10.69,10.69,10.69,10.69,10.69,10.69,10.69,10.69,10.69,10.69,10.69,10.69,10.69,10.69,10.69,10.69,10.69,10.69,10.69,10.69,10.69,10.69,10.69,10.69,10.69,10.69,10.69,10.69,10.69,10.6967,10.7103,10.7103,10.717,10.7272,10.717,10.717,10.7272,10.7272,10.7272,10.7306,10.7915,10.8219,9.2895,9.5838,9.8172,9.9593,9.9999,9.9694,0.0,0.0,10.1927,0.0,0.0,0.0,0.0,0.0,0.0,0.0,0.0,0.0,0.0,0.0,0.0,0.0,0.0,0.0,0.0,0.0,0.0,0.0,10.0506,10.1386,10.1386,10.2705,10.3787,10.4498,10.5276,10.5986,10.6697,10.6866,10.69,10.69,10.69,10.69,10.69,10.69,10.69,10.69,10.69,10.69,10.69,10.69,10.69,10.69,10.69,10.69,10.69,10.69,10.69,10.69,10.69,10.69,10.69,10.69,10.69,10.69,10.69,10.69,10.69,10.69,10.69,10.69,10.69,10.69,10.69,10.69,10.69,10.69,10.69,10.69,10.69,10.69,10.69,10.69,10.69,10.69,10.69,10.69,10.69,10.69,10.69,10.69,10.69,10.69,10.69,10.69,10.69,10.69,10.69,10.69,10.69,10.7204,10.7813,10.7915,10.8185,10.8862,10.8219,10.8219,10.8896,10.8896,10.8896,10.8896,10.8997,10.8997,9.3571,9.6074,9.7732,9.9221,9.9897,9.9829,9.8341,9.9999,10.169,0.0,0.0,0.0,0.0,0.0,0.0,0.0,0.0,0.0,0.0,0.0,0.0,0.0,0.0,0.0,0.0,0.0,0.0,0.0,10.01,10.0912,10.1386,10.2806,10.3889,10.4667,10.5411,10.6189,10.69,10.69,10.69,10.69,10.69,10.69,10.69,10.69,10.69,10.69,10.69,10.69,10.69,10.69,10.69,10.69,10.69,10.69,10.69,10.69,10.69,10.69,10.69,10.69,10.69,10.69,10.69,10.69,10.69,10.69,10.69,10.69,10.69,10.69,10.69,10.69,10.69,10.69,10.69,10.69,10.69,10.69,10.69,10.69,10.69,10.69,10.69,10.69,10.69,10.69,10.69,10.69,10.69,10.69,10.69,10.69,10.69,10.69,10.69,10.69,10.7103,10.7509,10.7509,10.7881,10.8625,10.8693,10.8997,10.9809,10.9099,10.8794,10.9166,10.9166,10.9166,10.92,10.9606,10.9809,9.3774,9.5601,9.6717,9.8409,9.9525,9.9863,9.8578,0.0,0.0,0.0,0.0,0.0,0.0,0.0,0.0,0.0,0.0,0.0,0.0,0.0,0.0,0.0,0.0,0.0,0.0,0.0,0.0,0.0,9.9965,10.0777,10.1386,10.2806,10.3889,10.4667,10.5411,10.6189,10.69,10.69,10.69,10.69,10.69,10.69,10.69,10.69,10.69,10.69,10.69,10.69,10.69,10.69,10.69,10.69,10.69,10.69,10.69,10.69,10.69,10.69,10.69,10.69,10.69,10.69,10.69,10.69,10.69,10.69,10.69,10.69,10.69,10.69,10.69,10.69,10.6866,10.6697,10.6798,10.69,10.69,10.69,10.69,10.69,10.69,10.69,10.69,10.69,10.69,10.69,10.69,10.69,10.69,10.69,10.69,10.69,10.69,10.69,10.69,10.7103,10.7407,10.8016,10.8219,10.8693,10.9403,10.9471,10.9809,11.0587,11.0012,10.9775,10.9775,10.9775,10.9775,10.9775,11.0316,11.0587,9.215,9.3673,9.533,9.7529,9.9153,9.9999,9.9221,0.0,0.0,0.0,0.0,0.0,0.0,0.0,0.0,0.0,0.0,0.0,0.0,0.0,0.0,0.0,0.0,0.0,0.0,0.0,0.0,0.0,10.0472,10.1386,10.1386,10.2806,10.3889,10.4667,10.5411,10.6189,10.69,10.69,10.69,10.69,10.69,10.69,10.69,10.69,10.69,10.69,10.69,10.69,10.69,10.69,10.69,10.69,10.69,10.69,10.69,10.69,10.69,10.69,10.69,10.69,10.69,10.69,10.69,10.69,10.69,10.69,10.69,10.69,10.69,10.69,10.69,10.69,10.6697,10.602,10.6392,10.69,10.69,10.69,10.69,10.69,10.69,10.69,10.69,10.69,10.69,10.69,10.69,10.69,10.69,10.69,10.69,10.69,10.69,10.69,10.69,10.7509,10.8016,10.8016,10.8693,10.9471,11.0215,11.0215,11.0587,11.1298,11.1298,11.1298,11.1298,11.1298,11.1298,11.1298,11.1298,11.1298,9.2624,9.3571,9.462,9.7326,9.8409,9.8848,9.9051,10.01,0.0,0.0,0.0,0.0,0.0,0.0,0.0,0.0,0.0,0.0,0.0,0.0,0.0,0.0,0.0,0.0,0.0,0.0,0.0,0.0,10.0506,10.1386,10.1386,10.3179,10.4396,10.4667,10.5885,10.6595,10.69,10.69,10.69,10.69,10.69,10.69,10.69,10.69,10.69,10.69,10.69,10.69,10.69,10.69,10.69,10.69,10.69,10.69,10.69,10.69,10.69,10.69,10.69,10.69,10.69,10.69,10.69,10.69,10.69,10.69,10.6798,10.6291,10.6189,10.6189,10.6189,10.5817,10.5513,10.5783,10.602,10.6291,10.6798,10.69,10.69,10.69,10.69,10.69,10.69,10.69,10.69,10.69,10.69,10.69,10.69,10.69,10.69,10.69,10.7306,10.761,10.761,10.8321,10.8997,10.9437,10.9708,11.0215,11.0993,11.0993,11.1095,11.1399,11.1399,11.1399,11.1399,11.1399,11.1399,11.1399,11.1399,11.1399,9.2252,9.2996,9.3774,9.6277,9.7461,9.8206,9.8916,0.0,0.0,0.0,0.0,0.0,0.0,0.0,0.0,0.0,0.0,0.0,0.0,0.0,0.0,0.0,0.0,0.0,0.0,0.0,0.0,9.9525,10.0878,0.0,10.1792,10.3382,10.4566,10.5073,10.6291,10.69,10.69,10.69,10.69,10.69,10.69,10.69,10.69,10.69,10.69,10.69,10.69,10.69,10.69,10.69,10.69,10.69,10.69,10.69,10.69,10.69,10.69,10.69,10.69,10.69,10.69,10.69,10.69,10.69,10.69,10.6697,10.6392,10.5919,10.5614,10.5411,10.5411,10.487,10.4566,10.558,10.5614,10.5682,10.6697,10.69,10.69,10.69,10.69,10.69,10.69,10.69,10.69,10.69,10.69,10.69,10.69,10.69,10.7001,10.7204,10.7712,10.8118,10.8388,10.9099,10.9775,11.0283,11.0519,11.0892,11.1399,11.1399,11.1399,11.1399,11.1399,11.1399,11.1399,11.1399,11.1399,11.1399,11.1399,11.1399,0.0,0.0,0.0,9.4349,9.6345,9.8138,9.8916,0.0,0.0,0.0,0.0,0.0,0.0,0.0,0.0,0.0,0.0,0.0,0.0,0.0,0.0,0.0,0.0,0.0,0.0,10.0472,10.1014,10.0202,10.1589,10.2401,10.2401,10.3179,10.4295,10.5716,10.6494,10.69,10.69,10.69,10.69,10.69,10.69,10.69,10.69,10.69,10.69,10.69,10.69,10.69,10.69,10.69,10.69,10.69,10.69,10.69,10.69,10.69,10.69,10.69,10.69,10.69,10.69,10.69,10.69,10.69,10.69,10.6392,10.5817,10.5716,10.5208,10.4667,10.4599,10.4092,10.399,10.5411,10.5208,10.5073,10.6494,10.69,10.69,10.69,10.69,10.69,10.69,10.69,10.69,10.69,10.69,10.69,10.69,10.69,10.7204,10.7915,10.8016,10.8422,10.9166,10.9911,11.0316,11.0316,11.0993,11.1399,11.1399,11.1399,11.1399,11.1399,11.1399,11.1399,11.1399,11.1399,11.1399,11.1399,11.1399,11.1399,9.0899,0.0,0.0,0.0,0.0,0.0,0.0,0.0,0.0,0.0,0.0,0.0,0.0,0.0,0.0,0.0,0.0,0.0,0.0,0.0,0.0,0.0,0.0,0.0,9.9119,9.9965,9.9999,0.0,9.9999,10.0811,10.0811,10.2603,10.399,10.4971,10.5716,10.6392,10.69,10.69,10.69,10.69,10.69,10.69,10.69,10.69,10.69,10.69,10.69,10.69,10.69,10.69,10.69,10.69,10.69,10.69,10.69,10.69,10.69,10.69,10.69,10.69,10.69,10.69,10.69,10.6798,10.6291,10.5986,10.5614,10.4498,10.4092,10.3787,10.3212,10.3382,10.3787,10.4769,10.4396,10.4295,10.5783,10.6122,10.6291,10.6798,10.6494,10.6291,10.6798,10.69,10.69,10.69,10.69,10.69,10.69,10.7407,10.7813,10.8016,10.8997,10.9809,11.0012,11.0689,11.1095,11.1095,11.1298,11.1399,11.1399,11.1399,11.1399,11.1399,11.1399,11.1399,11.1399,11.1399,11.1399,11.1399,11.1399,11.1399,9.144,9.1541,9.1947,9.4654,0.0,0.0,0.0,0.0,0.0,0.0,0.0,0.0,0.0,0.0,0.0,0.0,0.0,0.0,0.0,0.0,0.0,0.0,0.0,9.9085,9.9085,9.9762,9.9728,9.8544,9.9559,10.0337,10.0709,10.2299,10.3483,10.4193,10.5276,10.602,10.6392,10.6697,10.69,10.69,10.69,10.69,10.69,10.69,10.69,10.69,10.69,10.69,10.69,10.69,10.69,10.69,10.69,10.69,10.69,10.69,10.69,10.69,10.69,10.6697,10.6494,10.6798,10.6494,10.5986,10.5817,10.5411,10.4701,10.3821,10.3382,10.3009,10.2603,10.2806,10.3314,10.4092,10.3889,10.3889,10.5107,10.5107,10.5208,10.6223,10.6325,10.6291,10.6392,10.6392,10.6392,10.6392,10.6392,10.6697,10.7306,10.7712,10.8219,10.8896,10.9809,11.0418,11.0722,11.1196,11.1399,11.1399,11.1399,11.1399,11.1399,11.1399,11.1399,11.1399,11.1399,11.1399,11.1399,11.1399,11.1399,11.1399,11.1399,11.1399,9.2083,9.1744,9.1744,9.4112,9.4654,0.0,0.0,0.0,0.0,0.0,0.0,0.0,0.0,0.0,0.0,0.0,0.0,0.0,0.0,0.0,0.0,0.0,9.8815,9.8848,9.8848,9.9525,9.9694,9.9018,9.966,10.0405,10.098,10.1893,10.2705,10.3314,10.4904,10.5716,10.5817,10.6494,10.69,10.69,10.69,10.69,10.69,10.69,10.69,10.69,10.69,10.69,10.69,10.69,10.69,10.69,10.69,10.69,10.69,10.69,10.69,10.69,10.69,10.6392,10.5919,10.6595,10.5783,10.4769,10.5377,10.4599,10.3585,10.3483,10.3009,10.2502,10.2502,10.2502,10.2705,10.3415,10.3517,10.3686,10.4396,10.4092,10.399,10.531,10.6088,10.6392,10.5783,10.5682,10.5682,10.5682,10.5817,10.6392,10.7712,10.8118,10.8794,11.0181,11.0384,11.0689,11.1298,11.1399,11.1399,11.1399,11.1399,11.1399,11.1399,11.1399,11.1399,11.1399,11.1399,11.1399,11.1399,11.1399,11.1399,11.1399,11.1399,11.1399,9.1305,9.0966,9.1102,9.3977,0.0,0.0,0.0,0.0,0.0,0.0,0.0,0.0,0.0,0.0,0.0,0.0,0.0,0.0,0.0,0.0,9.5635,9.6345,9.6954,9.7326,9.7326,9.8003,9.8375,9.824,9.8916,9.9119,9.8679,10.0506,10.169,10.1792,10.3787,10.5208,10.5817,10.6494,10.69,10.69,10.69,10.69,10.69,10.69,10.69,10.69,10.69,10.69,10.69,10.69,10.69,10.69,10.69,10.69,10.69,10.69,10.69,10.69,10.69,10.6392,10.5817,10.5986,10.5411,10.4599,10.4193,10.3787,10.3483,10.2908,10.2603,10.2502,10.2502,10.2502,10.2705,10.3415,10.3111,10.2908,10.3686,10.3686,10.3686,10.399,10.4092,10.4396,10.4802,10.4904,10.4904,10.4904,10.5885,10.6798,10.7103,10.8693,11.0012,11.0283,11.0824,11.1196,11.1399,11.1399,11.1399,11.1399,11.1399,11.1399,11.1399,11.1399,11.1399,11.1399,11.1399,11.1399,11.1399,11.1399,11.1399,11.1399,11.1399,11.1399,9.2793,9.2184,9.1846,9.4146,0.0,0.0,0.0,0.0,0.0,0.0,0.0,0.0,0.0,0.0,0.0,0.0,0.0,0.0,9.6244,9.5093,9.4417,9.5161,9.5567,9.6074,9.6819,9.7225,9.7597,9.7969,9.8341,9.8375,9.8037,9.9424,10.0405,10.0811,10.2976,10.4498,10.5208,10.6291,10.69,10.69,10.69,10.69,10.69,10.69,10.69,10.69,10.69,10.69,10.69,10.69,10.69,10.69,10.69,10.69,10.69,10.69,10.69,10.69,10.69,10.6189,10.531,10.5682,10.4802,10.3585,10.3585,10.3314,10.3009,10.2603,10.2502,10.2502,10.2502,10.2502,10.2603,10.2976,10.2806,10.2603,10.3009,10.3077,10.3077,10.3077,10.3077,10.328,10.399,10.416,10.416,10.416,10.5073,10.6088,10.6798,10.8219,10.9437,11.0215,11.0283,11.0486,11.079,11.0892,11.0892,11.0892,11.1196,11.1399,11.1399,11.1399,11.1399,11.1399,11.1399,11.1399,11.1399,11.1399,11.1399,11.1399,11.1399,11.1399,0.0,0.0,0.0,0.0,0.0,9.347,0.0,0.0,0.0,0.0,0.0,0.0,0.0,0.0,0.0,0.0,0.0,0.0,0.0,9.5635,0.0,9.5635,9.5263,9.5499,9.6954,9.736,9.7664,9.7969,9.8409,9.8476,9.8037,9.8713,9.9457,10.0202,10.2299,10.3787,10.4667,10.5986,10.6798,10.69,10.69,10.69,10.69,10.69,10.69,10.69,10.69,10.69,10.69,10.69,10.69,10.69,10.69,10.69,10.69,10.69,10.69,10.69,10.6697,10.5783,10.4769,10.5208,10.4092,10.2603,10.3212,10.3009,10.2502,10.2502,10.2502,10.2502,10.2502,10.2502,10.2502,10.2502,10.2502,10.2502,10.2502,10.2502,10.2502,10.2502,10.2502,10.2705,10.328,10.3382,10.3415,10.3585,10.4295,10.5377,10.6697,10.7712,10.8727,10.9978,10.9572,10.9403,11.0012,11.0114,11.0114,11.0114,11.0621,11.0993,11.0993,11.1095,11.1298,11.1399,11.1399,11.1399,11.1399,11.1399,11.1399,11.1399,11.1399,11.1399,0.0,0.0,0.0,0.0,9.3131,0.0,0.0,0.0,0.0,0.0,0.0,0.0,0.0,0.0,0.0,0.0,0.0,0.0,9.6108,9.6311,9.7258,9.9356,9.7258,9.6244,9.7732,9.9085,9.9322,9.8104,9.9863,10.01,9.8104,9.8713,9.9457,10.0202,10.1792,10.328,10.4667,10.5513,10.6291,10.69,10.69,10.69,10.69,10.69,10.69,10.69,10.69,10.69,10.69,10.69,10.69,10.69,10.69,10.69,10.69,10.69,10.69,10.6798,10.6189,10.5377,10.4566,10.399,10.3212,10.2502,10.2603,10.2603,10.2502,10.2502,10.2502,10.2502,10.2502,10.2502,10.2502,10.2502,10.2502,10.2502,10.2502,10.2502,10.2502,10.2502,10.2502,10.2502,10.2603,10.2603,10.2806,10.3483,10.4802,10.5986,10.6798,10.8185,10.9099,10.9302,10.92,10.92,10.9302,10.9302,10.9302,10.9302,10.9369,10.9403,10.9403,11.008,11.0722,11.1399,11.1399,11.1399,11.1399,11.1399,11.1399,11.1399,11.1399,11.1399,0.0,0.0,0.0,0.0,0.0,0.0,9.4958,0.0,9.4146,0.0,0.0,0.0,0.0,0.0,0.0,0.0,9.7732,0.0,0.0,0.0,9.692,0.0,0.0,0.0,9.9153,9.9863,9.9965,9.9322,10.0202,9.9931,9.8104,9.8307,9.8815,9.9559,10.1081,10.2401,10.3415,10.4599,10.5513,10.6291,10.6291,10.6494,10.69,10.69,10.69,10.69,10.69,10.69,10.69,10.69,10.69,10.69,10.69,10.69,10.69,10.69,10.69,10.6798,10.6088,10.531,10.4498,10.3314,10.2806,10.2502,10.2502,10.2502,10.2502,10.2502,10.2502,10.2502,10.2502,10.2502,10.2502,10.2502,10.2502,10.2502,10.2502,10.2502,10.2502,10.2502,10.2502,10.2502,10.2502,10.2908,10.3212,10.3585,10.4904,10.5919,10.6223,10.7204,10.7982,10.849,10.8084,10.8016,10.849,10.849,10.849,10.849,10.8896,10.9369,10.9809,11.0114,11.0621,11.1399,11.1399,11.1399,11.1399,11.1399,11.1196,11.079,11.1196,11.1399,9.4789,0.0,0.0,0.0,0.0,0.0,0.0,0.0,0.0,0.0,0.0,0.0,0.0,0.0,9.6819,9.7563,0.0,9.7969,0.0,9.7495,0.0,0.0,0.0,0.0,0.0,10.0235,10.0608,9.9965,10.0709,10.0303,9.8409,9.8104,9.8341,9.9085,10.0405,10.1487,10.2502,10.3787,10.4769,10.5513,10.5716,10.6088,10.6595,10.6798,10.69,10.69,10.69,10.69,10.69,10.69,10.69,10.69,10.69,10.69,10.69,10.69,10.6798,10.6494,10.5783,10.4904,10.3889,10.2806,10.2502,10.2502,10.2502,10.2502,10.2502,10.2502,10.2502,10.2502,10.2502,10.2502,10.2502,10.2502,10.2502,10.2502,10.2502,10.2502,10.2502,10.2502,10.2502,10.2603,10.2806,10.3212,10.3686,10.3889,10.5005,10.5885,10.6088,10.6595,10.7103,10.761,10.7204,10.7103,10.7712,10.7712,10.7712,10.7712,10.8219,10.8896,10.9606,10.9708,11.0012,11.079,11.079,11.079,11.079,11.079,11.0486,11.0012,11.079,11.1095,9.4518,9.4721,9.489,9.5601,0.0,0.0,0.0,0.0,9.3571,0.0,0.0,0.0,0.0,9.5804,9.6074,9.6819,9.7529,0.0,0.0,0.0,0.0,0.0,0.0,0.0,0.0,10.0303,10.1521,0.0,10.1792,10.2198,9.9221,9.8375,9.8341,9.9085,9.9863,10.1014,10.2502,10.328,10.399,10.4701,10.5479,10.5817,10.5885,10.6595,10.69,10.69,10.69,10.69,10.69,10.69,10.69,10.69,10.69,10.69,10.69,10.69,10.6392,10.5716,10.4971,10.3787,10.2603,10.2502,10.2502,10.2502,10.2502,10.2502,10.2502,10.2502,10.2502,10.2502,10.2502,10.2502,10.2502,10.2502,10.2502,10.2502,10.2502,10.2502,10.2502,10.2502,10.2502,10.2705,10.3415,10.3585,10.3787,10.4566,10.531,10.6088,10.6798,10.69,10.69,10.69,10.69,10.69,10.69,10.69,10.69,10.69,10.6967,10.7306,10.8016,10.8118,10.849,10.9268,10.9268,10.9268,10.9268,10.9268,10.9268,10.9268,11.0012,11.0316,9.4146,9.4315,9.489,9.5601,9.5973,0.0,0.0,0.0,0.0,0.0,0.0,0.0,0.0,9.6514,9.6582,9.6853,9.7529,9.7394,0.0,0.0,0.0,0.0,0.0,0.0,0.0,0.0,0.0,0.0,10.1792,0.0,9.9187,9.8848,9.8612,9.8375,9.9593,10.0506,10.1014,10.2231,10.3212,10.399,10.4701,10.531,10.5817,10.6595,10.69,10.69,10.69,10.69,10.69,10.69,10.69,10.69,10.69,10.6595,10.6189,10.6189,10.602,10.5614,10.4396,10.3314,10.2502,10.2502,10.2502,10.2502,10.2502,10.2502,10.2502,10.2502,10.2502,10.2502,10.2502,10.2502,10.2502,10.2502,10.2502,10.2502,10.2502,10.2502,10.2502,10.2502,10.2502,10.2705,10.3483,10.399,10.4566,10.531,10.6088,10.6595,10.69,10.69,10.69,10.69,10.69,10.69,10.69,10.69,10.69,10.69,10.69,10.7204,10.8016,10.8016,10.8388,10.9166,10.9166,10.9166,10.9166,10.9166,10.8896,10.8422,10.8693,10.9099,9.4552,9.4552,9.489,9.5601,9.5939,9.6244,9.6751,0.0,9.6345,0.0,0.0,0.0,0.0,9.6751,9.7191,9.692,9.7529,9.7597,0.0,9.6345,0.0,0.0,0.0,0.0,0.0,0.0,0.0,0.0,0.0,0.0,0.0,9.9221,9.8882,9.8409,9.9322,9.9931,10.0235,10.1487,10.2502,10.3212,10.399,10.4701,10.5411,10.6189,10.6697,10.69,10.69,10.69,10.69,10.69,10.6697,10.6494,10.6494,10.6088,10.5411,10.5716,10.5479,10.4802,10.3618,10.2908,10.2502,10.2502,10.2502,10.2502,10.2502,10.2502,10.2603,10.2806,10.2705,10.2603,10.2806,10.2705,10.2502,10.2502,10.2502,10.2502,10.2502,10.2502,10.2502,10.2502,10.2705,10.3111,10.3889,10.4599,10.5276,10.5716,10.6392,10.69,10.69,10.69,10.69,10.69,10.69,10.69,10.69,10.69,10.69,10.69,10.69,10.7103,10.761,10.761,10.7982,10.8794,10.849,10.849,10.8794,10.849,10.8084,10.761,10.761,10.7881]},{"header":{"parameterUnit":"m.s-1","parameterCategory":1,"la1":30.6,"la2":29.2853,"lo1":-89.7004,"lo2":-87.6739,"dx":0.0162,"dy":0.0183,"nx":112,"ny":82,"refTime":"2022-12-18T06:00:00:Z","depth":0,"parameterNumber":3,"parameterNumberName":"V-component_of_WINDS"},"data":[0.0,0.0,0.0,0.0,0.0,0.0,0.0,0.0,0.0,0.0,0.0,0.0,0.0,0.0,0.0,0.0,0.0,0.0,0.0,0.0,0.0,0.0,0.0,0.0,0.0,0.0,0.0,0.0,0.0,0.0,0.0,0.0,0.0,0.0,0.0,0.0,0.0,0.0,0.0,0.0,0.0,0.0,0.0,0.0,0.0,0.0,0.0,0.0,0.0,0.0,0.0,0.0,0.0,0.0,0.0,0.0,0.0,0.0,0.0,0.0,0.0,0.0,0.0,0.0,0.0,0.0,0.0,0.0,0.0,0.0,0.0,0.0,0.0,0.0,0.0,0.0,0.0,0.0,0.0,0.0,0.0,0.0,0.0,0.0,0.0,0.0,0.0,0.0,0.0,0.0,0.0,-5.6972,-5.7901,-5.8428,-5.8177,-5.8303,-5.7349,-5.4838,0.0,0.0,0.0,0.0,0.0,0.0,0.0,0.0,0.0,0.0,0.0,0.0,0.0,0.0,0.0,0.0,0.0,0.0,0.0,0.0,0.0,0.0,0.0,0.0,0.0,0.0,0.0,0.0,0.0,0.0,0.0,0.0,0.0,0.0,0.0,0.0,0.0,0.0,0.0,0.0,0.0,0.0,0.0,0.0,0.0,0.0,0.0,0.0,0.0,0.0,0.0,0.0,0.0,0.0,0.0,0.0,0.0,0.0,0.0,0.0,0.0,0.0,0.0,0.0,0.0,0.0,0.0,0.0,0.0,0.0,0.0,0.0,0.0,0.0,0.0,0.0,0.0,0.0,0.0,0.0,0.0,0.0,0.0,0.0,0.0,0.0,0.0,0.0,0.0,0.0,0.0,0.0,0.0,0.0,0.0,0.0,0.0,0.0,0.0,0.0,0.0,0.0,0.0,0.0,-5.7901,-6.0186,-6.0989,-6.0814,-5.9382,-6.0136,-5.9131,-5.5491,0.0,0.0,0.0,0.0,0.0,0.0,0.0,0.0,0.0,0.0,0.0,0.0,0.0,0.0,0.0,0.0,0.0,0.0,0.0,0.0,0.0,0.0,0.0,0.0,0.0,0.0,0.0,0.0,0.0,0.0,0.0,0.0,0.0,0.0,0.0,0.0,0.0,0.0,0.0,0.0,0.0,0.0,0.0,0.0,0.0,0.0,0.0,0.0,0.0,0.0,0.0,0.0,0.0,0.0,0.0,0.0,0.0,0.0,0.0,0.0,0.0,0.0,0.0,0.0,0.0,0.0,0.0,0.0,0.0,0.0,0.0,0.0,0.0,0.0,0.0,0.0,0.0,0.0,0.0,0.0,0.0,0.0,0.0,0.0,0.0,0.0,0.0,0.0,0.0,0.0,0.0,0.0,0.0,0.0,0.0,0.0,0.0,0.0,0.0,0.0,0.0,0.0,0.0,-5.8403,-6.0337,-6.1893,-6.2044,-6.1567,-6.0487,-6.0588,-5.9583,-5.6922,-5.4662,0.0,0.0,0.0,0.0,0.0,0.0,0.0,0.0,0.0,0.0,0.0,0.0,0.0,0.0,0.0,0.0,0.0,0.0,0.0,0.0,0.0,0.0,0.0,0.0,0.0,0.0,0.0,0.0,0.0,0.0,0.0,0.0,0.0,0.0,0.0,0.0,0.0,0.0,0.0,0.0,0.0,0.0,0.0,0.0,0.0,0.0,0.0,0.0,0.0,0.0,0.0,0.0,0.0,0.0,0.0,0.0,0.0,0.0,0.0,0.0,0.0,0.0,0.0,0.0,0.0,0.0,0.0,0.0,0.0,0.0,0.0,0.0,0.0,0.0,0.0,0.0,0.0,0.0,0.0,0.0,0.0,0.0,0.0,0.0,0.0,0.0,0.0,0.0,0.0,0.0,0.0,0.0,0.0,0.0,0.0,0.0,0.0,0.0,0.0,0.0,0.0,0.0,-6.1667,-6.2898,-6.3174,-6.2847,-6.232,-6.1642,-6.1165,-6.0111,-5.8202,-5.6118,0.0,0.0,0.0,0.0,0.0,0.0,0.0,0.0,0.0,0.0,0.0,0.0,0.0,0.0,0.0,0.0,0.0,0.0,0.0,0.0,0.0,0.0,0.0,0.0,0.0,0.0,0.0,0.0,0.0,0.0,0.0,0.0,0.0,0.0,0.0,0.0,0.0,0.0,0.0,0.0,0.0,0.0,0.0,0.0,0.0,0.0,0.0,0.0,0.0,0.0,0.0,0.0,0.0,0.0,0.0,0.0,0.0,0.0,0.0,0.0,0.0,0.0,0.0,0.0,0.0,0.0,0.0,0.0,0.0,0.0,0.0,0.0,0.0,0.0,0.0,0.0,0.0,0.0,0.0,0.0,0.0,0.0,0.0,0.0,0.0,0.0,0.0,0.0,0.0,0.0,0.0,0.0,0.0,0.0,0.0,0.0,0.0,0.0,0.0,0.0,0.0,0.0,-6.2772,-6.4881,-6.4404,-6.4304,-6.3877,-6.2797,-6.2672,-6.1517,-5.883,-5.7047,0.0,0.0,0.0,0.0,0.0,0.0,0.0,0.0,0.0,0.0,0.0,0.0,0.0,0.0,0.0,0.0,0.0,0.0,0.0,0.0,0.0,0.0,0.0,0.0,0.0,0.0,0.0,0.0,0.0,0.0,0.0,0.0,0.0,0.0,0.0,0.0,0.0,0.0,0.0,0.0,0.0,0.0,0.0,0.0,0.0,0.0,0.0,0.0,0.0,0.0,0.0,0.0,0.0,0.0,0.0,0.0,0.0,0.0,0.0,0.0,0.0,0.0,0.0,0.0,0.0,0.0,0.0,0.0,0.0,0.0,0.0,0.0,0.0,0.0,0.0,0.0,0.0,0.0,0.0,0.0,0.0,0.0,0.0,0.0,0.0,0.0,0.0,0.0,0.0,0.0,0.0,0.0,0.0,0.0,0.0,0.0,0.0,0.0,0.0,0.0,0.0,0.0,-6.3099,-6.5082,0.0,-6.4454,-6.4028,-6.2923,-6.2521,-6.1718,-6.0337,0.0,0.0,0.0,0.0,0.0,0.0,0.0,0.0,0.0,0.0,0.0,0.0,0.0,0.0,0.0,0.0,0.0,0.0,0.0,0.0,0.0,0.0,0.0,0.0,0.0,0.0,0.0,0.0,0.0,0.0,0.0,0.0,0.0,0.0,0.0,0.0,0.0,0.0,0.0,0.0,0.0,0.0,0.0,0.0,0.0,0.0,0.0,0.0,0.0,0.0,0.0,0.0,0.0,0.0,0.0,0.0,0.0,0.0,0.0,0.0,0.0,0.0,0.0,0.0,0.0,0.0,0.0,0.0,0.0,0.0,0.0,0.0,0.0,0.0,0.0,0.0,0.0,0.0,0.0,0.0,0.0,0.0,0.0,0.0,0.0,0.0,0.0,0.0,0.0,0.0,0.0,0.0,0.0,0.0,0.0,0.0,0.0,0.0,0.0,0.0,0.0,0.0,-6.0563,-6.345,-6.5208,0.0,-6.468,-6.4178,-6.3425,-6.2847,-6.222,-6.1492,0.0,0.0,0.0,0.0,0.0,0.0,0.0,0.0,0.0,0.0,0.0,0.0,0.0,0.0,0.0,0.0,0.0,0.0,0.0,0.0,0.0,0.0,0.0,0.0,0.0,0.0,0.0,0.0,0.0,0.0,0.0,0.0,0.0,0.0,0.0,0.0,0.0,0.0,0.0,0.0,0.0,0.0,0.0,0.0,0.0,0.0,0.0,0.0,0.0,0.0,0.0,0.0,0.0,0.0,0.0,0.0,0.0,0.0,0.0,0.0,0.0,0.0,0.0,0.0,0.0,0.0,0.0,0.0,0.0,0.0,0.0,0.0,0.0,0.0,0.0,0.0,0.0,0.0,0.0,0.0,0.0,0.0,0.0,0.0,0.0,0.0,0.0,0.0,0.0,0.0,0.0,0.0,0.0,0.0,0.0,0.0,0.0,0.0,0.0,0.0,0.0,0.0,-6.1718,-6.3927,-6.5509,-6.6061,-6.5132,-6.4479,-6.4454,-6.4002,-6.3224,0.0,0.0,0.0,0.0,0.0,0.0,0.0,0.0,0.0,0.0,0.0,0.0,0.0,0.0,0.0,0.0,0.0,0.0,0.0,0.0,0.0,0.0,0.0,0.0,0.0,0.0,0.0,0.0,0.0,0.0,0.0,0.0,0.0,0.0,0.0,0.0,0.0,0.0,0.0,0.0,0.0,0.0,0.0,0.0,0.0,0.0,0.0,0.0,0.0,0.0,0.0,0.0,0.0,0.0,0.0,0.0,0.0,0.0,0.0,0.0,0.0,0.0,0.0,0.0,0.0,0.0,0.0,0.0,0.0,0.0,0.0,0.0,0.0,0.0,0.0,0.0,0.0,0.0,0.0,0.0,0.0,0.0,0.0,0.0,0.0,0.0,0.0,0.0,0.0,0.0,0.0,0.0,0.0,0.0,0.0,0.0,0.0,0.0,0.0,0.0,0.0,0.0,0.0,-6.2295,-6.4505,-6.5936,-6.6086,-6.5484,-6.4881,-6.4505,-6.4329,-6.4103,-6.3751,0.0,0.0,0.0,0.0,0.0,0.0,0.0,0.0,0.0,0.0,0.0,0.0,0.0,0.0,0.0,0.0,0.0,0.0,0.0,0.0,0.0,0.0,0.0,0.0,0.0,0.0,0.0,0.0,0.0,0.0,0.0,0.0,0.0,0.0,0.0,0.0,0.0,0.0,0.0,0.0,0.0,0.0,0.0,0.0,0.0,0.0,0.0,0.0,0.0,0.0,0.0,0.0,0.0,0.0,0.0,0.0,0.0,0.0,0.0,0.0,0.0,0.0,0.0,0.0,0.0,0.0,0.0,0.0,0.0,0.0,0.0,0.0,0.0,0.0,0.0,0.0,0.0,0.0,0.0,0.0,0.0,0.0,0.0,0.0,0.0,0.0,0.0,0.0,0.0,0.0,0.0,0.0,0.0,0.0,0.0,0.0,0.0,0.0,0.0,0.0,0.0,0.0,-6.2948,-6.4906,-6.6287,-6.6739,-6.6086,-6.5484,-6.5157,-6.5132,-6.5032,-6.4806,0.0,0.0,0.0,0.0,0.0,0.0,0.0,0.0,0.0,0.0,0.0,0.0,0.0,0.0,0.0,0.0,0.0,0.0,0.0,0.0,0.0,0.0,0.0,0.0,0.0,0.0,0.0,0.0,0.0,0.0,0.0,0.0,0.0,0.0,0.0,0.0,0.0,0.0,0.0,0.0,0.0,0.0,0.0,0.0,0.0,0.0,0.0,0.0,0.0,0.0,0.0,0.0,0.0,0.0,0.0,0.0,0.0,0.0,0.0,0.0,0.0,0.0,0.0,0.0,0.0,0.0,0.0,0.0,0.0,0.0,0.0,0.0,0.0,0.0,0.0,0.0,0.0,0.0,0.0,0.0,0.0,0.0,0.0,0.0,0.0,0.0,0.0,0.0,0.0,0.0,0.0,0.0,0.0,0.0,0.0,0.0,0.0,0.0,0.0,0.0,0.0,0.0,-6.3751,-6.5283,-6.6689,-6.7819,-6.694,-6.6262,-6.6262,-6.6262,-6.6061,-6.5559,0.0,0.0,0.0,0.0,0.0,0.0,0.0,0.0,0.0,0.0,0.0,0.0,0.0,0.0,0.0,0.0,0.0,0.0,0.0,0.0,0.0,0.0,0.0,0.0,0.0,0.0,0.0,0.0,0.0,0.0,0.0,0.0,0.0,0.0,0.0,0.0,0.0,0.0,0.0,0.0,0.0,0.0,0.0,0.0,0.0,0.0,0.0,0.0,0.0,0.0,0.0,0.0,0.0,0.0,0.0,0.0,0.0,0.0,0.0,0.0,-5.0818,0.0,0.0,0.0,0.0,0.0,0.0,0.0,0.0,0.0,0.0,0.0,0.0,0.0,0.0,0.0,0.0,0.0,0.0,0.0,0.0,0.0,0.0,0.0,0.0,0.0,0.0,0.0,0.0,0.0,0.0,0.0,0.0,0.0,0.0,0.0,0.0,0.0,0.0,0.0,0.0,0.0,-6.5333,-6.6664,-6.7869,-6.8974,-6.8095,-6.7442,-6.7442,-6.7442,-6.7392,-6.7267,-6.6639,0.0,0.0,0.0,0.0,0.0,0.0,0.0,0.0,0.0,0.0,0.0,0.0,0.0,0.0,0.0,0.0,0.0,0.0,0.0,0.0,0.0,0.0,0.0,0.0,0.0,0.0,0.0,0.0,0.0,0.0,0.0,0.0,0.0,0.0,0.0,0.0,0.0,0.0,0.0,0.0,0.0,0.0,0.0,0.0,0.0,0.0,0.0,0.0,0.0,0.0,0.0,0.0,0.0,0.0,0.0,0.0,0.0,0.0,0.0,0.0,-5.3593,0.0,0.0,0.0,0.0,0.0,0.0,0.0,0.0,0.0,0.0,0.0,0.0,0.0,0.0,0.0,0.0,0.0,0.0,0.0,0.0,0.0,0.0,0.0,0.0,0.0,0.0,0.0,0.0,0.0,0.0,0.0,0.0,0.0,0.0,0.0,0.0,0.0,0.0,0.0,0.0,-6.5609,-6.7618,-6.92,-6.9777,-6.9325,-6.8974,-6.8974,-6.8748,-6.8597,-6.8597,-6.7819,0.0,0.0,0.0,0.0,0.0,0.0,0.0,0.0,0.0,0.0,0.0,0.0,0.0,0.0,0.0,0.0,0.0,0.0,0.0,0.0,0.0,0.0,0.0,0.0,0.0,0.0,0.0,0.0,0.0,0.0,0.0,0.0,0.0,0.0,0.0,0.0,0.0,0.0,0.0,0.0,0.0,0.0,0.0,0.0,0.0,0.0,0.0,0.0,0.0,0.0,0.0,0.0,0.0,-4.8583,-4.8537,-5.1895,-4.8707,-4.9651,-5.3831,-5.721,-5.7874,-5.5984,0.0,0.0,0.0,0.0,0.0,0.0,0.0,0.0,0.0,0.0,0.0,0.0,0.0,0.0,0.0,0.0,0.0,0.0,0.0,0.0,0.0,0.0,0.0,0.0,0.0,-5.3865,-5.4315,0.0,0.0,0.0,0.0,0.0,0.0,0.0,0.0,0.0,0.0,0.0,0.0,-6.6036,-6.8572,-7.0455,-7.0531,-7.0455,-7.0405,-7.0405,-6.9978,-6.9727,-6.9727,-6.8874,-6.8522,0.0,0.0,0.0,0.0,0.0,0.0,0.0,0.0,0.0,0.0,0.0,0.0,0.0,0.0,0.0,0.0,0.0,0.0,0.0,0.0,0.0,0.0,0.0,0.0,0.0,0.0,0.0,0.0,0.0,0.0,0.0,0.0,-4.4775,-4.5484,0.0,0.0,0.0,0.0,0.0,0.0,0.0,0.0,0.0,0.0,0.0,0.0,0.0,0.0,-5.0143,-5.0864,-5.293,-5.6272,-5.4113,-5.3629,-5.4726,-5.5782,-5.5731,-5.5002,-5.7623,0.0,-5.3859,-5.3453,0.0,0.0,0.0,0.0,0.0,0.0,0.0,0.0,0.0,0.0,0.0,0.0,0.0,0.0,0.0,0.0,0.0,0.0,0.0,0.0,0.0,0.0,-5.6652,-5.7204,-5.7283,-5.7241,0.0,-5.4634,-5.3013,-5.4068,-5.2715,0.0,0.0,0.0,0.0,0.0,0.0,0.0,-6.8773,-7.0104,-7.1158,-7.1636,-7.1259,-7.0983,-7.0983,-7.0907,-7.0857,-7.0857,-7.0732,-7.0455,-7.0054,-6.8999,0.0,0.0,0.0,0.0,0.0,0.0,0.0,0.0,0.0,0.0,0.0,0.0,0.0,0.0,0.0,0.0,0.0,0.0,0.0,0.0,0.0,0.0,0.0,0.0,0.0,0.0,0.0,0.0,0.0,-4.3166,-4.513,-4.4244,-4.5511,-4.4836,0.0,0.0,0.0,0.0,0.0,0.0,0.0,0.0,0.0,-5.3641,-5.1828,-5.1978,-5.4412,-5.3357,-5.4281,-5.6999,-5.3671,-5.303,-5.4716,-5.3903,-5.3361,-5.3084,-5.3941,-5.3551,-5.2408,-5.3223,-5.228,-5.0095,0.0,0.0,0.0,0.0,-4.5449,-4.5508,-4.7305,-4.793,0.0,-4.8203,0.0,0.0,0.0,0.0,0.0,0.0,0.0,0.0,0.0,0.0,-5.4457,-5.4901,-5.5204,-5.5264,-5.48,-5.3837,-5.3528,0.0,-5.2868,-5.3044,-5.8901,0.0,0.0,0.0,0.0,0.0,-6.922,-7.0932,-7.1987,-7.1912,-7.1962,-7.2012,-7.2012,-7.1736,-7.1535,-7.1535,-7.1259,-7.0832,-7.028,-6.9501,-6.6513,0.0,0.0,0.0,0.0,0.0,0.0,0.0,0.0,0.0,0.0,0.0,0.0,0.0,0.0,0.0,0.0,0.0,0.0,0.0,0.0,0.0,0.0,0.0,0.0,0.0,0.0,0.0,0.0,-4.476,-4.6579,-4.5147,-4.6898,-4.648,0.0,0.0,0.0,0.0,0.0,0.0,-5.1498,-5.1028,-5.2659,-5.6827,-5.4233,-5.4156,-5.7166,-5.4988,-5.474,-5.6786,-5.2653,-5.1797,-5.3834,-5.1686,-5.1172,-5.1738,-5.1426,-5.1465,-5.1855,-5.3032,-5.309,-5.225,-4.9894,-4.8334,-4.75,-4.8047,-4.8105,-4.8203,-5.0156,-5.082,-5.0879,-5.1191,0.0,-5.0234,-4.8828,0.0,0.0,0.0,0.0,-4.998,-5.1289,-5.2266,-5.2988,-5.3301,-5.3613,-5.3769,-5.3437,-5.3808,-5.4254,0.0,-5.3086,-5.3336,-5.936,0.0,0.0,0.0,0.0,-6.6228,-6.7796,-6.9444,-7.0755,-7.0957,-7.1468,-7.1857,-7.2539,-7.2263,-7.2062,-7.1912,-7.1661,-7.1124,-6.9907,-6.9387,-6.6979,-6.2549,0.0,0.0,0.0,0.0,0.0,0.0,0.0,0.0,0.0,0.0,0.0,0.0,0.0,0.0,0.0,0.0,0.0,0.0,0.0,0.0,0.0,0.0,0.0,0.0,0.0,0.0,0.0,0.0,0.0,-5.0457,-4.9437,0.0,0.0,0.0,0.0,-4.6074,-5.0439,-5.2557,-5.1773,-5.4019,-5.4697,-5.3315,-5.3415,-5.3898,-5.4609,-5.4401,-5.4821,-5.5893,-5.3281,-5.2207,-5.2796,-5.2598,-5.2598,-5.2637,-5.2617,-5.2637,-5.2777,-5.4307,-5.3066,-5.0456,-5.2087,-5.1087,-4.8906,-4.9746,-5.0293,-5.0801,-5.2129,-5.2578,-5.2578,-5.2598,-5.2051,-5.1269,-5.0801,-5.0058,0.0,0.0,-5.1269,-5.2226,-5.3535,-5.4512,-5.5156,-5.5176,-5.5195,-5.5195,-5.5176,-5.4902,-5.4512,0.0,-5.3555,-5.4124,-5.7238,0.0,-5.8169,-6.1119,-6.2892,-6.4054,-6.4031,-6.4726,-6.6087,-6.8652,-6.8871,-6.9696,-7.18,-7.2389,-7.2464,-7.1937,-7.2364,-7.1426,-6.897,-6.8275,-6.4896,-5.8612,-5.8155,0.0,0.0,0.0,0.0,0.0,0.0,0.0,0.0,0.0,0.0,0.0,0.0,0.0,0.0,0.0,0.0,0.0,0.0,0.0,0.0,0.0,0.0,0.0,0.0,0.0,0.0,0.0,0.0,-4.6845,-4.8669,0.0,0.0,-4.976,-5.0534,-4.8071,-5.3887,-5.6151,-5.3134,-5.4145,-5.4613,-5.4194,-5.3182,-5.29,-5.3321,-5.3321,-5.3481,-5.3802,-5.2857,-5.2715,-5.3125,-5.2832,-5.3027,-5.3535,-5.3242,-5.3301,-5.3535,-5.4185,-5.3509,-5.2404,-5.2991,-5.2816,-5.2266,-5.2851,-5.3164,-5.3398,-5.4141,-5.4375,-5.4336,-5.4062,-5.3769,-5.3437,-5.3008,-5.2676,-5.2539,-5.3144,-5.3516,-5.3926,-5.4668,-5.5273,-5.5644,-5.5371,-5.5508,-5.5644,-5.5371,-5.541,-5.5449,-5.5293,-5.4687,-5.5214,-5.8494,-5.7495,-5.7822,-6.2327,-6.2276,-6.2502,-6.4436,-6.5043,-6.547,-6.6823,-6.7049,-6.7182,-6.8023,-6.8187,-6.827,-6.7732,-6.7872,-6.7289,-6.5606,-6.5423,-6.3145,-5.8788,-5.8788,-5.7024,0.0,0.0,0.0,0.0,0.0,0.0,0.0,0.0,0.0,0.0,0.0,0.0,0.0,0.0,0.0,0.0,0.0,0.0,0.0,0.0,0.0,0.0,0.0,0.0,0.0,0.0,-4.7642,-4.5307,-4.8426,-4.9671,-4.7424,-5.0963,-5.2395,-4.9659,-5.5094,-5.6729,-5.3094,-5.4236,-5.4652,-5.4074,-5.2816,-5.2422,-5.2715,-5.2715,-5.2773,-5.293,-5.293,-5.3164,-5.3574,-5.3281,-5.3476,-5.4023,-5.3711,-5.375,-5.4023,-5.4023,-5.3945,-5.3789,-5.3633,-5.3769,-5.4062,-5.4355,-5.4453,-5.4492,-5.4785,-5.498,-5.5058,-5.4765,-5.4785,-5.4844,-5.4551,-5.4453,-5.4512,-5.4805,-5.4883,-5.498,-5.541,-5.5723,-5.5898,-5.5762,-5.5957,-5.6113,-5.5976,-5.6172,-5.6406,-5.6562,-5.5898,-5.6096,-5.8266,-5.7361,-5.742,-6.0981,-6.0469,-6.0216,-6.2523,-6.2797,-6.3322,-6.446,-6.4712,-6.4854,-6.5711,-6.6158,-6.5934,-6.4795,-6.5175,-6.4592,-6.2104,-6.2674,-6.1458,-5.7905,-5.7597,-5.6496,-5.4414,0.0,0.0,0.0,0.0,0.0,0.0,0.0,0.0,0.0,0.0,0.0,0.0,0.0,0.0,0.0,0.0,0.0,0.0,0.0,0.0,0.0,0.0,0.0,-4.4766,-4.6308,-4.7344,-4.6504,-4.8633,-4.9844,-4.9023,-4.9895,-5.0581,-5.082,-5.3413,-5.404,-5.1659,-5.4515,-5.4996,-5.2129,-5.2519,-5.2734,-5.2754,-5.2754,-5.2969,-5.3398,-5.3398,-5.3633,-5.4062,-5.4062,-5.4062,-5.4062,-5.4062,-5.4062,-5.4062,-5.4062,-5.4316,-5.4648,-5.4219,-5.4062,-5.4062,-5.4062,-5.4062,-5.4062,-5.4062,-5.4355,-5.4707,-5.4707,-5.498,-5.5312,-5.5312,-5.5312,-5.5332,-5.5332,-5.5351,-5.5449,-5.584,-5.5976,-5.6094,-5.6504,-5.6621,-5.6738,-5.7148,-5.7226,-5.7363,-5.7793,-5.7187,-5.6621,-5.6621,-5.6621,-5.6758,-5.7168,-5.7226,0.0,-5.7812,-5.7871,-5.8941,-6.1657,-6.187,-6.2697,-6.4694,-6.612,-6.592,-6.3701,-6.4882,-6.3594,-5.8863,-6.032,-5.9215,-5.5312,-5.4453,-5.3574,-5.2715,0.0,0.0,0.0,0.0,0.0,0.0,0.0,0.0,0.0,0.0,0.0,0.0,0.0,0.0,0.0,0.0,0.0,0.0,0.0,0.0,0.0,0.0,-4.7266,-4.6367,-4.7832,-4.8906,-4.8672,-4.9551,-5.0312,-5.0683,-5.2409,-5.3255,-5.2326,-5.425,-5.4463,-5.2541,-5.3153,-5.3569,-5.3008,-5.3125,-5.334,-5.3672,-5.3672,-5.3887,-5.4316,-5.4316,-5.4531,-5.4961,-5.4961,-5.4961,-5.4961,-5.4961,-5.4961,-5.4961,-5.4961,-5.5019,-5.5098,-5.4668,-5.4687,-5.4961,-5.4961,-5.4961,-5.4961,-5.4961,-5.5039,-5.5137,-5.5137,-5.5215,-5.5312,-5.5312,-5.5527,-5.5762,-5.5762,-5.6211,-5.664,-5.6445,-5.6875,-5.7285,-5.709,-5.7285,-5.7539,-5.7656,-5.7676,-5.7715,-5.7851,-5.7676,-5.7519,-5.7519,-5.7519,-5.7558,-5.7676,-5.7676,0.0,-5.8301,-5.8359,-5.8795,-6.0254,-6.0334,-6.0598,-6.0794,-6.0773,-6.0341,-5.8734,-5.8673,-5.7869,-5.6342,-5.6781,-5.6325,-5.4863,-5.3984,-5.3262,0.0,0.0,0.0,0.0,0.0,0.0,0.0,0.0,0.0,0.0,0.0,0.0,0.0,0.0,0.0,0.0,0.0,0.0,0.0,0.0,0.0,0.0,-4.8242,-4.8848,-4.8594,-4.9277,-4.9863,-5.0039,-5.0605,-5.1172,-5.166,-5.3181,-5.3677,-5.2676,-5.3983,-5.424,-5.2969,-5.3164,-5.3457,-5.3906,-5.3906,-5.4121,-5.4551,-5.457,-5.4687,-5.4941,-5.4941,-5.5078,-5.5312,-5.5312,-5.5312,0.0,-5.5312,-5.5312,-5.5312,-5.5312,-5.5312,0.0,0.0,0.0,0.0,0.0,-5.5312,-5.5312,-5.5312,-5.543,-5.5566,-5.5566,-5.5683,-5.584,-5.584,-5.6015,-5.6211,-5.6211,-5.6562,-5.6933,-5.6855,-5.7226,-5.7578,-5.75,-5.7676,-5.791,-5.8086,-5.8262,-5.8496,-5.8652,-5.8828,0.0,-5.8945,-5.832,-5.7988,-5.8379,-5.8437,-5.8652,-5.9238,-5.9004,-5.9004,-5.9473,-5.9238,-5.8887,-5.8672,-5.873,0.0,0.0,0.0,-5.6465,-5.5859,-5.5332,0.0,0.0,0.0,0.0,-5.2168,-5.1758,0.0,0.0,-5.0449,-4.998,0.0,0.0,0.0,0.0,0.0,0.0,0.0,0.0,0.0,0.0,0.0,0.0,0.0,0.0,0.0,0.0,-4.9961,-5.084,-5.0937,-5.0625,-5.0527,-5.0898,-5.1621,-5.2129,-5.2226,-5.2558,-5.2812,-5.2851,-5.3262,-5.3516,-5.3516,0.0,0.0,0.0,0.0,-5.4941,-5.5312,-5.5312,-5.5332,-5.539,-5.543,-5.5469,-5.5527,-5.5566,-5.5605,-5.5605,-5.5605,-5.5605,-5.5605,-5.5644,-5.5664,-5.5644,-5.541,-5.5312,-5.5312,-5.5312,-5.5312,-5.5312,-5.5312,0.0,0.0,-5.5859,-5.6133,-5.6445,-5.6504,-5.6543,-5.6601,-5.664,-5.6758,-5.6953,-5.7285,-5.7461,-5.7656,-5.7988,-5.8105,-5.8262,-5.8652,-5.9062,-5.9414,-5.9629,-5.998,-6.0156,-6.0039,-5.8848,-5.8203,-5.9004,-5.9004,-5.918,-5.9922,-5.9355,-5.8945,-5.9023,0.0,0.0,-5.7871,-5.8555,-5.8262,-5.6621,-5.7187,-5.7226,-5.6484,-5.5312,-5.4668,-5.4609,-5.4121,-5.3105,-5.1504,-5.1074,-5.0859,-5.0801,-5.0762,-5.0332,0.0,0.0,0.0,0.0,0.0,0.0,0.0,0.0,0.0,0.0,0.0,0.0,0.0,0.0,0.0,-4.8691,-4.9961,-5.1055,-5.1738,-5.1758,-5.1738,-5.1836,-5.1992,-5.2363,-5.3047,-5.3183,-5.3379,-5.375,-5.418,-5.4433,-5.4433,-5.4824,0.0,-5.5176,-5.5195,-5.5234,-5.5312,-5.5312,-5.5469,-5.582,0.0,0.0,-5.6855,-5.7207,-5.7363,-5.7363,-5.7363,-5.7363,-5.7402,-5.7734,-5.791,-5.7734,-5.5996,-5.5312,-5.5312,-5.5312,-5.5312,-5.5312,-5.5312,-5.5351,-5.543,-5.543,-5.5488,-5.5625,-5.5957,-5.6308,0.0,-5.6992,-5.7851,-5.8613,-5.8359,-5.9043,-5.9746,-5.9473,-5.9687,-5.998,-6.0039,-6.0137,-5.9922,-5.8945,-5.8828,-5.8594,-5.7519,-5.791,-5.8476,-5.8652,-5.7734,-5.7148,-5.7305,-5.7187,-5.7363,-5.8047,-5.7969,-5.7871,-5.7871,-5.7695,-5.7148,-5.6113,-5.5898,-5.5723,-5.5566,-5.498,-5.4512,-5.416,-5.3379,-5.2637,-5.1953,-5.1523,-5.1133,-5.0801,-5.0449,-5.0215,0.0,0.0,0.0,0.0,0.0,0.0,0.0,0.0,0.0,0.0,0.0,-4.5996,0.0,0.0,-4.9238,-5.0293,-5.1191,-5.1992,-5.2637,-5.2715,-5.2715,-5.2715,-5.2715,-5.2988,-5.3633,-5.3887,-5.4121,-5.4336,-5.4746,-5.5,-5.5,-5.5195,-5.541,-5.5605,-5.584,-5.6055,-5.625,-5.6484,-5.6699,-5.6894,-5.7109,-5.7324,-5.7539,-5.7754,-5.7871,-5.7871,-5.7871,-5.7871,-5.7871,-5.8086,-5.8203,-5.8086,-5.7012,-5.6719,-5.6914,-5.6914,-5.707,-5.7246,-5.7246,-5.7246,-5.7246,-5.7246,-5.7246,-5.7285,-5.75,-5.7715,-5.791,-5.8144,-5.8828,-5.9453,-5.9238,-5.9805,-6.0215,-5.9355,-5.9336,-5.9297,-5.8652,-5.8652,-5.8652,-5.8008,-5.8027,-5.7969,-5.7344,-5.7226,-5.7383,-5.7793,-5.7324,-5.6973,-5.7187,-5.7031,-5.707,-5.748,-5.7344,-5.7226,-5.7226,-5.7031,-5.6719,-5.6289,-5.5859,-5.5625,-5.5625,-5.5215,-5.4902,-5.4668,-5.4238,-5.3808,-5.3379,-5.2949,-5.2402,-5.1738,-5.1328,-5.0781,0.0,0.0,0.0,0.0,0.0,0.0,0.0,0.0,-4.4922,-4.6582,-4.7207,-4.7812,-4.9023,-4.9883,-5.0781,-5.1894,-5.25,-5.2949,-5.332,-5.3437,-5.3516,-5.3613,-5.3613,-5.375,-5.4121,-5.4551,-5.4805,-5.4805,-5.5195,-5.5469,-5.5547,-5.5625,-5.5879,-5.6289,-5.666,-5.6992,-5.7344,-5.7676,-5.7871,-5.7871,-5.7969,-5.7988,-5.7988,-5.8086,-5.8105,-5.8105,-5.8105,-5.8164,-5.8262,-5.832,-5.8379,-5.8379,-5.8437,-5.8652,-5.8887,-5.8633,-5.8769,-5.9062,-5.918,-5.918,-5.918,-5.918,-5.918,-5.918,-5.9297,-5.9297,-5.9297,-5.918,-5.9414,-5.9648,-5.9473,-5.9687,-5.9687,-5.8652,-5.8418,-5.8125,-5.7051,-5.709,-5.7265,-5.7012,-5.7246,-5.7441,-5.7265,-5.6387,-5.5976,-5.6836,-5.6758,-5.6758,-5.7187,-5.7012,-5.6914,-5.707,-5.6855,-5.6738,-5.6836,-5.6836,-5.6836,-5.6836,-5.6504,-5.6269,-5.6191,-5.5859,-5.5605,-5.543,-5.543,-5.5215,-5.4805,-5.4453,-5.3867,-5.3086,-5.2754,-5.1816,-4.2637,0.0,0.0,-4.5996,-4.6152,-4.625,0.0,0.0,-4.7539,-4.8887,-4.9199,-4.9512,-5.043,-5.0976,-5.1465,-5.1992,-5.2754,-5.3301,-5.3359,-5.3711,-5.4101,-5.4492,-5.4531,-5.4551,-5.4609,-5.498,-5.5234,-5.5234,-5.5625,-5.6035,-5.6426,-5.6797,-5.7207,-5.7637,-5.7695,-5.7734,-5.7793,-5.7851,-5.7871,-5.7871,-5.8262,-5.8476,-5.8476,-5.8848,-5.9023,-5.9023,-5.9023,-5.9238,-5.9629,-5.998,-6.0156,-6.0195,-6.0566,-6.0508,-6.0098,-5.8945,-5.8574,-5.8652,-5.9062,-5.918,-5.918,-5.918,-5.918,-5.9238,-5.9629,-5.9746,-5.9648,-5.9297,-5.9238,-5.9062,-5.8262,-5.8105,-5.8105,-5.7969,-5.793,-5.791,-5.7754,-5.7754,-5.7461,-5.6308,-5.6113,-5.5918,-5.5156,-5.4922,-5.5117,-5.5957,-5.5117,-5.4551,-5.498,-5.5312,-5.582,-5.6562,-5.6953,-5.7305,-5.7695,-5.7715,-5.7715,-5.7715,-5.7676,-5.748,-5.709,-5.7012,-5.664,-5.5879,-5.5859,-5.5644,-5.5234,-5.5195,-5.4922,-5.4453,-5.4414,-5.3281,-4.4531,0.0,0.0,0.0,-4.6797,-4.6992,-4.8203,-4.8203,-4.8242,-4.9316,-4.9922,-5.0449,-5.1055,-5.1933,-5.2617,0.0,-5.334,-5.3848,-5.4101,-5.4297,-5.457,-5.5,-5.5039,-5.4941,-5.4707,-5.4844,-5.5039,-5.5293,-5.5937,-5.6504,-5.6933,-5.7363,-5.7676,-5.7851,-5.8144,-5.8262,-5.8262,-5.8496,-5.8613,-5.8613,-5.8828,-5.8887,-5.8945,-5.9121,-5.9297,-5.957,-5.9805,-6.0039,-6.0195,-6.0371,-6.043,-6.0449,-6.0625,-6.0605,-6.0371,-5.9844,-5.9629,-5.9687,-6.0156,-6.0293,-6.0293,-6.0293,-5.9941,-5.9531,-5.9473,-5.9062,-5.8652,-5.8437,-5.8437,-5.832,-5.7969,-5.7871,-5.7676,-5.6914,-5.6738,-5.6543,-5.5801,-5.584,-5.5859,-5.5312,-5.541,-5.5449,-5.5117,-5.5039,-5.5254,-5.584,-5.5488,-5.5195,-5.539,-5.5996,-5.664,-5.7265,-5.748,-5.7656,-5.7851,-5.7871,-5.7871,-5.7871,-5.7871,-5.7793,-5.7598,-5.7598,-5.7422,-5.707,-5.7051,-5.6973,-5.6797,-5.6797,-5.6582,-5.6152,-5.6152,-5.5527,-4.6426,0.0,0.0,-4.7285,-4.7363,-4.7656,-4.8398,-4.8672,-4.8965,-4.9726,-5.0469,-5.1152,-5.168,-5.2558,0.0,-5.3496,-5.3926,-5.4316,-5.4629,-5.4785,-5.5019,-5.543,-5.5371,-5.5273,-5.5215,-5.5098,-5.5254,-5.5801,-5.6406,-5.6992,-5.7539,-5.7851,-5.8086,-5.8203,-5.8535,-5.8769,-5.8887,-5.918,-5.9414,-5.9531,-5.9531,-5.9531,-5.9531,-5.9531,-5.9687,-5.998,-6.0312,-6.0488,-6.0625,-6.0723,-6.084,-6.0957,-6.1133,-6.0957,-6.0605,-6.0605,-6.0605,-6.0683,-6.1094,-6.1035,-6.0742,-6.0859,-6.0273,-5.9414,-5.9238,-5.873,-5.8164,-5.793,-5.7793,-5.7637,-5.7402,-5.7324,-5.709,-5.6152,-5.5937,-5.5723,-5.4902,-5.4805,-5.4922,-5.5156,-5.5254,-5.541,-5.5781,-5.5742,-5.584,-5.6387,-5.6582,-5.6562,-5.6308,-5.7031,-5.7734,-5.8203,-5.8203,-5.8203,-5.8203,-5.8203,-5.8203,-5.8203,-5.8203,-5.8164,-5.8027,-5.8027,-5.7969,-5.7871,-5.7871,-5.7871,-5.7871,-5.7871,-5.7695,-5.7383,-5.7383,-5.7226,0.0,0.0,-4.8164,-4.8164,-4.8476,-4.8926,-4.9375,-4.9805,-5.0234,-5.0683,-5.1113,-5.166,-5.2519,-5.2695,-5.3008,-5.3867,-5.4375,-5.4668,-5.4687,-5.5039,-5.5449,-5.5859,-5.5566,-5.5625,0.0,-5.6152,-5.625,-5.709,-5.7187,-5.7578,-5.8418,-5.8515,-5.8711,-5.9121,-5.918,-5.9355,-5.9765,-5.9805,-5.998,-6.039,-6.039,-6.039,-6.039,-6.039,-6.039,-6.043,-6.043,-6.0683,-6.1094,-6.1484,-6.1953,-6.2363,-6.2812,-6.2187,-6.1074,-6.1074,-6.1074,-6.1133,-6.1543,-6.0898,-5.9922,-6.0332,-5.9629,-5.8652,-5.9062,-5.918,-5.8965,-5.8105,-5.7558,-5.7031,-5.6211,-5.5996,-5.5976,-5.5937,-5.5937,-5.6035,-5.6426,-5.5859,-5.5527,-5.6367,-5.5859,-5.5703,-5.6933,-5.6816,-5.6836,-5.7676,-5.8183,-5.8125,-5.7285,-5.7949,-5.8652,-5.9121,-5.9121,-5.9121,-5.9121,-5.9121,-5.9121,-5.9121,-5.9121,-5.8945,-5.8535,-5.8535,-5.8301,-5.7871,-5.7871,-5.7871,-5.7871,-5.7871,-5.7851,-5.7851,-5.7851,-5.7851,0.0,0.0,-4.8281,-4.8574,-4.8965,-4.9414,-4.9863,-5.0293,-5.0644,-5.0781,-5.1133,-5.1601,-5.2187,-5.2754,-5.334,-5.3926,-5.4394,-5.4883,-5.543,-5.5625,-5.5996,-5.6699,-5.6406,0.0,0.0,0.0,0.0,-5.7148,-5.748,-5.791,-5.8476,-5.8828,-5.918,-5.959,-5.959,-5.9805,-6.0215,-6.0215,-6.0312,-6.043,-6.043,-6.043,-6.043,-6.0742,-6.1015,-6.1308,-6.1308,-6.1719,-6.2344,-6.1601,-6.1543,-6.1894,-6.1484,-6.1015,-6.0664,-6.0664,-6.0664,-6.0625,-6.0508,-6.0156,-5.9824,-5.998,-5.9336,-5.8476,-5.8379,-5.791,-5.7402,-5.7109,-5.6914,-5.6738,-5.6445,-5.6367,-5.6367,-5.6367,-5.6367,-5.6406,-5.6562,-5.6582,-5.666,-5.6933,-5.6992,-5.7148,-5.7578,-5.7519,-5.7637,-5.8203,-5.8418,-5.8535,-5.8535,-5.8769,-5.9004,-5.918,-5.918,-5.918,-5.918,-5.918,-5.918,-5.918,-5.918,-5.9121,-5.8945,-5.8945,-5.8887,-5.873,-5.873,-5.873,-5.873,-5.873,-5.873,-5.873,-5.873,-5.873,0.0,-4.8906,-4.8984,-4.9258,-4.9551,-4.9844,-5.0117,-5.0508,-5.0801,-5.0801,-5.1133,-5.1562,-5.1992,-5.2656,-5.3281,-5.3711,-5.4414,-5.5098,-5.5625,-5.6113,-5.6601,-5.7148,-5.7109,0.0,0.0,0.0,0.0,-5.7637,-5.7969,-5.8359,-5.8945,-5.9238,-5.959,-6.0039,-6.0039,-6.0215,-6.0664,-6.0664,-6.0742,-6.0898,-6.1074,-6.1133,-6.1133,-6.1601,-6.1777,-6.1719,-6.1719,-6.1953,-6.2285,-6.1426,-6.1328,-6.166,-6.1133,-6.0723,-6.043,-6.043,-6.0254,-5.998,-6.0039,-5.9746,-5.9394,-5.9531,-5.8887,-5.8027,-5.791,-5.748,-5.7051,-5.7051,-5.7051,-5.7051,-5.7051,-5.7168,-5.7285,-5.7285,-5.7285,-5.7324,-5.748,-5.748,-5.7539,-5.7851,-5.791,-5.7969,-5.8262,-5.832,-5.8437,-5.8711,-5.8887,-5.9043,-5.918,-5.918,-5.918,-5.918,-5.9297,-5.9414,-5.9414,-5.9531,-5.9629,-5.9629,-5.9629,-5.9629,-5.9629,-5.9629,-5.957,-5.9414,-5.9414,-5.9355,-5.918,-5.918,-5.918,-5.918,-5.918,-5.918,-5.0176,-5.0176,-5.0176,-5.0215,-5.0215,-5.0215,-5.0234,-5.0547,-5.084,-5.084,-5.1152,-5.1562,0.0,0.0,-5.2891,-5.332,-5.4492,-5.5351,-5.5371,-5.6426,-5.7226,0.0,0.0,0.0,0.0,0.0,0.0,-5.8594,0.0,-5.8945,-5.9805,-5.9863,-6.0039,-6.0449,-6.0488,-6.0683,-6.1094,-6.1152,-6.1367,-6.1758,-6.2129,-6.2305,-6.2363,-6.2754,-6.2461,-6.166,-6.166,-6.1426,-6.1094,-6.1035,-6.1269,-6.166,-6.1601,-6.1074,-6.0371,-6.0371,-5.9863,-5.9297,-6.0098,-5.957,-5.8652,-5.9062,-5.832,-5.7383,-5.7793,-5.793,-5.793,-5.793,-5.793,-5.793,-5.793,-5.8262,-5.8594,-5.8594,-5.8594,-5.8652,-5.9062,-5.8555,-5.8203,-5.9023,-5.8496,-5.8203,-5.9023,-5.918,-5.9238,-5.9238,-5.957,-5.9687,-5.9297,-5.9238,-5.9238,-5.9238,-5.959,-5.9863,-5.9863,-6.0215,-6.043,-6.043,-6.043,-6.043,-6.043,-6.043,-6.0254,-5.9863,-5.9863,-5.9648,-5.9238,-5.9238,-5.9238,-5.9238,-5.9238,-5.9238,-5.0176,-5.0176,-5.0254,-5.0566,-5.0644,-5.0723,-5.1035,-5.1191,-5.1269,-5.1269,-5.1367,-5.1465,0.0,0.0,0.0,-5.3789,-5.4941,0.0,-5.6211,-5.6816,0.0,0.0,0.0,-5.8535,-5.8965,-5.9297,0.0,0.0,-5.9473,-5.9707,-6.0254,-6.0273,-6.0488,-6.0918,-6.0918,-6.1133,-6.1543,-6.1894,-6.207,-6.2187,-6.2012,-6.1894,-6.1875,-6.1348,-6.1133,-6.1211,-6.0898,-6.1074,-6.1484,-6.0508,-6.039,-6.0723,-6.0098,-5.9707,-5.9512,-5.9512,-5.9355,-5.9238,-5.9414,-5.9297,-5.9062,-5.9121,-5.8945,-5.8711,-5.8828,-5.8848,-5.8848,-5.8848,-5.8848,-5.8848,-5.8848,-5.8945,-5.9004,-5.9004,-5.9004,-5.9062,-5.918,-5.9004,-5.8906,-5.9121,-5.9004,-5.8906,-5.9121,-5.9453,-5.9648,-5.9648,-5.998,-6.0137,-5.9707,-5.9922,-6.0098,-6.0098,-6.0215,-6.0273,-6.0273,-6.0371,-6.043,-6.043,-6.043,-6.043,-6.043,-6.043,-6.0371,-6.0273,-6.0273,-6.0215,-6.0098,-6.0098,-6.0098,-6.0098,-6.0098,-6.0098,-5.0176,-5.0312,-5.0547,-5.0976,-5.1074,-5.1133,-5.1387,-5.1426,-5.1426,-5.1426,-5.1426,0.0,0.0,0.0,0.0,0.0,0.0,0.0,-5.6269,-5.6992,-5.7598,0.0,-5.8437,0.0,-5.9414,-5.9687,-5.998,0.0,-6.0215,-6.0273,-6.0683,-6.0723,-6.0918,-6.1367,-6.1367,-6.1543,-6.2012,-6.2246,-6.2246,-6.207,-6.2012,-6.1777,-6.1426,-6.1133,-6.0918,-6.0801,0.0,-6.0508,-6.0566,-5.9824,-5.9687,-5.9863,-5.9355,-5.918,-5.918,-5.918,-5.918,-5.918,-5.918,-5.918,-5.918,-5.918,-5.918,-5.918,-5.918,-5.918,-5.918,-5.918,-5.918,-5.918,-5.918,-5.918,-5.918,-5.918,-5.918,-5.918,-5.918,-5.918,-5.9238,-5.9414,-5.9473,-5.9531,-5.9707,-5.9922,-6.0098,-6.0098,-6.0449,-6.0625,-6.039,-6.039,-6.043,-6.043,-6.0605,-6.0723,-6.0723,-6.0898,-6.1015,-6.1015,-6.1015,-6.1015,-6.1015,-6.1015,-6.0898,-6.0723,-6.0723,-6.0625,-6.043,-6.043,-6.043,-6.043,-6.043,-6.043,-5.0176,-5.0527,-5.0976,-5.1348,-5.1426,-5.1426,-5.1426,-5.1426,-5.1426,-5.1426,0.0,0.0,-5.1426,0.0,-5.3379,-5.3437,0.0,-5.5976,-5.6094,-5.7129,-5.7871,-5.793,-5.8672,-5.9355,-5.9765,-5.9863,-6.0215,-6.1035,-6.0781,-6.0781,-6.1152,-6.1152,-6.1328,-6.1719,-6.1777,-6.2012,-6.2363,-6.2363,-6.2187,-6.1816,-6.2012,-6.1719,-6.1015,-6.125,-6.0957,-6.0273,-6.0273,0.0,-5.918,-5.918,-5.918,-5.918,-5.918,-5.918,-5.918,-5.918,-5.918,-5.918,-5.918,-5.918,-5.918,-5.918,-5.918,-5.918,-5.918,-5.918,-5.918,-5.918,-5.918,-5.918,-5.918,-5.918,-5.918,-5.918,-5.918,-5.918,-5.918,-5.9238,-5.9414,-5.9805,-5.9883,-5.998,-6.0371,-6.0488,-6.0508,-6.0508,-6.0898,-6.1152,-6.1152,-6.084,-6.0605,-6.0605,-6.0957,-6.1152,-6.1152,-6.1484,-6.1719,-6.1719,-6.1719,-6.1719,-6.1719,-6.1719,-6.1543,-6.1191,-6.1152,-6.0976,-6.0605,-6.0605,-6.0605,-6.0605,-6.0605,-6.0605,-5.0176,-5.0742,-5.1348,-5.1406,-5.1426,-5.1426,-5.1426,-5.1426,0.0,0.0,0.0,-5.1426,-5.1426,0.0,0.0,-5.3848,0.0,0.0,0.0,0.0,-5.7988,0.0,0.0,0.0,0.0,0.0,0.0,0.0,0.0,0.0,-6.1601,-6.1601,-6.166,-6.1719,-6.207,-6.2305,-6.2363,-6.2363,-6.2305,-6.2246,-6.125,-6.0683,-6.0547,-5.9922,-5.9531,-5.9414,-5.9414,0.0,-5.918,-5.918,-5.918,-5.918,-5.918,-5.918,-5.918,-5.918,-5.918,-5.918,-5.918,-5.918,-5.918,-5.918,-5.918,-5.918,-5.918,-5.918,-5.918,-5.918,-5.918,-5.918,-5.918,-5.918,-5.918,-5.918,-5.918,-5.918,-5.918,-5.9473,-5.9805,-6.0254,-6.0332,-6.0332,-6.043,-6.0742,-6.0976,-6.0976,-6.1328,-6.1601,-6.1601,-6.1543,-6.1484,-6.1484,-6.1543,-6.1601,-6.1601,-6.166,-6.1719,-6.1719,-6.1719,-6.1719,-6.1719,-6.1719,-6.166,-6.1601,-6.1601,-6.1543,-6.1484,-6.1484,-6.1484,-6.1484,-6.1484,-6.1484,-5.0176,-5.0801,-5.1426,-5.1426,-5.1426,-5.1543,-5.1992,0.0,0.0,0.0,0.0,-5.1699,-5.1465,0.0,0.0,0.0,0.0,0.0,0.0,0.0,0.0,0.0,0.0,0.0,0.0,0.0,0.0,0.0,0.0,0.0,-6.1719,-6.1719,-6.1836,-6.207,-6.2246,-6.2363,-6.2363,-6.2363,-6.2012,-6.1367,-6.0723,-6.0215,-5.9765,-5.9355,-5.918,-5.918,-5.918,0.0,-5.918,-5.918,-5.918,-5.918,-5.918,-5.918,-5.918,-5.918,-5.918,-5.918,-5.918,-5.918,-5.918,-5.918,-5.918,-5.918,-5.918,-5.918,-5.918,-5.918,-5.918,-5.918,-5.918,-5.918,-5.9238,-5.9473,-5.9687,-5.9824,-5.9824,-5.998,-6.0273,-6.0683,-6.0781,-6.084,-6.1074,-6.125,-6.1426,-6.1426,-6.1601,-6.1719,-6.1719,-6.1719,-6.1719,-6.1719,-6.1719,-6.1719,-6.1719,-6.1719,-6.1719,-6.1719,-6.1719,-6.1719,-6.1719,-6.1719,-6.1719,-6.1719,-6.1719,-6.1719,-6.1719,-6.1719,-6.1719,-6.1719,-6.1719,-6.1719,-5.0176,-5.0801,-5.1426,-5.1426,-5.1426,-5.1641,-5.2402,-5.2246,0.0,0.0,0.0,-5.1875,-5.1621,0.0,-5.2754,0.0,0.0,0.0,0.0,0.0,0.0,0.0,0.0,0.0,0.0,0.0,0.0,0.0,0.0,0.0,-6.1836,-6.1836,-6.207,-6.248,-6.2422,-6.2363,-6.2363,-6.207,-6.1426,-6.043,-6.0273,-5.9805,-5.918,-5.918,-5.918,-5.918,-5.918,0.0,0.0,-5.918,-5.918,-5.918,-5.918,-5.918,-5.918,-5.918,-5.918,-5.918,-5.918,-5.918,-5.918,-5.9297,-5.9238,-5.918,-5.918,-5.918,-5.918,-5.918,-5.9238,-5.9297,-5.9297,-5.9414,-5.9531,-5.9863,-6.0215,-6.0449,-6.0547,-6.0566,-6.0723,-6.1133,-6.1211,-6.1328,-6.166,-6.1719,-6.1719,-6.1719,-6.1719,-6.1719,-6.1719,-6.1719,-6.1719,-6.1719,-6.1719,-6.1719,-6.1719,-6.1719,-6.1719,-6.1719,-6.1719,-6.1719,-6.1719,-6.1719,-6.1719,-6.1719,-6.1719,-6.1719,-6.1719,-6.1719,-6.1719,-6.1719,-6.1719,-6.1719,-5.0176,-5.0801,-5.1426,-5.1426,-5.1426,-5.1562,-5.2031,0.0,0.0,0.0,-5.2051,-5.1601,-5.1953,-5.209,-5.2402,-5.3223,-5.3808,-5.4844,0.0,0.0,0.0,0.0,0.0,0.0,0.0,0.0,0.0,0.0,0.0,0.0,0.0,-6.2305,-6.2519,-6.2969,-6.2578,-6.2363,-6.2363,-6.1191,-6.0547,-6.043,-5.9648,-5.9238,-5.918,-5.918,-5.918,-5.918,-5.918,0.0,0.0,-5.918,-5.918,-5.918,-5.918,-5.918,-5.918,-5.918,-5.918,-5.918,-5.918,-5.918,-5.9238,-5.9629,-5.9473,-5.918,-5.918,-5.918,-5.918,-5.918,-5.9473,-5.9746,-5.9746,-6.0039,-6.0332,-6.0371,-6.043,-6.0547,-6.0957,-6.1035,-6.1152,-6.1601,-6.166,-6.166,-6.1719,-6.1719,-6.1719,-6.1719,-6.1719,-6.1719,-6.1719,-6.1719,-6.1719,-6.1719,-6.1719,-6.1719,-6.1719,-6.1719,-6.1719,-6.1719,-6.1719,-6.1719,-6.1719,-6.1719,-6.1719,-6.1719,-6.1719,-6.1719,-6.1719,-6.1719,-6.1719,-6.1719,-6.1719,-6.1719,-5.0254,-5.0801,-5.1426,-5.1426,-5.1621,-5.1933,-5.2363,0.0,-5.2617,-5.2695,-5.2441,-5.209,-5.1758,-5.1699,-5.1973,-5.2832,-5.334,-5.4277,-5.6172,-5.666,-5.7324,0.0,0.0,0.0,0.0,0.0,0.0,0.0,0.0,0.0,-6.2363,-6.2129,-6.2187,-6.2637,-6.1953,-6.1484,-6.1191,-6.0683,-6.0195,-5.9687,-5.9355,-5.918,-5.918,-5.918,-5.918,-5.918,-5.918,0.0,0.0,-5.918,-5.918,-5.918,-5.918,-5.918,-5.918,-5.918,-5.918,-5.9238,-5.9473,-5.957,-5.9629,-6.0039,-6.0098,-5.9922,-5.9922,-5.9922,-5.9922,-5.9922,-6.0039,-6.0195,-6.0195,-6.0508,-6.084,-6.084,-6.1015,-6.125,-6.1426,-6.1484,-6.1484,-6.166,-6.1719,-6.1719,-6.1719,-6.1719,-6.1719,-6.1719,-6.1719,-6.1719,-6.1719,-6.1719,-6.1719,-6.1719,-6.1719,-6.1719,-6.1719,-6.1719,-6.1719,-6.1719,-6.1719,-6.1719,-6.1719,-6.1719,-6.1719,-6.1719,-6.1719,-6.1719,-6.1719,-6.1719,-6.1719,-6.1719,-6.1719,-6.1719,-5.0371,-5.0801,-5.1269,-5.1406,-5.1758,-5.2187,0.0,-5.2949,-5.3164,-5.3105,-5.2793,-5.2383,-5.1894,-5.1601,-5.1719,-5.2578,-5.2969,-5.3808,-5.5664,-5.6191,-5.6933,0.0,0.0,0.0,0.0,0.0,0.0,0.0,0.0,0.0,0.0,-6.1601,-6.1601,-6.2129,-6.1328,-6.0742,-6.043,-6.0195,-5.9765,-5.918,-5.918,-5.918,-5.918,-5.918,-5.918,-5.918,-5.918,0.0,0.0,-5.918,-5.918,-5.918,-5.918,-5.918,-5.918,-5.9297,-5.9355,-5.9414,-5.9863,-5.998,-6.0039,-6.0488,-6.0625,-6.0664,-6.0781,-6.0625,-6.043,-6.043,-6.0547,-6.0664,-6.0781,-6.1035,-6.1269,-6.1269,-6.1484,-6.1719,-6.1719,-6.1719,-6.1719,-6.1719,-6.1719,-6.1719,-6.1719,-6.1719,-6.1719,-6.1719,-6.1719,-6.1719,-6.1719,-6.1719,-6.1719,-6.1719,-6.1719,-6.1719,-6.1719,-6.1719,-6.1719,-6.1719,-6.1719,-6.1719,-6.1719,-6.1719,-6.1719,-6.1719,-6.1719,-6.1719,-6.1719,-6.1719,-6.1719,-6.1719,-6.1719,-6.1719,-5.0566,-5.0801,-5.0918,-5.1328,-5.1758,-5.2187,0.0,-5.2715,-5.2969,-5.3828,-5.2988,-5.2207,-5.2617,-5.1992,-5.1719,-5.2578,-5.2715,-5.3476,-5.5625,-5.5937,-5.6582,0.0,0.0,0.0,0.0,0.0,0.0,0.0,0.0,0.0,0.0,-6.0683,-6.084,-6.1719,-6.0898,-6.043,-6.043,-5.9629,-5.918,-5.918,-5.918,-5.918,-5.918,-5.918,-5.918,0.0,0.0,0.0,0.0,-5.918,-5.918,-5.918,-5.918,-5.918,-5.9238,-5.9648,-5.9805,-5.9863,-6.0273,-6.043,-6.0488,-6.0918,-6.1094,-6.1152,-6.1601,-6.1133,-6.043,-6.043,-6.0742,-6.1191,-6.1601,-6.1719,-6.1719,-6.1719,-6.1719,-6.1719,-6.1719,-6.1719,-6.1719,-6.1719,-6.1719,-6.1719,-6.1719,-6.1719,-6.1719,-6.1719,-6.1719,-6.1719,-6.1719,-6.1719,-6.1719,-6.1719,-6.1719,-6.1719,-6.1719,-6.1719,-6.1719,-6.1719,-6.1719,-6.1719,-6.1719,-6.1719,-6.1719,-6.1719,-6.1719,-6.1719,-6.1719,-6.1719,-6.1719,-6.1719,-6.1719,-6.1719,-5.0723,-5.123,-5.1719,-5.1836,-5.2422,-5.2988,-5.3125,-5.3398,-5.3594,-5.3574,-5.3242,-5.291,-5.2734,-5.2246,-5.2148,-5.3008,-5.291,-5.3359,-5.5234,-5.5508,0.0,0.0,0.0,0.0,0.0,0.0,0.0,0.0,0.0,0.0,0.0,-5.998,-5.998,-6.0801,-6.0039,-5.959,-5.959,-5.9297,-5.918,-5.918,-5.918,-5.918,-5.918,-5.918,-5.918,0.0,0.0,-5.918,-5.918,-5.918,-5.918,-5.9238,-5.9512,-5.9629,-5.9648,-6.0098,-6.0254,-6.0312,-6.0742,-6.0898,-6.0957,-6.1367,-6.1543,-6.1543,-6.166,-6.1543,-6.1308,-6.1308,-6.1426,-6.1543,-6.166,-6.1719,-6.1719,-6.1719,-6.1719,-6.1719,-6.1719,-6.1719,-6.1719,-6.1719,-6.1719,-6.1719,-6.1719,-6.1719,-6.1719,-6.1719,-6.1719,-6.1719,-6.1719,-6.1719,-6.1719,-6.1719,-6.1719,-6.1719,-6.1719,-6.1719,-6.1719,-6.1719,-6.1719,-6.1719,-6.1719,-6.1719,-6.1719,-6.1719,-6.1719,-6.1719,-6.1719,-6.1719,-6.1719,-6.1719,-6.1719,-6.1719,-5.0762,-5.1191,-5.168,-5.2012,-5.2598,-5.3164,-5.332,-5.3711,-5.3945,-5.3672,-5.3476,-5.3281,-5.3008,-5.2598,-5.2539,-5.3242,-5.3125,-5.3555,-5.5293,0.0,0.0,0.0,0.0,0.0,0.0,0.0,0.0,0.0,0.0,0.0,0.0,-5.9473,-5.9414,-5.9922,-5.9473,-5.918,-5.918,-5.918,-5.918,-5.918,-5.918,-5.918,-5.918,-5.918,-5.918,0.0,0.0,-5.918,0.0,-5.918,-5.9297,-5.9453,-5.9707,-5.9922,-6.0098,-6.0508,-6.0683,-6.0742,-6.1191,-6.1328,-6.1367,-6.166,-6.1719,-6.1719,-6.1719,-6.1719,-6.1719,-6.1719,-6.1719,-6.1719,-6.1719,-6.1719,-6.1719,-6.1719,-6.1719,-6.1719,-6.1719,-6.1719,-6.1719,-6.1719,-6.1719,-6.1719,-6.1719,-6.1719,-6.1719,-6.1719,-6.1719,-6.1719,-6.1719,-6.1719,-6.1719,-6.1719,-6.1719,-6.1719,-6.1719,-6.1719,-6.1719,-6.1719,-6.1719,-6.1719,-6.1719,-6.1719,-6.1719,-6.1719,-6.1719,-6.1719,-6.1719,-6.1719,-6.1719,-6.1719,-6.1719,-6.1719,0.0,-5.082,-5.1094,-5.1914,-5.2441,-5.2871,-5.332,-5.373,0.0,-5.4023,-5.3691,-5.3398,-5.3359,-5.3027,-5.2891,-5.3301,-5.3379,-5.4004,-5.5703,-5.5644,0.0,0.0,0.0,0.0,0.0,0.0,0.0,0.0,0.0,0.0,0.0,-5.918,-5.918,-5.918,-5.918,-5.918,-5.918,-5.918,-5.918,-5.918,-5.918,-5.918,-5.918,-5.918,-5.918,0.0,-5.918,-5.918,-5.9238,-5.9238,-5.9473,-5.9863,-5.9883,-6.0156,-6.0547,-6.0976,-6.1133,-6.1191,-6.1601,-6.1719,-6.1719,-6.1719,-6.1719,-6.1719,-6.1719,-6.1719,-6.1719,-6.1719,-6.1719,-6.1719,-6.1719,-6.1719,-6.1719,-6.1719,-6.1719,-6.1719,-6.1719,-6.1719,-6.1719,-6.1719,-6.1719,-6.1719,-6.1719,-6.1719,-6.1719,-6.1719,-6.1719,-6.1719,-6.1719,-6.1719,-6.1719,-6.1719,-6.1719,-6.1719,-6.1719,-6.1719,-6.1719,-6.1719,-6.1719,-6.1719,-6.1719,-6.1719,-6.1719,-6.1719,-6.1719,-6.1719,-6.1719,-6.1719,-6.1719,-6.1719,-6.1719,-6.1719,-5.0215,0.0,-5.1914,-5.2422,-5.2891,-5.332,0.0,-5.3945,-5.4023,-5.4023,-5.3945,-5.3769,-5.3418,-5.3281,-5.3242,-5.334,-5.3652,-5.4355,-5.5742,-5.6406,0.0,0.0,0.0,0.0,0.0,0.0,0.0,0.0,0.0,0.0,0.0,-5.918,-5.918,-5.918,-5.918,-5.918,-5.918,-5.918,-5.918,-5.918,-5.918,-5.918,-5.918,-5.918,-5.918,0.0,-5.918,-5.9355,-5.9648,-5.9648,-5.9922,-6.0332,-6.0664,-6.0859,-6.0976,-6.1426,-6.1543,-6.1601,-6.166,-6.1719,-6.1719,-6.1719,-6.1719,-6.1719,-6.1719,-6.1719,-6.1719,-6.1719,-6.1719,-6.1719,-6.1719,-6.1719,-6.1719,-6.1719,-6.1719,-6.1719,-6.1719,-6.1719,-6.1719,-6.1719,-6.1719,-6.1719,-6.1719,-6.1719,-6.1719,-6.1719,-6.1719,-6.1719,-6.1719,-6.1719,-6.1719,-6.1719,-6.1719,-6.1719,-6.1719,-6.1719,-6.1719,-6.1719,-6.1719,-6.1719,-6.1719,-6.1719,-6.1719,-6.1719,-6.1719,-6.1719,-6.1719,-6.1719,-6.1719,-6.1719,-6.1719,-6.1719,-5.0293,-5.1113,-5.1933,-5.2558,-5.2734,-5.2988,-5.3828,-5.3867,-5.3789,-5.3984,-5.3867,-5.3769,-5.3945,-5.3633,-5.3496,-5.3906,-5.4004,-5.4473,-5.5762,-5.7363,-5.8711,-5.9453,0.0,0.0,0.0,0.0,0.0,0.0,0.0,0.0,0.0,-5.918,-5.918,-5.918,-5.918,-5.918,-5.918,-5.918,-5.918,-5.918,-5.918,-5.918,-5.918,-5.918,-5.918,0.0,-5.9414,-5.959,-5.9805,-6.0039,-6.0332,-6.0742,-6.0976,-6.1211,-6.1426,-6.166,-6.1719,-6.1719,-6.1719,-6.1719,-6.1719,-6.1719,-6.1719,-6.1719,-6.1719,-6.1719,-6.1719,-6.1719,-6.1719,-6.1719,-6.1719,-6.1719,-6.1719,-6.1719,-6.1719,-6.1719,-6.1719,-6.1719,-6.1719,-6.1719,-6.1719,-6.1719,-6.1719,-6.1719,-6.1719,-6.1719,-6.1719,-6.1719,-6.1719,-6.1719,-6.1719,-6.1719,-6.1719,-6.1719,-6.1719,-6.1719,-6.1719,-6.1719,-6.1719,-6.1719,-6.1719,-6.1719,-6.1719,-6.1719,-6.1719,-6.1719,-6.1719,-6.1719,-6.1719,-6.1719,-6.1719,-6.1719,-5.0508,-5.1113,-5.1719,-5.2519,-5.2441,-5.25,-5.375,-5.373,-5.3555,-5.3867,-5.3672,-5.3652,-5.4258,-5.3926,-5.3808,-5.4551,-5.459,-5.4902,-5.5976,-5.8027,-5.9277,-5.8887,0.0,0.0,0.0,0.0,0.0,0.0,0.0,0.0,0.0,-5.918,-5.918,-5.918,-5.918,-5.918,-5.918,-5.918,-5.918,-5.918,-5.918,-5.918,-5.918,-5.918,-5.9238,-5.9297,0.0,0.0,-6.0039,-6.039,-6.0801,-6.1191,-6.1191,-6.1387,-6.1719,-6.1719,-6.1719,-6.1719,-6.1719,-6.1719,-6.1719,-6.1719,-6.1719,-6.1719,-6.1719,-6.1719,-6.1719,-6.1719,-6.1719,-6.1719,-6.1719,-6.1719,-6.1719,-6.1719,-6.1719,-6.1719,-6.1719,-6.1719,-6.1719,-6.1719,-6.1719,-6.1719,-6.1719,-6.1719,-6.1719,-6.1719,-6.1719,-6.1719,-6.1719,-6.1719,-6.1719,-6.1719,-6.1719,-6.1719,-6.1719,-6.1719,-6.1719,-6.1719,-6.1719,-6.1719,-6.1719,-6.1719,-6.1719,-6.1719,-6.1719,-6.1719,-6.1719,-6.1719,-6.1719,-6.1719,-6.1719,-6.1719,-5.0234,-5.1113,-5.2109,-5.2598,-5.2656,-5.2851,-5.3808,-5.3965,-5.3848,-5.3535,-5.3711,-5.373,-5.3125,-5.3828,-5.4512,-5.4668,-5.582,-5.6797,0.0,0.0,0.0,0.0,0.0,0.0,0.0,0.0,0.0,0.0,0.0,0.0,0.0,-5.918,-5.918,-5.918,-5.918,-5.918,-5.918,-5.918,-5.918,-5.918,-5.918,-5.918,-5.918,-5.918,-5.9355,-5.9707,0.0,-6.0215,-6.0918,-6.0976,-6.125,-6.1601,-6.1601,-6.166,-6.1719,-6.1719,-6.1719,-6.1719,-6.1719,-6.1719,-6.1719,-6.1719,-6.1719,-6.1719,-6.1719,-6.1719,-6.1719,-6.1719,-6.1719,-6.1719,-6.1719,-6.1719,-6.1719,-6.1719,-6.1719,-6.1719,-6.1719,-6.1719,-6.1719,-6.1719,-6.1719,-6.1719,-6.1719,-6.1719,-6.1719,-6.1719,-6.1719,-6.1719,-6.1719,-6.1719,-6.1719,-6.1719,-6.1719,-6.1719,-6.1719,-6.1719,-6.1719,-6.1719,-6.1719,-6.1719,-6.1719,-6.1719,-6.1719,-6.1719,-6.1719,-6.1719,-6.1719,-6.1719,-6.1719,-6.1719,-6.1719,-6.1719,-5.0117,-5.0937,-5.1894,-5.2539,-5.2715,-5.2949,-5.3828,-5.3848,-5.375,-5.4023,-5.4043,-5.3984,-5.3808,-5.4082,-5.4336,-5.4336,0.0,0.0,0.0,0.0,0.0,0.0,0.0,0.0,0.0,0.0,0.0,0.0,0.0,0.0,0.0,0.0,-5.918,-5.918,-5.918,-5.918,-5.918,-5.918,-5.918,-5.918,-5.918,-5.918,-5.918,-5.9414,-5.9629,-5.9824,0.0,-6.0742,-6.1094,-6.1328,-6.1543,-6.1719,-6.1719,-6.1719,-6.1719,-6.1719,-6.1719,-6.1719,-6.1719,-6.1719,-6.1719,-6.1719,-6.1719,-6.1719,-6.1719,-6.1719,-6.1719,-6.1719,-6.1719,-6.1719,-6.1719,-6.1719,-6.1719,-6.1719,-6.1719,-6.1719,-6.1719,-6.1719,-6.1719,-6.1719,-6.1719,-6.1719,-6.1719,-6.1719,-6.1719,-6.1719,-6.1719,-6.1719,-6.1719,-6.1719,-6.1719,-6.1719,-6.1719,-6.1719,-6.1719,-6.1719,-6.1719,-6.1719,-6.1719,-6.1719,-6.1719,-6.1719,-6.1719,-6.1719,-6.1719,-6.1719,-6.1719,-6.1719,-6.1719,-6.1719,-6.1719,-6.1719,-5.0098,-5.0937,-5.1894,-5.2539,-5.2871,-5.3203,-5.3867,-5.3926,-5.3945,-5.4433,-5.4414,-5.4433,-5.4765,-5.4726,0.0,-5.4355,0.0,0.0,0.0,0.0,0.0,0.0,0.0,0.0,0.0,0.0,0.0,0.0,0.0,0.0,0.0,0.0,-5.918,-5.918,-5.918,-5.918,-5.918,-5.918,-5.918,-5.918,-5.9297,-5.9355,-5.9355,-5.9765,-6.0039,-6.0156,-6.0801,-6.1152,-6.125,-6.1601,-6.1719,-6.1719,-6.1719,-6.1719,-6.1719,-6.1719,-6.1719,-6.1719,-6.1719,-6.1719,-6.1719,-6.1719,-6.1719,-6.1719,-6.1719,-6.1719,-6.1719,-6.1719,-6.1719,-6.1719,-6.1719,-6.1719,-6.1719,-6.1719,-6.1719,-6.1719,-6.1719,-6.1719,-6.1719,-6.1719,-6.1719,-6.1719,-6.1719,-6.1719,-6.1719,-6.1719,-6.1719,-6.1719,-6.1719,-6.1719,-6.1719,-6.1719,-6.1719,-6.1719,-6.1719,-6.1719,-6.1719,-6.1719,-6.1719,-6.1719,-6.1719,-6.1719,-6.1719,-6.1719,-6.1719,-6.1719,-6.1719,-6.1719,-6.1719,-6.1719,-6.1719,-6.1719,-5.0176,-5.1367,-5.2637,-5.2695,-5.332,-5.3945,-5.4023,-5.4609,-5.4961,-5.4219,-5.4687,-5.5234,-5.5254,-5.5879,0.0,0.0,0.0,0.0,0.0,0.0,0.0,0.0,0.0,0.0,0.0,0.0,0.0,0.0,0.0,0.0,0.0,-5.918,-5.918,-5.918,-5.918,-5.918,-5.918,-5.918,-5.918,-5.918,-5.959,-5.9765,-5.9765,-6.0215,-6.0605,-6.0976,-6.1074,-6.1308,-6.166,-6.1719,-6.1719,-6.1719,-6.1719,-6.1719,-6.1719,-6.1719,-6.1719,-6.1719,-6.1719,-6.1719,-6.1719,-6.1719,-6.1719,-6.1719,-6.1719,-6.1719,-6.1719,-6.1719,-6.1719,-6.1719,-6.1719,-6.1719,-6.1719,-6.1719,-6.1719,-6.1719,-6.1719,-6.1719,-6.1719,-6.1719,-6.1719,-6.1719,-6.1719,-6.1719,-6.1719,-6.1719,-6.1719,-6.1719,-6.1719,-6.1719,-6.1719,-6.1719,-6.1719,-6.1719,-6.1719,-6.1719,-6.1719,-6.1719,-6.1719,-6.1719,-6.1719,-6.1719,-6.1719,-6.1719,-6.1719,-6.1719,-6.1719,-6.1719,-6.1719,-6.1719,-6.1719,-6.1719,-5.082,-5.2012,-5.3183,-5.3457,-5.4375,-5.5,-5.4219,-5.4492,-5.5058,-5.5527,-5.5664,-5.5781,-5.6055,0.0,0.0,0.0,0.0,0.0,0.0,0.0,0.0,0.0,0.0,0.0,0.0,0.0,0.0,0.0,0.0,0.0,0.0,-5.918,-5.918,-5.918,-5.918,-5.918,-5.918,-5.9453,-5.957,-5.957,-5.9746,-5.9922,-6.0215,-6.0625,-6.0918,-6.1094,-6.1367,-6.1543,-6.1719,-6.1719,-6.1719,-6.1719,-6.1719,-6.1719,-6.1719,-6.1719,-6.1719,-6.1719,-6.1719,-6.1719,-6.1719,-6.1719,-6.1719,-6.1719,-6.1719,-6.1719,-6.1719,-6.1719,-6.1719,-6.1719,-6.1719,-6.1719,-6.1719,-6.1719,-6.1719,-6.1719,-6.1719,-6.1719,-6.1719,-6.1719,-6.1719,-6.1719,-6.1719,-6.1719,-6.1719,-6.1719,-6.1719,-6.1719,-6.1719,-6.1719,-6.1719,-6.1719,-6.1719,-6.1719,-6.1719,-6.1719,-6.1719,-6.1719,-6.1719,-6.1719,-6.1719,-6.1719,-6.1719,-6.1719,-6.1719,-6.1719,-6.1719,-6.1719,-6.1719,-6.1719,-6.1719,-6.1719,-5.1269,-5.2578,-5.3848,-5.416,-5.5098,-5.5664,-5.4668,-5.4883,-5.5488,-5.623,-5.6582,-5.6797,-5.6953,-5.6172,0.0,0.0,0.0,0.0,0.0,0.0,0.0,0.0,0.0,0.0,0.0,0.0,0.0,0.0,0.0,0.0,0.0,-5.918,-5.918,-5.918,-5.918,-5.9238,-5.9355,-5.9648,-5.9941,-6.0215,-6.0215,-6.0371,-6.0664,-6.1094,-6.1269,-6.1308,-6.1601,-6.1719,-6.1719,-6.1719,-6.1719,-6.1719,-6.1719,-6.1719,-6.1719,-6.1719,-6.1719,-6.1719,-6.1719,-6.1719,-6.1719,-6.1719,-6.1719,-6.1719,-6.1719,-6.1719,-6.1719,-6.1719,-6.1719,-6.1719,-6.1719,-6.1719,-6.1719,-6.1719,-6.1719,-6.1719,-6.1719,-6.1719,-6.1719,-6.1719,-6.1719,-6.1719,-6.1719,-6.1719,-6.1719,-6.1719,-6.1719,-6.1719,-6.1719,-6.1719,-6.1719,-6.1719,-6.1719,-6.1719,-6.1719,-6.1719,-6.1719,-6.1719,-6.1719,-6.1719,-6.1719,-6.1719,-6.1719,-6.1719,-6.1719,-6.1719,-6.1719,-6.1719,-6.1719,-6.1719,-6.1719,-6.1719,-5.1445,-5.3027,-5.4687,-5.4687,-5.5312,-5.584,-5.541,-5.5976,-5.6484,-5.6055,-5.7344,-5.8418,-5.793,-5.75,0.0,0.0,0.0,0.0,0.0,0.0,0.0,0.0,0.0,0.0,0.0,0.0,0.0,0.0,0.0,0.0,0.0,-5.918,-5.918,-5.918,-5.918,-5.9414,-5.9805,-5.9805,-6.0215,-6.1094,-6.1094,-6.1094,-6.1094,-6.1543,-6.1719,-6.1719,-6.1719,-6.1719,-6.1719,-6.1719,-6.1719,-6.1719,-6.1719,-6.1719,-6.1719,-6.1719,-6.1719,-6.1719,-6.1719,-6.1719,-6.1719,-6.1719,-6.1719,-6.1719,-6.1719,-6.1719,-6.1719,-6.1719,-6.1719,-6.1719,-6.1719,-6.1719,-6.1719,-6.1719,-6.1719,-6.1719,-6.1719,-6.1719,-6.1719,-6.1719,-6.1719,-6.1719,-6.1719,-6.1719,-6.1719,-6.1719,-6.1719,-6.1719,-6.1719,-6.1719,-6.1719,-6.1719,-6.1719,-6.1719,-6.1719,-6.1719,-6.1719,-6.1719,-6.1719,-6.1719,-6.1719,-6.1719,-6.1719,-6.1719,-6.1719,-6.1719,-6.1719,-6.1719,-6.1719,-6.1719,-6.1719,-6.1719,-5.2461,-5.3711,-5.4824,-5.541,-5.5976,-5.6367,-5.623,-5.6875,-5.7539,-5.7715,-5.8652,-5.9004,-5.7656,-5.7305,0.0,0.0,0.0,0.0,0.0,0.0,0.0,0.0,0.0,0.0,0.0,0.0,0.0,0.0,0.0,0.0,0.0,-5.918,-5.918,-5.918,-5.918,-5.9414,-5.9805,-6.0098,-6.0547,-6.1094,-6.1367,-6.1543,-6.1543,-6.166,-6.1719,-6.1719,-6.1719,-6.1719,-6.1719,-6.1719,-6.1719,-6.1719,-6.1719,-6.1719,-6.1719,-6.1719,-6.1719,-6.1719,-6.1719,-6.1719,-6.1719,-6.1719,-6.1719,-6.1719,-6.1719,-6.1719,-6.1719,-6.1719,-6.1719,-6.1719,-6.1719,-6.1719,-6.1719,-6.1719,-6.1719,-6.1719,-6.1719,-6.1719,-6.1719,-6.1719,-6.1719,-6.1719,-6.1719,-6.1719,-6.1719,-6.1719,-6.1719,-6.1719,-6.1719,-6.1719,-6.1719,-6.1719,-6.1719,-6.1719,-6.1719,-6.1719,-6.1719,-6.1719,-6.1719,-6.1719,-6.1719,-6.1719,-6.1719,-6.1719,-6.1719,-6.1719,-6.1719,-6.1719,-6.1719,-6.1719,-6.1719,-6.1719,-5.3516,-5.4648,-5.5605,-5.6269,-5.664,-5.6933,-5.7285,0.0,0.0,0.0,-5.8945,-5.9238,-5.8203,0.0,0.0,0.0,0.0,0.0,0.0,0.0,0.0,0.0,0.0,0.0,0.0,0.0,0.0,0.0,0.0,0.0,0.0,-5.918,-5.918,-5.918,-5.9355,-5.9629,-6.0039,-6.0488,-6.0898,-6.1328,-6.1601,-6.1719,-6.1719,-6.1719,-6.1719,-6.1719,-6.1719,-6.1719,-6.1719,-6.1719,-6.1719,-6.1719,-6.1719,-6.1719,-6.1719,-6.1719,-6.1719,-6.1719,-6.1719,-6.1719,-6.1719,-6.1719,-6.1719,-6.1719,-6.1719,-6.1719,-6.1719,-6.1719,-6.1719,-6.1719,-6.1719,-6.1719,-6.1719,-6.1719,-6.1719,-6.1719,-6.1719,-6.1719,-6.1719,-6.1719,-6.1719,-6.1719,-6.1719,-6.1719,-6.1719,-6.1719,-6.1719,-6.1719,-6.1719,-6.1719,-6.1719,-6.1719,-6.1719,-6.1719,-6.1719,-6.1719,-6.1719,-6.1719,-6.1719,-6.1719,-6.1719,-6.1719,-6.1719,-6.1719,-6.1719,-6.1719,-6.1719,-6.1719,-6.1719,-6.1719,-6.1719,-6.1719,-5.4414,-5.5625,-5.668,-5.7109,-5.7246,0.0,0.0,0.0,0.0,0.0,0.0,-5.918,-5.9121,0.0,0.0,0.0,0.0,0.0,0.0,0.0,0.0,0.0,0.0,0.0,0.0,0.0,0.0,0.0,0.0,0.0,0.0,-5.918,-5.918,-5.9238,-5.9629,-6.0039,-6.0488,-6.0898,-6.1308,-6.1719,-6.1719,-6.1719,-6.1719,-6.1719,-6.1719,-6.1719,-6.1719,-6.1719,-6.1719,-6.1719,-6.1719,-6.1719,-6.1719,-6.1719,-6.1719,-6.1719,-6.1719,-6.1719,-6.1719,-6.1719,-6.1719,-6.1719,-6.1719,-6.1719,-6.1719,-6.1719,-6.1719,-6.1719,-6.1719,-6.1719,-6.1719,-6.1719,-6.1719,-6.1719,-6.1719,-6.1719,-6.1719,-6.1719,-6.1719,-6.1719,-6.1719,-6.1719,-6.1719,-6.1719,-6.1719,-6.1719,-6.1719,-6.1719,-6.1719,-6.1719,-6.1719,-6.1719,-6.1719,-6.1719,-6.1719,-6.1719,-6.1719,-6.1719,-6.1719,-6.1719,-6.1719,-6.1719,-6.1719,-6.1719,-6.1719,-6.1719,-6.1719,-6.1719,-6.1719,-6.1719,-6.1719,-6.1719,-5.4258,-5.5625,-5.668,0.0,-5.748,-5.7598,0.0,0.0,0.0,0.0,0.0,0.0,0.0,0.0,0.0,0.0,0.0,0.0,0.0,0.0,0.0,0.0,0.0,0.0,0.0,0.0,0.0,0.0,0.0,0.0,-5.918,-5.918,-5.9355,-5.9648,-5.9746,-6.0156,-6.0957,-6.1035,-6.1308,-6.1719,-6.1719,-6.1719,-6.1719,-6.1719,-6.1719,-6.1719,-6.1719,-6.1719,-6.1719,-6.1719,-6.1719,-6.1719,-6.1719,-6.1719,-6.1719,-6.1719,-6.1719,-6.1719,-6.1719,-6.1719,-6.1719,-6.1719,-6.1719,-6.1719,-6.1719,-6.1719,-6.1719,-6.1719,-6.1719,-6.1719,-6.1719,-6.1719,-6.1719,-6.1719,-6.1719,-6.1719,-6.1719,-6.1719,-6.1719,-6.1719,-6.1719,-6.1719,-6.1719,-6.1719,-6.1719,-6.1719,-6.1719,-6.1719,-6.1719,-6.1719,-6.1719,-6.1719,-6.1719,-6.1719,-6.1719,-6.1719,-6.1719,-6.1719,-6.1719,-6.1719,-6.1719,-6.1719,-6.1719,-6.1719,-6.1719,-6.1719,-6.1719,-6.1719,-6.1719,-6.1719,-6.1719,-6.1719,-5.4512,-5.5605,0.0,-5.6797,0.0,-5.7383,-5.6738,-5.7793,0.0,0.0,0.0,0.0,0.0,0.0,0.0,0.0,0.0,0.0,0.0,0.0,0.0,0.0,0.0,0.0,0.0,0.0,0.0,0.0,0.0,-5.8887,-5.8887,-5.9062,-5.9355,-5.9805,-5.998,-6.043,-6.1094,-6.1308,-6.1484,-6.1719,-6.1719,-6.1719,-6.1719,-6.1719,-6.1719,-6.1719,-6.1719,-6.1719,-6.1719,-6.1719,-6.1719,-6.1719,-6.1719,-6.1719,-6.1719,-6.1719,-6.1719,-6.1719,-6.1719,-6.1719,-6.1719,-6.1719,-6.1719,-6.1719,-6.1719,-6.1719,-6.1719,-6.1719,-6.1719,-6.1719,-6.1719,-6.1719,-6.1719,-6.1719,-6.1719,-6.1719,-6.1719,-6.1719,-6.1719,-6.1719,-6.1719,-6.1719,-6.1719,-6.1719,-6.1719,-6.1719,-6.1719,-6.1719,-6.1719,-6.1719,-6.1719,-6.1719,-6.1719,-6.1719,-6.1719,-6.1719,-6.1719,-6.1719,-6.1719,-6.1719,-6.1719,-6.1719,-6.1719,-6.1719,-6.1719,-6.1719,-6.1719,-6.1719,-6.1719,-6.1719,-6.1953,-6.2012,-5.459,-5.5566,-5.6172,-5.668,-5.707,0.0,-5.6699,-5.7656,-5.8476,0.0,0.0,0.0,0.0,0.0,0.0,0.0,0.0,0.0,0.0,0.0,0.0,0.0,0.0,0.0,0.0,0.0,0.0,0.0,0.0,-5.8535,-5.8535,-5.9004,-5.9473,-5.9922,-6.0332,-6.0742,-6.1191,-6.1543,-6.1719,-6.1719,-6.1719,-6.1719,-6.1719,-6.1719,-6.1719,-6.1719,-6.1719,-6.1719,-6.1719,-6.1719,-6.1719,-6.1719,-6.1719,-6.1719,-6.1719,-6.1719,-6.1719,-6.1719,-6.1719,-6.1719,-6.1719,-6.1719,-6.1719,-6.1719,-6.1719,-6.1719,-6.1719,-6.1719,-6.1719,-6.1719,-6.1719,-6.1719,-6.1719,-6.1719,-6.1719,-6.1719,-6.1719,-6.1719,-6.1719,-6.1719,-6.1719,-6.1719,-6.1719,-6.1719,-6.1719,-6.1719,-6.1719,-6.1719,-6.1719,-6.1719,-6.1719,-6.1719,-6.1719,-6.1719,-6.1719,-6.1719,-6.1719,-6.1719,-6.1719,-6.1758,-6.1836,-6.1836,-6.1875,-6.1933,-6.1875,-6.1875,-6.1933,-6.1933,-6.1933,-6.1953,-6.2305,-6.248,-5.3633,-5.5332,-5.668,-5.75,-5.7734,-5.7558,0.0,0.0,-5.8848,0.0,0.0,0.0,0.0,0.0,0.0,0.0,0.0,0.0,0.0,0.0,0.0,0.0,0.0,0.0,0.0,0.0,0.0,0.0,-5.8027,-5.8535,-5.8535,-5.9297,-5.9922,-6.0332,-6.0781,-6.1191,-6.1601,-6.1699,-6.1719,-6.1719,-6.1719,-6.1719,-6.1719,-6.1719,-6.1719,-6.1719,-6.1719,-6.1719,-6.1719,-6.1719,-6.1719,-6.1719,-6.1719,-6.1719,-6.1719,-6.1719,-6.1719,-6.1719,-6.1719,-6.1719,-6.1719,-6.1719,-6.1719,-6.1719,-6.1719,-6.1719,-6.1719,-6.1719,-6.1719,-6.1719,-6.1719,-6.1719,-6.1719,-6.1719,-6.1719,-6.1719,-6.1719,-6.1719,-6.1719,-6.1719,-6.1719,-6.1719,-6.1719,-6.1719,-6.1719,-6.1719,-6.1719,-6.1719,-6.1719,-6.1719,-6.1719,-6.1719,-6.1719,-6.1719,-6.1719,-6.1719,-6.1719,-6.1719,-6.1719,-6.1894,-6.2246,-6.2305,-6.2461,-6.2851,-6.248,-6.248,-6.2871,-6.2871,-6.2871,-6.2871,-6.293,-6.293,-5.4023,-5.5469,-5.6426,-5.7285,-5.7676,-5.7637,-5.6777,-5.7734,-5.8711,0.0,0.0,0.0,0.0,0.0,0.0,0.0,0.0,0.0,0.0,0.0,0.0,0.0,0.0,0.0,0.0,0.0,0.0,0.0,-5.7793,-5.8262,-5.8535,-5.9355,-5.998,-6.043,-6.0859,-6.1308,-6.1719,-6.1719,-6.1719,-6.1719,-6.1719,-6.1719,-6.1719,-6.1719,-6.1719,-6.1719,-6.1719,-6.1719,-6.1719,-6.1719,-6.1719,-6.1719,-6.1719,-6.1719,-6.1719,-6.1719,-6.1719,-6.1719,-6.1719,-6.1719,-6.1719,-6.1719,-6.1719,-6.1719,-6.1719,-6.1719,-6.1719,-6.1719,-6.1719,-6.1719,-6.1719,-6.1719,-6.1719,-6.1719,-6.1719,-6.1719,-6.1719,-6.1719,-6.1719,-6.1719,-6.1719,-6.1719,-6.1719,-6.1719,-6.1719,-6.1719,-6.1719,-6.1719,-6.1719,-6.1719,-6.1719,-6.1719,-6.1719,-6.1719,-6.1719,-6.1719,-6.1836,-6.207,-6.207,-6.2285,-6.2715,-6.2754,-6.293,-6.3398,-6.2988,-6.2812,-6.3027,-6.3027,-6.3027,-6.3047,-6.3281,-6.3398,-5.4141,-5.5195,-5.584,-5.6816,-5.7461,-5.7656,-5.6914,0.0,0.0,0.0,0.0,0.0,0.0,0.0,0.0,0.0,0.0,0.0,0.0,0.0,0.0,0.0,0.0,0.0,0.0,0.0,0.0,0.0,-5.7715,-5.8183,-5.8535,-5.9355,-5.998,-6.043,-6.0859,-6.1308,-6.1719,-6.1719,-6.1719,-6.1719,-6.1719,-6.1719,-6.1719,-6.1719,-6.1719,-6.1719,-6.1719,-6.1719,-6.1719,-6.1719,-6.1719,-6.1719,-6.1719,-6.1719,-6.1719,-6.1719,-6.1719,-6.1719,-6.1719,-6.1719,-6.1719,-6.1719,-6.1719,-6.1719,-6.1719,-6.1719,-6.1719,-6.1719,-6.1719,-6.1719,-6.1719,-6.1719,-6.1699,-6.1601,-6.166,-6.1719,-6.1719,-6.1719,-6.1719,-6.1719,-6.1719,-6.1719,-6.1719,-6.1719,-6.1719,-6.1719,-6.1719,-6.1719,-6.1719,-6.1719,-6.1719,-6.1719,-6.1719,-6.1719,-6.1719,-6.1836,-6.2012,-6.2363,-6.248,-6.2754,-6.3164,-6.3203,-6.3398,-6.3848,-6.3515,-6.3379,-6.3379,-6.3379,-6.3379,-6.3379,-6.3691,-6.3848,-5.3203,-5.4082,-5.5039,-5.6308,-5.7246,-5.7734,-5.7285,0.0,0.0,0.0,0.0,0.0,0.0,0.0,0.0,0.0,0.0,0.0,0.0,0.0,0.0,0.0,0.0,0.0,0.0,0.0,0.0,0.0,-5.8008,-5.8535,-5.8535,-5.9355,-5.998,-6.043,-6.0859,-6.1308,-6.1719,-6.1719,-6.1719,-6.1719,-6.1719,-6.1719,-6.1719,-6.1719,-6.1719,-6.1719,-6.1719,-6.1719,-6.1719,-6.1719,-6.1719,-6.1719,-6.1719,-6.1719,-6.1719,-6.1719,-6.1719,-6.1719,-6.1719,-6.1719,-6.1719,-6.1719,-6.1719,-6.1719,-6.1719,-6.1719,-6.1719,-6.1719,-6.1719,-6.1719,-6.1719,-6.1719,-6.1601,-6.1211,-6.1426,-6.1719,-6.1719,-6.1719,-6.1719,-6.1719,-6.1719,-6.1719,-6.1719,-6.1719,-6.1719,-6.1719,-6.1719,-6.1719,-6.1719,-6.1719,-6.1719,-6.1719,-6.1719,-6.1719,-6.1719,-6.207,-6.2363,-6.2363,-6.2754,-6.3203,-6.3633,-6.3633,-6.3848,-6.4258,-6.4258,-6.4258,-6.4258,-6.4258,-6.4258,-6.4258,-6.4258,-6.4258,-5.3476,-5.4023,-5.4629,-5.6191,-5.6816,-5.707,-5.7187,-5.7793,0.0,0.0,0.0,0.0,0.0,0.0,0.0,0.0,0.0,0.0,0.0,0.0,0.0,0.0,0.0,0.0,0.0,0.0,0.0,0.0,-5.8027,-5.8535,-5.8535,-5.957,-6.0273,-6.043,-6.1133,-6.1543,-6.1719,-6.1719,-6.1719,-6.1719,-6.1719,-6.1719,-6.1719,-6.1719,-6.1719,-6.1719,-6.1719,-6.1719,-6.1719,-6.1719,-6.1719,-6.1719,-6.1719,-6.1719,-6.1719,-6.1719,-6.1719,-6.1719,-6.1719,-6.1719,-6.1719,-6.1719,-6.1719,-6.1719,-6.1719,-6.1719,-6.166,-6.1367,-6.1308,-6.1308,-6.1308,-6.1094,-6.0918,-6.1074,-6.1211,-6.1367,-6.166,-6.1719,-6.1719,-6.1719,-6.1719,-6.1719,-6.1719,-6.1719,-6.1719,-6.1719,-6.1719,-6.1719,-6.1719,-6.1719,-6.1719,-6.1719,-6.1953,-6.2129,-6.2129,-6.2539,-6.293,-6.3183,-6.334,-6.3633,-6.4082,-6.4082,-6.414,-6.4316,-6.4316,-6.4316,-6.4316,-6.4316,-6.4316,-6.4316,-6.4316,-6.4316,-5.3262,-5.3691,-5.4141,-5.5586,-5.6269,-5.6699,-5.7109,0.0,0.0,0.0,0.0,0.0,0.0,0.0,0.0,0.0,0.0,0.0,0.0,0.0,0.0,0.0,0.0,0.0,0.0,0.0,0.0,-5.7461,-5.8242,0.0,-5.8769,-5.9687,-6.0371,-6.0664,-6.1367,-6.1719,-6.1719,-6.1719,-6.1719,-6.1719,-6.1719,-6.1719,-6.1719,-6.1719,-6.1719,-6.1719,-6.1719,-6.1719,-6.1719,-6.1719,-6.1719,-6.1719,-6.1719,-6.1719,-6.1719,-6.1719,-6.1719,-6.1719,-6.1719,-6.1719,-6.1719,-6.1719,-6.1719,-6.1719,-6.1719,-6.1601,-6.1426,-6.1152,-6.0976,-6.0859,-6.0859,-6.0547,-6.0371,-6.0957,-6.0976,-6.1015,-6.1601,-6.1719,-6.1719,-6.1719,-6.1719,-6.1719,-6.1719,-6.1719,-6.1719,-6.1719,-6.1719,-6.1719,-6.1719,-6.1719,-6.1777,-6.1894,-6.2187,-6.2422,-6.2578,-6.2988,-6.3379,-6.3672,-6.3808,-6.4023,-6.4316,-6.4316,-6.4316,-6.4316,-6.4316,-6.4316,-6.4316,-6.4316,-6.4316,-6.4316,-6.4316,-6.4316,0.0,0.0,0.0,-5.4473,-5.5625,-5.666,-5.7109,0.0,0.0,0.0,0.0,0.0,0.0,0.0,0.0,0.0,0.0,0.0,0.0,0.0,0.0,0.0,0.0,0.0,0.0,-5.8008,-5.832,-5.7851,-5.8652,-5.9121,-5.9121,-5.957,-6.0215,-6.1035,-6.1484,-6.1719,-6.1719,-6.1719,-6.1719,-6.1719,-6.1719,-6.1719,-6.1719,-6.1719,-6.1719,-6.1719,-6.1719,-6.1719,-6.1719,-6.1719,-6.1719,-6.1719,-6.1719,-6.1719,-6.1719,-6.1719,-6.1719,-6.1719,-6.1719,-6.1719,-6.1719,-6.1719,-6.1719,-6.1719,-6.1719,-6.1426,-6.1094,-6.1035,-6.0742,-6.043,-6.039,-6.0098,-6.0039,-6.0859,-6.0742,-6.0664,-6.1484,-6.1719,-6.1719,-6.1719,-6.1719,-6.1719,-6.1719,-6.1719,-6.1719,-6.1719,-6.1719,-6.1719,-6.1719,-6.1719,-6.1894,-6.2305,-6.2363,-6.2598,-6.3027,-6.3457,-6.3691,-6.3691,-6.4082,-6.4316,-6.4316,-6.4316,-6.4316,-6.4316,-6.4316,-6.4316,-6.4316,-6.4316,-6.4316,-6.4316,-6.4316,-6.4316,-5.248,0.0,0.0,0.0,0.0,0.0,0.0,0.0,0.0,0.0,0.0,0.0,0.0,0.0,0.0,0.0,0.0,0.0,0.0,0.0,0.0,0.0,0.0,0.0,-5.7226,-5.7715,-5.7734,0.0,-5.7734,-5.8203,-5.8203,-5.9238,-6.0039,-6.0605,-6.1035,-6.1426,-6.1719,-6.1719,-6.1719,-6.1719,-6.1719,-6.1719,-6.1719,-6.1719,-6.1719,-6.1719,-6.1719,-6.1719,-6.1719,-6.1719,-6.1719,-6.1719,-6.1719,-6.1719,-6.1719,-6.1719,-6.1719,-6.1719,-6.1719,-6.1719,-6.1719,-6.1719,-6.1719,-6.166,-6.1367,-6.1191,-6.0976,-6.0332,-6.0098,-5.9922,-5.959,-5.9687,-5.9922,-6.0488,-6.0273,-6.0215,-6.1074,-6.1269,-6.1367,-6.166,-6.1484,-6.1367,-6.166,-6.1719,-6.1719,-6.1719,-6.1719,-6.1719,-6.1719,-6.2012,-6.2246,-6.2363,-6.293,-6.3398,-6.3515,-6.3906,-6.414,-6.414,-6.4258,-6.4316,-6.4316,-6.4316,-6.4316,-6.4316,-6.4316,-6.4316,-6.4316,-6.4316,-6.4316,-6.4316,-6.4316,-6.4316,-5.2793,-5.2851,-5.3086,-5.4648,0.0,0.0,0.0,0.0,0.0,0.0,0.0,0.0,0.0,0.0,0.0,0.0,0.0,0.0,0.0,0.0,0.0,0.0,0.0,-5.7207,-5.7207,-5.7598,-5.7578,-5.6894,-5.748,-5.793,-5.8144,-5.9062,-5.9746,-6.0156,-6.0781,-6.1211,-6.1426,-6.1601,-6.1719,-6.1719,-6.1719,-6.1719,-6.1719,-6.1719,-6.1719,-6.1719,-6.1719,-6.1719,-6.1719,-6.1719,-6.1719,-6.1719,-6.1719,-6.1719,-6.1719,-6.1719,-6.1719,-6.1719,-6.1719,-6.1601,-6.1484,-6.166,-6.1484,-6.1191,-6.1094,-6.0859,-6.0449,-5.9941,-5.9687,-5.9473,-5.9238,-5.9355,-5.9648,-6.0098,-5.998,-5.998,-6.0683,-6.0683,-6.0742,-6.1328,-6.1387,-6.1367,-6.1426,-6.1426,-6.1426,-6.1426,-6.1426,-6.1601,-6.1953,-6.2187,-6.248,-6.2871,-6.3398,-6.375,-6.3926,-6.4199,-6.4316,-6.4316,-6.4316,-6.4316,-6.4316,-6.4316,-6.4316,-6.4316,-6.4316,-6.4316,-6.4316,-6.4316,-6.4316,-6.4316,-6.4316,-6.4316,-5.3164,-5.2969,-5.2969,-5.4336,-5.4648,0.0,0.0,0.0,0.0,0.0,0.0,0.0,0.0,0.0,0.0,0.0,0.0,0.0,0.0,0.0,0.0,0.0,-5.7051,-5.707,-5.707,-5.7461,-5.7558,-5.7168,-5.7539,-5.7969,-5.8301,-5.8828,-5.9297,-5.9648,-6.0566,-6.1035,-6.1094,-6.1484,-6.1719,-6.1719,-6.1719,-6.1719,-6.1719,-6.1719,-6.1719,-6.1719,-6.1719,-6.1719,-6.1719,-6.1719,-6.1719,-6.1719,-6.1719,-6.1719,-6.1719,-6.1719,-6.1719,-6.1719,-6.1719,-6.1426,-6.1152,-6.1543,-6.1074,-6.0488,-6.084,-6.039,-5.9805,-5.9746,-5.9473,-5.918,-5.918,-5.918,-5.9297,-5.9707,-5.9765,-5.9863,-6.0273,-6.0098,-6.0039,-6.0801,-6.125,-6.1426,-6.1074,-6.1015,-6.1015,-6.1015,-6.1094,-6.1426,-6.2187,-6.2422,-6.2812,-6.3613,-6.373,-6.3906,-6.4258,-6.4316,-6.4316,-6.4316,-6.4316,-6.4316,-6.4316,-6.4316,-6.4316,-6.4316,-6.4316,-6.4316,-6.4316,-6.4316,-6.4316,-6.4316,-6.4316,-6.4316,-5.2715,-5.2519,-5.2598,-5.4258,0.0,0.0,0.0,0.0,0.0,0.0,0.0,0.0,0.0,0.0,0.0,0.0,0.0,0.0,0.0,0.0,-5.5215,-5.5625,-5.5976,-5.6191,-5.6191,-5.6582,-5.6797,-5.6719,-5.7109,-5.7226,-5.6973,-5.8027,-5.8711,-5.8769,-5.9922,-6.0742,-6.1094,-6.1484,-6.1719,-6.1719,-6.1719,-6.1719,-6.1719,-6.1719,-6.1719,-6.1719,-6.1719,-6.1719,-6.1719,-6.1719,-6.1719,-6.1719,-6.1719,-6.1719,-6.1719,-6.1719,-6.1719,-6.1719,-6.1719,-6.1426,-6.1094,-6.1191,-6.0859,-6.039,-6.0156,-5.9922,-5.9746,-5.9414,-5.9238,-5.918,-5.918,-5.918,-5.9297,-5.9707,-5.9531,-5.9414,-5.9863,-5.9863,-5.9863,-6.0039,-6.0098,-6.0273,-6.0508,-6.0566,-6.0566,-6.0566,-6.1133,-6.166,-6.1836,-6.2754,-6.3515,-6.3672,-6.3984,-6.4199,-6.4316,-6.4316,-6.4316,-6.4316,-6.4316,-6.4316,-6.4316,-6.4316,-6.4316,-6.4316,-6.4316,-6.4316,-6.4316,-6.4316,-6.4316,-6.4316,-6.4316,-6.4316,-5.3574,-5.3223,-5.3027,-5.4355,0.0,0.0,0.0,0.0,0.0,0.0,0.0,0.0,0.0,0.0,0.0,0.0,0.0,0.0,-5.5566,-5.4902,-5.4512,-5.4941,-5.5176,-5.5469,-5.5898,-5.6133,-5.6348,-5.6562,-5.6777,-5.6797,-5.6601,-5.7402,-5.7969,-5.8203,-5.9453,-6.0332,-6.0742,-6.1367,-6.1719,-6.1719,-6.1719,-6.1719,-6.1719,-6.1719,-6.1719,-6.1719,-6.1719,-6.1719,-6.1719,-6.1719,-6.1719,-6.1719,-6.1719,-6.1719,-6.1719,-6.1719,-6.1719,-6.1719,-6.1719,-6.1308,-6.0801,-6.1015,-6.0508,-5.9805,-5.9805,-5.9648,-5.9473,-5.9238,-5.918,-5.918,-5.918,-5.918,-5.9238,-5.9453,-5.9355,-5.9238,-5.9473,-5.9512,-5.9512,-5.9512,-5.9512,-5.9629,-6.0039,-6.0137,-6.0137,-6.0137,-6.0664,-6.125,-6.166,-6.248,-6.3183,-6.3633,-6.3672,-6.3789,-6.3965,-6.4023,-6.4023,-6.4023,-6.4199,-6.4316,-6.4316,-6.4316,-6.4316,-6.4316,-6.4316,-6.4316,-6.4316,-6.4316,-6.4316,-6.4316,-6.4316,-6.4316,0.0,0.0,0.0,0.0,0.0,-5.3965,0.0,0.0,0.0,0.0,0.0,0.0,0.0,0.0,0.0,0.0,0.0,0.0,0.0,-5.5215,0.0,-5.5215,-5.5,-5.5137,-5.5976,-5.6211,-5.6387,-5.6562,-5.6816,-5.6855,-5.6601,-5.6992,-5.7422,-5.7851,-5.9062,-5.9922,-6.043,-6.1191,-6.166,-6.1719,-6.1719,-6.1719,-6.1719,-6.1719,-6.1719,-6.1719,-6.1719,-6.1719,-6.1719,-6.1719,-6.1719,-6.1719,-6.1719,-6.1719,-6.1719,-6.1719,-6.1719,-6.1719,-6.1601,-6.1074,-6.0488,-6.0742,-6.0098,-5.9238,-5.959,-5.9473,-5.918,-5.918,-5.918,-5.918,-5.918,-5.918,-5.918,-5.918,-5.918,-5.918,-5.918,-5.918,-5.918,-5.918,-5.918,-5.9297,-5.9629,-5.9687,-5.9707,-5.9805,-6.0215,-6.084,-6.1601,-6.2187,-6.2773,-6.3496,-6.3262,-6.3164,-6.3515,-6.3574,-6.3574,-6.3574,-6.3867,-6.4082,-6.4082,-6.414,-6.4258,-6.4316,-6.4316,-6.4316,-6.4316,-6.4316,-6.4316,-6.4316,-6.4316,-6.4316,0.0,0.0,0.0,0.0,-5.3769,0.0,0.0,0.0,0.0,0.0,0.0,0.0,0.0,0.0,0.0,0.0,0.0,0.0,-5.5488,-5.5605,-5.6152,-5.7363,-5.6152,-5.5566,-5.6426,-5.7207,-5.7344,-5.664,-5.7656,-5.7793,-5.664,-5.6992,-5.7422,-5.7851,-5.8769,-5.9629,-6.043,-6.0918,-6.1367,-6.1719,-6.1719,-6.1719,-6.1719,-6.1719,-6.1719,-6.1719,-6.1719,-6.1719,-6.1719,-6.1719,-6.1719,-6.1719,-6.1719,-6.1719,-6.1719,-6.1719,-6.1719,-6.166,-6.1308,-6.084,-6.0371,-6.0039,-5.959,-5.918,-5.9238,-5.9238,-5.918,-5.918,-5.918,-5.918,-5.918,-5.918,-5.918,-5.918,-5.918,-5.918,-5.918,-5.918,-5.918,-5.918,-5.918,-5.918,-5.9238,-5.9238,-5.9355,-5.9746,-6.0508,-6.1191,-6.166,-6.2461,-6.2988,-6.3105,-6.3047,-6.3047,-6.3105,-6.3105,-6.3105,-6.3105,-6.3144,-6.3164,-6.3164,-6.3555,-6.3926,-6.4316,-6.4316,-6.4316,-6.4316,-6.4316,-6.4316,-6.4316,-6.4316,-6.4316,0.0,0.0,0.0,0.0,0.0,0.0,-5.4824,0.0,-5.4355,0.0,0.0,0.0,0.0,0.0,0.0,0.0,-5.6426,0.0,0.0,0.0,-5.5957,0.0,0.0,0.0,-5.7246,-5.7656,-5.7715,-5.7344,-5.7851,-5.7695,-5.664,-5.6758,-5.7051,-5.748,-5.8359,-5.9121,-5.9707,-6.039,-6.0918,-6.1367,-6.1367,-6.1484,-6.1719,-6.1719,-6.1719,-6.1719,-6.1719,-6.1719,-6.1719,-6.1719,-6.1719,-6.1719,-6.1719,-6.1719,-6.1719,-6.1719,-6.1719,-6.166,-6.125,-6.0801,-6.0332,-5.9648,-5.9355,-5.918,-5.918,-5.918,-5.918,-5.918,-5.918,-5.918,-5.918,-5.918,-5.918,-5.918,-5.918,-5.918,-5.918,-5.918,-5.918,-5.918,-5.918,-5.918,-5.918,-5.9414,-5.959,-5.9805,-6.0566,-6.1152,-6.1328,-6.1894,-6.2344,-6.2637,-6.2402,-6.2363,-6.2637,-6.2637,-6.2637,-6.2637,-6.2871,-6.3144,-6.3398,-6.3574,-6.3867,-6.4316,-6.4316,-6.4316,-6.4316,-6.4316,-6.4199,-6.3965,-6.4199,-6.4316,-5.4726,0.0,0.0,0.0,0.0,0.0,0.0,0.0,0.0,0.0,0.0,0.0,0.0,0.0,-5.5898,-5.6328,0.0,-5.6562,0.0,-5.6289,0.0,0.0,0.0,0.0,0.0,-5.7871,-5.8086,-5.7715,-5.8144,-5.791,-5.6816,-5.664,-5.6777,-5.7207,-5.7969,-5.8594,-5.918,-5.9922,-6.0488,-6.0918,-6.1035,-6.125,-6.1543,-6.166,-6.1719,-6.1719,-6.1719,-6.1719,-6.1719,-6.1719,-6.1719,-6.1719,-6.1719,-6.1719,-6.1719,-6.1719,-6.166,-6.1484,-6.1074,-6.0566,-5.998,-5.9355,-5.918,-5.918,-5.918,-5.918,-5.918,-5.918,-5.918,-5.918,-5.918,-5.918,-5.918,-5.918,-5.918,-5.918,-5.918,-5.918,-5.918,-5.918,-5.918,-5.9238,-5.9355,-5.959,-5.9863,-5.998,-6.0625,-6.1133,-6.125,-6.1543,-6.1836,-6.2129,-6.1894,-6.1836,-6.2187,-6.2187,-6.2187,-6.2187,-6.248,-6.2871,-6.3281,-6.334,-6.3515,-6.3965,-6.3965,-6.3965,-6.3965,-6.3965,-6.3789,-6.3515,-6.3965,-6.414,-5.457,-5.4687,-5.4785,-5.5195,0.0,0.0,0.0,0.0,-5.4023,0.0,0.0,0.0,0.0,-5.5312,-5.5469,-5.5898,-5.6308,0.0,0.0,0.0,0.0,0.0,0.0,0.0,0.0,-5.791,-5.8613,0.0,-5.8769,-5.9004,-5.7285,-5.6797,-5.6777,-5.7207,-5.7656,-5.832,-5.918,-5.9629,-6.0039,-6.0449,-6.0898,-6.1094,-6.1133,-6.1543,-6.1719,-6.1719,-6.1719,-6.1719,-6.1719,-6.1719,-6.1719,-6.1719,-6.1719,-6.1719,-6.1719,-6.1719,-6.1426,-6.1035,-6.0605,-5.9922,-5.9238,-5.918,-5.918,-5.918,-5.918,-5.918,-5.918,-5.918,-5.918,-5.918,-5.918,-5.918,-5.918,-5.918,-5.918,-5.918,-5.918,-5.918,-5.918,-5.918,-5.918,-5.9297,-5.9707,-5.9805,-5.9922,-6.0371,-6.0801,-6.125,-6.166,-6.1719,-6.1719,-6.1719,-6.1719,-6.1719,-6.1719,-6.1719,-6.1719,-6.1719,-6.1758,-6.1953,-6.2363,-6.2422,-6.2637,-6.3086,-6.3086,-6.3086,-6.3086,-6.3086,-6.3086,-6.3086,-6.3515,-6.3691,-5.4355,-5.4453,-5.4785,-5.5195,-5.541,0.0,0.0,0.0,0.0,0.0,0.0,0.0,0.0,-5.5723,-5.5762,-5.5918,-5.6308,-5.623,0.0,0.0,0.0,0.0,0.0,0.0,0.0,0.0,0.0,0.0,-5.8769,0.0,-5.7265,-5.707,-5.6933,-5.6797,-5.75,-5.8027,-5.832,-5.9023,-5.959,-6.0039,-6.0449,-6.0801,-6.1094,-6.1543,-6.1719,-6.1719,-6.1719,-6.1719,-6.1719,-6.1719,-6.1719,-6.1719,-6.1719,-6.1543,-6.1308,-6.1308,-6.1211,-6.0976,-6.0273,-5.9648,-5.918,-5.918,-5.918,-5.918,-5.918,-5.918,-5.918,-5.918,-5.918,-5.918,-5.918,-5.918,-5.918,-5.918,-5.918,-5.918,-5.918,-5.918,-5.918,-5.918,-5.918,-5.9297,-5.9746,-6.0039,-6.0371,-6.0801,-6.125,-6.1543,-6.1719,-6.1719,-6.1719,-6.1719,-6.1719,-6.1719,-6.1719,-6.1719,-6.1719,-6.1719,-6.1719,-6.1894,-6.2363,-6.2363,-6.2578,-6.3027,-6.3027,-6.3027,-6.3027,-6.3027,-6.2871,-6.2598,-6.2754,-6.2988,-5.459,-5.459,-5.4785,-5.5195,-5.539,-5.5566,-5.5859,0.0,-5.5625,0.0,0.0,0.0,0.0,-5.5859,-5.6113,-5.5957,-5.6308,-5.6348,0.0,-5.5625,0.0,0.0,0.0,0.0,0.0,0.0,0.0,0.0,0.0,0.0,0.0,-5.7285,-5.709,-5.6816,-5.7344,-5.7695,-5.7871,-5.8594,-5.918,-5.959,-6.0039,-6.0449,-6.0859,-6.1308,-6.1601,-6.1719,-6.1719,-6.1719,-6.1719,-6.1719,-6.1601,-6.1484,-6.1484,-6.125,-6.0859,-6.1035,-6.0898,-6.0508,-5.9824,-5.9414,-5.918,-5.918,-5.918,-5.918,-5.918,-5.918,-5.9238,-5.9355,-5.9297,-5.9238,-5.9355,-5.9297,-5.918,-5.918,-5.918,-5.918,-5.918,-5.918,-5.918,-5.918,-5.9297,-5.9531,-5.998,-6.039,-6.0781,-6.1035,-6.1426,-6.1719,-6.1719,-6.1719,-6.1719,-6.1719,-6.1719,-6.1719,-6.1719,-6.1719,-6.1719,-6.1719,-6.1719,-6.1836,-6.2129,-6.2129,-6.2344,-6.2812,-6.2637,-6.2637,-6.2812,-6.2637,-6.2402,-6.2129,-6.2129,-6.2285]}]]